     2              OBSERVATION DATA    GPS                 RINEX VERSION / TYPE
teqc 1997Jul24 19970902 21:10:38UTC                         PGM / RUN BY / DATE
                                                            COMMENT
BIT 2 OF LLI FLAGS DATA COLLECTED UNDER A-S CONDITION       COMMENT
BIT 2 OF LLI FLAGS DATA COLLECTED UNDER A-S CONDITION       COMMENT
Original Marker Name: 55487-PINY                            COMMENT
Campaign Name: Salt. Tr. Crust. Monit. May-Jun 1986         COMMENT
4-Character Station Name: PINY                              COMMENT
6-Character Antenna Code: TI4100                            COMMENT
Vertical Measurement Point: PAE                             COMMENT
Vertical Offset to Rinex Ref. Point: 0.0000                 COMMENT
Radial Measurement Point: RRP                               COMMENT
Radial Offset to Rinex Ref. Point: 0.0000                   COMMENT
Antenna Height from Field Measurement: 1.3885 m             COMMENT
Original XYZ: -2369650.3659 -4761559.9429 3511320.7958      COMMENT
New XYZ position is based on association with SCEC monument COMMENT
E1D0K5S1+0011. Position of that monument is believed to be  COMMENT
valid to within 1 m horizontally; vertical accuracy         COMMENT
should be no worse than 3-times this value.                 COMMENT
                                                            COMMENT
Revised Rinex header created by UCSD GPS archive for        COMMENT
GSAC on 28-May-1999 (1999:148) 21:06:39 GMT                 COMMENT
For assistance contact dagnew@ucsd.edu or hjohnson@ucsd.edu COMMENT
                                                            COMMENT
PINYON FLAT NCMN 1981                                       MARKER NAME
5 NATIONAL GEODETIC SURVEY                                  OBSERVER / AGENCY
UT-09 TI 4100 1.0                                           REC # / TYPE / VERS
156 TI 4100                                                 ANT # / TYPE
 -2369636.0000 -4761325.0000  3511116.0000                  APPROX POSITION XYZ
        1.3885        0.0000        0.0000                  ANTENNA: DELTA H/E/N
     1     1     0                                          WAVELENGTH FACT L1/2
     4    P1    P2    L1    L2                              # / TYPES OF OBSERV
     6                                                      INTERVAL
  1986     6    13     2    53   41.000000                  TIME OF FIRST OBS
  1986     6    13     4    29   47.000000                  TIME OF LAST OBS
     0                                                      # OF SATELLITES
                                                            END OF HEADER
 86  6 13  2 53 41.0800000  0  4G12G13G 9G11
  21238992.085    21238997.791     7768802.202 9 -18318508.546 7
  20738607.345    20738613.715    30683127.891 9 -44675425.055 9
  21131032.680    21131039.115    64647650.070 8-106032203.663 7
  24199539.463    24199547.476    92605465.893 9 -84641913.832 9
 86  6 13  2 53 47.0800000  0  4G12G13G 9G11
  21237161.645    21237168.543     7759186.449 9 -18326001.333 8
  20739408.837    20739414.343    30687341.732 9 -44672141.543 9
  21134133.623    21134139.686    64663946.592 7-106019505.069 8
  24202673.331    24202680.390    92621929.109 9 -84629085.353 9
 86  6 13  2 53 53.0800000  0  4G12G13G 9G11
  21235336.673    21235342.852     7749592.548 8 -18333477.098 8
  20740214.193    20740218.109    30691567.516 9 -44668848.724 7
  21137237.902    21137244.781    64680263.830 8-106006790.345 7
  24205805.405    24205812.923    92638390.518 9 -84616258.299 9
 86  6 13  2 53 59.0800000  0  4G12G13G 9G11
  21233515.513    21233521.977     7740020.509 9 -18340935.822 8
  20741020.972    20741024.526    30695805.201 9 -44665546.621 8
  21140347.053    21140352.883    64696601.715 8-105994059.526 9
  24208937.978    24208945.148    92654850.039 8 -84603432.690 8
 86  6 13  2 54  5.0800000  0  4G12G13G 9G11
  21231697.198    21231704.635     7730470.391 8 -18348377.479 8
  20741829.561    20741833.437    30700054.812 9 -44662235.238 9
  21143459.141    21143466.702    64712960.419 8-105981312.507 7
  24212067.827    24212076.584    92671307.688 8 -84590608.557 8
 86  6 13  2 54 11.0800000  0  4G12G13G 9G11
  21229884.238    21229890.687     7720942.203 9 -18355802.034 9
  20742640.567    20742644.188    30704316.368 9 -44658914.543 9
  21146577.839    21146582.301    64729339.792 7-105968549.361 8
  24215200.199    24215207.102    92687763.517 9 -84577785.835 8
 86  6 13  2 54 17.0800000  0  4G12G13G 9G11
  21228075.069    21228082.636     7711436.003 8 -18363209.466 9
  20743453.375    20743457.694    30708589.835 8 -44655584.567 8
  21149698.419    21149704.938    64745739.824 8-105955770.114 7
  24218332.023    24218339.018    92704217.464 8 -84564964.579 8
 86  6 13  2 54 23.0800000  0  4G12G13G 9G11
  21226270.480    21226276.816     7701951.726 9 -18370599.811 9
  20744268.655    20744272.876    30712875.130 8 -44652245.383 8
  21152822.774    21152829.054    64762160.513 8-105942974.783 7
  24221462.094    24221469.943    92720669.498 9 -84552144.821 8
 86  6 13  2 54 29.0800000  0  4G12G13G 9G11
  21224470.594    21224475.833     7692489.397 8 -18377973.057 9
  20745085.922    20745090.722    30717172.305 9 -44648896.933 9
  21155950.629    21155956.186    64778601.786 8-105930163.399 7
  24224592.978    24224600.511    92737119.601 8 -84539326.561 9
 86  6 13  2 54 35.0800000  0  4G12G13G 9G11
  21222674.080    21222679.705     7683049.060 9 -18385329.175 8
  20745906.708    20745911.809    30721481.355 9 -44645539.223 8
  21159084.655    21159090.160    64795063.699 8-105917335.946 7
  24227722.418    24227729.366    92753567.809 9 -84526509.784 8
 86  6 13  2 54 41.0800000  0  4G12G13G 9G11
  21220881.728    21220886.362     7673630.711 8 -18392668.141 9
  20746728.954    20746733.909    30725802.222 8 -44642172.311 8
  21162221.574    21162227.359    64811546.220 8-105904492.420 8
  24230852.378    24230859.635    92770014.110 9 -84513694.488 9
 86  6 13  2 54 47.0800000  0  4G12G13G 9G11
  21219092.861    21219098.420     7664234.373 9 -18399989.963 7
  20747552.930    20747559.070    30730134.906 9 -44638796.194 8
  21165361.981    21165367.228    64828049.301 9-105891632.886 8
  24233981.684    24233989.538    92786458.490 9 -84500880.693 8
 86  6 13  2 54 53.0800000  0  4G12G13G 9G11
  21217309.464    21217315.017     7654860.046 9 -18407294.637 8
  20748379.027    20748385.270    30734479.429 9 -44635410.851 9
  21168505.938    21168511.186    64844572.947 8-105878757.311 7
  24237110.148    24237116.918    92802900.987 8 -84488068.364 8
 86  6 13  2 54 59.0800000  0  4G12G13G 9G11
  21215529.869    21215535.956     7645507.861 9 -18414582.049 9
  20749208.084    20749213.970    30738835.772 8 -44632016.299 8
  21171654.103    21171660.268    64861117.168 7-105865865.714 8
  24240238.914    24240247.391    92819341.619 7 -84475257.499 9
 86  6 13  2 55  5.0800000  0  4G12G13G 9G11
  21213754.436    21213760.653     7636177.773 9 -18421852.257 9
  20750039.190    20750046.344    30743203.920 9 -44628612.546 8
  21174804.972    21174811.782    64877681.953 8-105852958.093 8
  24243366.429    24243374.616    92835780.321 9 -84462448.127 8
 86  6 13  2 55 11.0800000  0  4G12G13G 9G11
  21211983.389    21211988.469     7626869.818 8 -18429105.201 8
  20750872.535    20750878.624    30747583.868 8 -44625199.602 9
  21177960.998    21177969.014    64894267.259 8-105840034.484 8
  24246494.594    24246502.558    92852217.156 8 -84449640.208 9
 86  6 13  2 55 17.0800000  0  4G12G13G 9G11
  21210216.427    21210222.296     7617584.042 9 -18436340.876 8
  20751707.642    20751715.181    30751975.561 8 -44621777.515 8
  21181120.527    21181127.796    64910873.042 7-105827094.919 8
  24249622.927    24249629.508    92868652.077 9 -84436833.786 8
 86  6 13  2 55 23.0800000  0  4G12G13G 9G11
  21208452.818    21208458.869     7608320.495 9 -18443559.236 7
  20752547.248    20752553.585    30756378.991 8 -44618346.265 9
  21184284.841    21184292.990    64927499.219 7-105814139.459 7
  24252750.115    24252757.196    92885085.050 9 -84424028.884 8
 86  6 13  2 55 29.0800000  0  4G12G13G 9G11
  21206693.895    21206701.090     7599078.987 9 -18450760.398 8
  20753387.432    20753393.389    30760794.191 9 -44614905.847 8
  21187452.930    21187460.007    64944145.874 8-105801168.062 7
  24255876.596    24255884.511    92901516.025 9 -84411225.534 8
 86  6 13  2 55 35.0800000  0  4G12G13G 9G11
  21204940.023    21204946.315     7589859.511 9 -18457944.405 8
  20754229.471    20754236.231    30765221.066 9 -44611456.341 8
  21190625.427    21190630.702    64960812.865 8-105788180.798 8
  24259002.504    24259009.473    92917944.908 8 -84398423.802 8
 86  6 13  2 55 41.0800000  0  4G12G13G 9G11
  21203190.286    21203196.254     7580662.105 9 -18465111.216 8
  20755074.533    20755079.724    30769659.479 9 -44607997.838 9
  21193800.894    21193806.251    64977500.090 8-105775177.780 8
  24262128.548    24262135.529    92934371.646 9 -84385623.741 9
 86  6 13  2 55 47.0800000  0  4G12G13G 9G11
  21201444.144    21201450.580     7571486.751 9 -18472260.845 9
  20755921.985    20755925.944    30774109.376 9 -44604530.377 8
  21196979.783    21196986.212    64994207.603 8-105762158.933 8
  24265254.166    24265261.537    92950796.233 9 -84372825.359 8
 86  6 13  2 55 53.0800000  0  4G12G13G 9G11
  21199703.098    21199707.845     7562333.528 9 -18479393.220 9
  20756770.594    20756775.567    30778570.843 8 -44601053.910 8
  21200163.478    21200168.888    65010935.311 8-105749124.354 8
  24268378.897    24268386.679    92967218.792 9 -84360028.554 7
 86  6 13  2 55 59.0800000  0  4G12G13G 9G11
  21197964.377    21197970.910     7553202.483 9 -18486508.326 9
  20757621.082    20757626.339    30783043.851 8 -44597568.440 9
  21203350.946    21203356.064    65027683.280 8-105736074.007 8
  24271504.732    24271510.705    92983639.329 9 -84347233.336 9
 86  6 13  2 56  5.0800000  0  4G12G13G 9G11
  21196230.891    21196237.380     7544093.628 9 -18493606.127 8
  20758474.802    20758479.019    30787528.476 9 -44594073.933 8
  21206541.759    21206547.068    65044451.451 8-105723007.891 7
  24274629.496    24274635.969    93000057.807 9 -84334439.727 8
 86  6 13  2 56 11.0800000  0  4G12G13G 9G11
  21194501.282    21194508.315     7535006.997 9 -18500686.631 8
  20759330.320    20759335.786    30792024.638 9 -44590570.430 9
  21209735.223    21209741.824    65061239.914 8-105709925.980 8
  24277752.775    24277759.746    93016474.228 9 -84321647.705 8
 86  6 13  2 56 17.0800000  0  4G12G13G 9G11
  21192776.315    21192783.608     7525942.696 9 -18507749.718 8
  20760189.117    20760194.134    30796532.347 9 -44587057.911 8
  21212934.778    21212940.532    65078048.560 9-105696828.340 8
  24280876.717    24280882.453    93032888.568 9 -84308857.311 8
 86  6 13  2 56 23.0800000  0  4G12G13G 9G11
  21191056.579    21191062.556     7516900.658 9 -18514795.469 8
  20761048.379    20761053.284    30801051.599 8 -44583536.429 8
  21216136.690    21216142.812    65094877.360 8-105683714.994 8
  24284000.148    24284005.851    93049300.788 9 -84296068.570 8
 86  6 13  2 56 29.0800000  0  4G12G13G 9G11
  21189339.586    21189346.999     7507880.927 9 -18521823.819 8
  20761911.086    20761916.071    30805582.414 9 -44580005.924 9
  21219343.048    21219348.693    65111726.451 9-105670585.824 7
  24287121.952    24287129.166    93065710.967 9 -84283281.413 9
 86  6 13  2 56 35.0800000  0  4G12G13G 9G11
  21187628.254    21187634.589     7498883.527 9 -18528834.780 9
  20762774.216    20762781.780    30810124.770 9 -44576466.413 9
  21222553.134    21222558.704    65128595.819 8-105657440.874 8
  24290243.940    24290252.186    93082119.050 9 -84270495.903 8
 86  6 13  2 56 41.0800000  0  4G12G13G 9G11
  21185919.345    21185927.151     7489908.520 9 -18535828.292 8
  20763641.575    20763647.028    30814678.555 8 -44572918.016 8
  21225767.778    21225772.492    65145485.260 8-105644280.285 8
  24293366.234    24293374.120    93098525.077 9 -84257711.989 8
 86  6 13  2 56 47.0800000  0  4G12G13G 9G11
  21184215.636    21184222.783     7480955.911 9 -18542804.359 8
  20764509.456    20764516.512    30819243.849 9 -44569360.640 8
  21228985.347    21228990.550    65162395.003 9-105631103.864 7
  24296487.093    24296495.274    93114929.115 8 -84244929.633 9
 86  6 13  2 56 53.0800000  0  4G12G13G 9G11
  21182516.663    21182524.635     7472025.715 9 -18549762.954 8
  20765380.851    20765387.419    30823820.675 9 -44565794.283 8
  21232207.567    21232212.600    65179324.858 8-105617911.785 8
  24299610.034    24299616.064    93131331.118 8 -84232148.879 8
 86  6 13  2 56 59.0800000  0  4G12G13G 9G11
  21180821.997    21180828.662     7463117.928 9 -18556704.073 9
  20766253.919    20766259.749    30828408.998 9 -44562218.975 7
  21235433.836    21235438.501    65196274.816 8-105604704.024 7
  24302729.323    24302737.038    93147731.009 9 -84219369.731 8
 86  6 13  2 57  5.0800000  0  4G12G13G 9G11
  21179131.570    21179137.812     7454232.556 9 -18563627.750 9
  20767129.611    20767135.695    30833008.722 9 -44558634.775 8
  21238661.562    21238667.968    65213244.876 8-105591480.602 8
  24305849.778    24305857.889    93164128.785 9 -84206592.266 8
 86  6 13  2 57 11.0800000  0  4G12G13G 9G11
  21177445.509    21177451.292     7445369.587 9 -18570533.957 8
  20768006.795    20768012.573    30837619.873 9 -44555041.665 9
  21241894.581    21241899.664    65230234.868 8-105578241.652 8
  24308969.014    24308977.160    93180524.336 8 -84193816.522 9
 86  6 13  2 57 17.0800000  0  4G12G13G 9G11
  21175763.188    21175768.780     7436529.010 9 -18577422.720 9
  20768886.083    20768892.443    30842242.409 9 -44551439.695 8
  21245131.750    21245136.978    65247244.912 8-105564987.078 8
  24312089.730    24312096.967    93196917.750 7 -84181042.448 8
 86  6 13  2 57 23.0800000  0  4G12G13G 9G11
  21174084.238    21174090.864     7427710.853 9 -18584294.009 9
  20769767.678    20769773.680    30846876.325 9 -44547828.849 8
  21248371.631    21248377.718    65264274.945 8-105551716.936 8
  24315208.321    24315215.442    93213308.945 8 -84168270.089 9
 86  6 13  2 57 29.0800000  0  4G12G13G 9G11
  21172409.529    21172417.128     7418915.144 9 -18591147.814 8
  20770650.813    20770657.484    30851521.574 8 -44544209.182 8
  21251616.784    21251622.675    65281324.964 8-105538431.220 7
  24318327.021    24318334.272    93229697.946 8 -84155499.453 9
 86  6 13  2 57 35.0800000  0  4G12G13G 9G11
  21170741.416    21170747.436     7410141.909 8 -18597984.099 8
  20771538.440    20771543.095    30856178.150 9 -44540580.675 8
  21254866.642    21254870.374    65298394.843 8-105525130.023 8
  24321445.219    24321452.784    93246084.812 8 -84142730.469 8
 86  6 13  2 57 41.0800000  0  4G12G13G 9G11
  21169076.804    21169082.037     7401391.187 9 -18604802.821 8
  20772425.489    20772432.022    30860846.106 9 -44536943.313 8
  21258117.952    21258121.731    65315484.668 8-105511813.280 8
  24324562.750    24324571.591    93262469.530 8 -84129963.168 9
 86  6 13  2 57 47.0800000  0  4G12G13G 9G11
  21167415.511    21167421.504     7392663.068 8 -18611603.951 8
  20773316.477    20773322.327    30865525.449 9 -44533297.068 9
  21261374.837    21261378.901    65332594.396 8-105498481.015 7
  24327681.439    24327688.667    93278852.122 7 -84117197.526 8
 86  6 13  2 57 53.0800000  0  4G12G13G 9G11
  21165758.002    21165764.718     7383957.473 9 -18618387.541 8
  20774209.078    20774214.005    30870216.112 9 -44529642.002 8
  21264632.895    21264638.276    65349724.121 9-105485133.201 7
  24330798.778    24330805.953    93295232.598 7 -84104433.537 8
 86  6 13  2 57 59.0800000  0  4G12G13G 9G11
  21164106.262    21164111.702     7375274.473 8 -18625153.505 9
  20775103.380    20775110.491    30874918.053 8 -44525978.159 8
  21267896.961    21267900.951    65366873.771 8-105471769.824 8
  24333916.207    24333920.874    93311610.887 8 -84091671.249 8
 86  6 13  2 58  5.0800000  0  4G12G13G 9G11
  21162458.436    21162464.343     7366614.080 9 -18631901.861 8
  20776000.698    20776006.059    30879631.332 9 -44522305.469 8
  21271163.851    21271169.226    65384043.329 9-105458390.942 9
  24337032.296    24337038.332    93327987.004 8 -84078910.665 7
 86  6 13  2 58 11.0800000  0  4G12G13G 9G11
  21160814.530    21160820.168     7357976.298 9 -18638632.608 8
  20776900.311    20776905.538    30884355.889 9 -44518623.996 9
  21274434.230    21274440.474    65401232.730 8-105444996.634 8
  24340145.767    24340154.302    93344360.927 8 -84066151.783 9
 86  6 13  2 58 17.0800000  0  4G12G13G 9G11
  21159175.573    21159181.271     7349361.048 9 -18645345.771 8
  20777801.990    20777806.918    30889091.646 9 -44514933.794 9
  21277709.260    21277714.790    65418441.925 8-105431586.860 8
  24343262.873    24343269.801    93360732.601 7 -84053394.636 9
 86  6 13  2 58 23.0800000  0  4G12G13G 9G11
  21157539.981    21157546.350     7340768.406 9 -18652041.363 9
  20778705.088    20778709.836    30893838.579 9 -44511234.878 8
  21280987.037    21280993.919    65435670.890 9-105418161.707 9
  24346377.106    24346383.990    93377102.025 8 -84040639.236 8
 86  6 13  2 58 29.0800000  0  4G12G13G 9G11
  21155909.072    21155915.045     7332198.437 9 -18658719.249 9
  20779610.831    20779615.988    30898596.794 8 -44507527.171 8
  21284270.683    21284276.100    65452919.656 8-105404721.130 8
  24349492.691    24349499.774    93393469.181 8 -84027885.626 9
 86  6 13  2 58 35.0800000  0  4G12G13G 9G11
  21154281.907    21154288.452     7323651.080 9 -18665379.533 9
  20780517.943    20780522.759    30903366.206 9 -44503810.756 9
  21287555.944    21287562.971    65470188.074 9-105391265.216 8
  24352606.568    24352614.139    93409834.024 9 -84015133.811 9
 86  6 13  2 58 41.0800000  0  4G12G13G 9G11
  21152659.307    21152665.981     7315126.314 9 -18672022.207 8
  20781427.779    20781433.432    30908146.686 9 -44500085.705 9
  21290845.479    21290852.120    65487476.201 9-105377793.951 8
  24355720.076    24355727.907    93426196.595 9 -84002383.761 8
 86  6 13  2 58 47.0800000  0  4G12G13G 9G11
  21151041.629    21151048.051     7306624.203 8 -18678647.216 8
  20782340.179    20782344.990    30912938.306 9 -44496351.966 9
  21294140.014    21294145.370    65504783.959 8-105364307.397 8
  24358834.488    24358840.898    93442556.813 8 -83989635.555 8
 86  6 13  2 58 53.0800000  0  4G12G13G 9G11
  21149428.654    21149434.852     7298144.716 8 -18685254.618 8
  20783253.260    20783258.609    30917741.003 9 -44492609.605 8
  21297437.552    21297442.444    65522111.236 8-105350805.639 7
  24361946.451    24361953.342    93458914.719 9 -83976889.139 9
 86  6 13  2 58 59.0800000  0  4G12G13G 9G11
  21147819.561    21147826.241     7289687.942 9 -18691844.313 8
  20784170.222    20784174.191    30922554.769 9 -44488858.626 8
  21300737.225    21300745.110    65539458.211 9-105337288.508 8
  24365059.767    24365066.017    93475270.301 8 -83964144.525 8
 86  6 13  2 59  5.0800000  0  4G12G13G 9G11
  21146215.346    21146220.817     7281253.935 8 -18698416.265 8
  20785087.869    20785092.477    30927379.697 9 -44485098.931 9
  21304043.549    21304049.220    65556824.895 8-105323756.036 8
  24368170.856    24368177.334    93491623.717 8 -83951401.609 8
 86  6 13  2 59 11.0800000  0  4G12G13G 9G11
  21144614.170    21144620.381     7272842.729 9 -18704970.448 8
  20786008.111    20786013.360    30932215.851 9 -44481330.499 8
  21307351.937    21307357.278    65574211.166 8-105310208.294 7
  24371282.320    24371290.213    93507974.857 8 -83938660.477 7
 86  6 13  2 59 17.0800000  0  4G12G13G 9G11
  21143017.898    21143023.838     7264454.273 9 -18711506.903 8
  20786931.116    20786935.015    30937063.133 9 -44477553.392 8
  21310663.462    21310669.912    65591617.064 8-105296645.257 8
  24374393.748    24374399.677    93524323.796 7 -83925921.061 8
 86  6 13  2 59 23.0800000  0  4G12G13G 9G11
  21141425.954    21141431.274     7256088.716 9 -18718025.519 9
  20787855.593    20787859.305    30941921.564 9 -44473767.600 9
  21313978.222    21313986.264    65609042.590 9-105283066.937 7
  24377503.417    24377510.909    93540670.493 8 -83913183.395 8
 86  6 13  2 59 29.0800000  0  4G12G13G 9G11
  21139838.597    21139843.897     7247746.089 9 -18724526.269 9
  20788781.169    20788786.546    30946791.188 8 -44469973.083 8
  21317298.222    21317305.252    65626487.786 9-105269473.284 7
  24380614.730    24380621.280    93557014.994 7 -83900447.431 7
 86  6 13  2 59 35.0800000  0  4G12G13G 9G11
  21138254.803    21138261.158     7239426.442 9 -18731009.109 8
  20789709.577    20789715.158    30951672.013 9 -44466169.835 8
  21320621.539    21320628.622    65643952.648 8-105255864.301 8
  24383723.222    24383730.508    93573357.321 8 -83887713.139 8
 86  6 13  2 59 41.0800000  0  4G12G13G 9G11
  21136675.808    21136682.034     7231129.704 9 -18737474.106 8
  20790641.238    20790645.297    30956563.921 8 -44462357.952 9
  21323949.434    21323956.444    65661437.202 8-105242239.974 8
  24386832.131    24386841.563    93589697.510 7 -83874980.556 8
 86  6 13  2 59 47.0800000  0  4G12G13G 9G11
  21135101.491    21135108.052     7222855.933 9 -18743921.196 7
  20791572.715    20791579.157    30961467.049 8 -44458537.342 7
  21327280.168    21327287.059    65678941.279 8-105228600.434 8
  24389942.193    24389949.162    93606035.412 7 -83862249.727 8
 86  6 13  2 59 53.0800000  0  4G12G13G 9G11
  21133530.782    21133538.286     7214605.201 9 -18750350.334 9
  20792509.303    20792513.495    30966381.234 8 -44454708.107 9
  21330615.331    21330621.443    65696464.908 8-105214945.674 8
  24393051.512    24393058.259    93622371.150 8 -83849520.599 9
 86  6 13  2 59 59.0800000  0  4G12G13G 9G11
  21131966.287    21131972.536     7206377.457 9 -18756761.567 8
  20793445.993    20793451.059    30971306.506 9 -44450870.219 9
  21333953.147    21333960.428    65714008.074 9-105201275.665 7
  24396159.594    24396166.557    93638704.617 7 -83836793.226 8
 86  6 13  3  0  5.0800000  0  4G12G13G 9G11
  21130404.449    21130410.144     7198172.690 9 -18763154.897 7
  20794385.700    20794390.934    30976242.881 8 -44447023.697 7
  21337295.219    21337301.688    65731570.809 8-105187590.426 8
  24399267.040    24399274.767    93655035.828 7 -83824067.619 8
 86  6 13  3  0 11.0800000  0  4G12G13G 9G11
  21128847.288    21128853.761     7189990.882 9 -18769530.312 8
  20795327.399    20795331.566    30981190.263 9 -44443168.596 9
  21340639.990    21340648.831    65749153.007 8-105173890.018 8
  24402373.639    24402382.067    93671364.801 8 -83811343.751 8
 86  6 13  3  0 17.0800000  0  4G12G13G 9G11
  21127295.647    21127301.435     7181832.063 9 -18775887.830 8
  20796270.554    20796275.420    30986148.525 9 -44439305.012 8
  21343990.793    21343997.810    65766754.538 9-105160174.545 8
  24405481.850    24405488.137    93687691.411 8 -83798621.737 8
 86  6 13  3  0 23.0800000  0  4G12G13G 9G11
  21125746.749    21125753.027     7173696.106 9 -18782227.543 8
  20797215.928    20797221.794    30991117.687 8 -44435432.945 9
  21347344.887    21347351.144    65784375.419 9-105146443.997 8
  24408587.030    24408595.505    93704015.559 7 -83785901.638 7
 86  6 13  3  0 29.0800000  0  4G12G13G 9G11
  21124203.355    21124208.197     7165583.103 8 -18788549.360 9
  20798162.910    20798169.050    30996097.763 8 -44431552.373 8
  21350701.490    21350707.681    65802015.543 7-105132698.437 8
  24411692.913    24411699.522    93720337.283 7 -83773183.422 8
 86  6 13  3  0 35.0800000  0  4G12G13G 9G11
  21122662.918    21122668.530     7157493.010 9 -18794853.328 8
  20799112.992    20799119.477    31001088.728 9 -44427663.308 8
  21354061.889    21354068.105    65819674.986 8-105118937.848 8
  24414797.501    24414805.672    93736656.596 7 -83760467.097 8
 86  6 13  3  0 41.0800000  0  4G12G13G 9G11
  21121128.372    21121134.555     7149425.826 9 -18801139.444 9
  20800064.584    20800071.077    31006090.499 8 -44423765.818 9
  21357426.323    21357431.508    65837353.539 8-105105162.348 8
  24417903.451    24417910.593    93752973.394 6 -83747752.720 7
 86  6 13  3  0 47.0800000  0  4G12G13G 9G11
  21119596.797    21119604.062     7141381.629 8 -18807407.654 8
  20801019.612    20801025.040    31011103.058 9 -44419859.928 9
  21360793.864    21360800.634    65855051.320 8-105091371.872 8
  24421006.624    24421015.015    93769287.771 6 -83735040.230 7
 86  6 13  3  0 53.0800000  0  4G12G13G 9G11
  21118070.369    21118077.396     7133360.438 9 -18813657.932 9
  20801975.340    20801980.753    31016126.371 9 -44415945.661 9
  21364165.090    21364170.849    65872768.337 8-105077566.414 8
  24424111.870    24424119.000    93785599.697 7 -83722329.660 7
 86  6 13  3  0 59.0800000  0  4G12G13G 9G11
  21116548.358    21116555.347     7125362.210 8 -18819890.309 9
  20802932.717    20802938.454    31021160.465 8 -44412022.997 9
  21367539.744    21367546.190    65890504.518 9-105063746.009 8
  24427215.026    24427223.257    93801909.108 7 -83709621.028 8
 86  6 13  3  1  5.0800000  0  4G12G13G 9G11
  21115030.430    21115038.135     7117386.891 8 -18826104.839 8
  20803893.849    20803898.773    31026205.180 8 -44408092.041 8
  21370918.298    21370924.763    65908259.798 8-105049910.731 8
  24430319.328    24430326.587    93818215.962 7 -83696914.391 8
 86  6 13  3  1 11.0800000  0  4G12G13G 9G11
  21113518.107    21113524.298     7109434.617 9 -18832301.409 8
  20804854.694    20804861.454    31031260.628 9 -44404152.745 8
  21374301.407    21374306.880    65926034.150 8-105036060.592 8
  24433421.921    24433429.893    93834520.302 8 -83684209.726 7
 86  6 13  3  1 17.0800000  0  4G12G13G 9G11
  21112009.789    21112015.394     7101505.507 9 -18838479.947 8
  20805819.093    20805825.638    31036326.804 9 -44400205.060 8
  21377686.959    21377692.064    65943827.574 7-105022195.583 7
  24436523.508    24436531.367    93850822.181 9 -83671506.977 8
 86  6 13  3  1 23.0800000  0  4G12G13G 9G11
  21110505.230    21110510.772     7093599.503 9 -18844640.464 9
  20806785.438    20806791.103    31041403.815 9 -44396248.955 8
  21381077.294    21381083.077    65961640.116 8-105008315.692 7
  24439624.122    24439632.617    93867121.655 8 -83658806.096 8
 86  6 13  3  1 29.0800000  0  4G12G13G 9G11
  21109005.475    21109010.559     7085716.645 9 -18850782.953 8
  20807753.340    20807759.365    31046491.636 9 -44392284.413 9
  21384470.504    21384475.043    65979471.854 8-104994420.840 7
  24442727.250    24442734.866    93883418.720 7 -83646107.101 8
 86  6 13  3  1 35.0800000  0  4G12G13G 9G11
  21107509.419    21107516.147     7077857.024 9 -18856907.327 8
  20808724.642    20808729.429    31051590.256 9 -44388311.466 9
  21387867.594    21387871.935    65997322.763 8-104980511.033 8
  24445827.549    24445835.875    93899713.396 8 -83633409.945 8
 86  6 13  3  1 41.0800000  0  4G12G13G 9G11
  21106017.476    21106025.558     7070020.664 9 -18863013.580 9
  20809696.620    20809701.538    31056699.630 8 -44384330.139 9
  21391267.668    21391273.486    66015192.818 9-104966586.323 8
  24448926.617    24448934.775    93916005.633 7 -83620714.712 7
 86  6 13  3  1 47.0800000  0  4G12G13G 9G11
  21104530.971    21104537.774     7062207.633 8 -18869101.657 9
  20810670.709    20810675.141    31061819.818 8 -44380340.375 9
  21394671.536    21394676.808    66033082.024 9-104952646.688 8
  24452025.494    24452036.003    93932295.520 8 -83608021.313 8
 86  6 13  3  1 53.0800000  0  4G12G13G 9G11
  21103048.702    21103055.580     7054417.900 9 -18875171.583 9
  20811646.803    20811653.025    31066950.796 9 -44376342.211 9
  21398080.816    21398083.771    66050990.352 8-104938692.151 8
  24455126.067    24455135.711    93948583.126 8 -83595329.676 8
 86  6 13  3  1 59.0800000  0  4G12G13G 9G11
  21101570.439    21101576.829     7046651.489 8 -18881223.323 8
  20812625.248    20812631.127    31072092.603 9 -44372335.609 7
  21401491.284    21401497.080    66068917.829 9-104924722.690 8
  24458225.078    24458233.880    93964868.406 9 -83582639.859 8
 86  6 13  3  2  5.0800000  0  4G12G13G 9G11
  21100096.906    21100104.348     7038908.384 9 -18887256.908 8
  20813606.327    20813611.161    31077245.304 9 -44368320.514 8
  21404907.705    21404911.715    66086864.397 9-104910738.341 9
  24461323.684    24461332.840    93981151.356 8 -83569951.847 8
 86  6 13  3  2 11.0800000  0  4G12G13G 9G11
  21098628.825    21098634.736     7031188.685 9 -18893272.254 9
  20814588.738    20814594.036    31082408.788 9 -44364297.021 9
  21408326.070    21408330.093    66104830.157 9-104896739.048 8
  24464423.211    24464430.492    93997431.961 7 -83557265.667 9
 86  6 13  3  2 17.0800000  0  4G12G13G 9G11
  21097163.665    21097170.649     7023492.349 8 -18899269.395 8
  20815574.321    20815578.649    31087582.963 8 -44360265.203 9
  21411747.724    21411753.253    66122814.923 8-104882724.966 8
  24467519.990    24467528.150    94013710.164 8 -83544581.365 7
 86  6 13  3  2 23.0800000  0  4G12G13G 9G11
  21095703.671    21095711.131     7015819.425 9 -18905248.298 9
  20816560.756    20816565.699    31092767.870 9 -44356225.002 9
  21415173.943    21415178.820    66140818.707 9-104868696.035 8
  24470617.296    24470624.514    94029985.981 8 -83531898.908 8
 86  6 13  3  2 29.0800000  0  4G12G13G 9G11
  21094249.027    21094255.590     7008169.901 8 -18911208.964 8
  20817548.943    20817554.649    31097963.508 8 -44352176.472 8
  21418602.267    21418609.217    66158841.441 9-104854652.356 8
  24473714.030    24473720.766    94046259.375 8 -83519218.353 7
 86  6 13  3  2 35.0800000  0  4G12G13G 9G11
  21092798.371    21092804.258     7000543.751 8 -18917151.412 8
  20818539.134    20818544.939    31103169.798 9 -44348119.624 8
  21422035.289    21422042.216    66176883.126 8-104840593.912 8
  24476811.365    24476817.218    94062530.341 8 -83506539.682 7
 86  6 13  3  2 41.0800000  0  4G12G13G 9G11
  21091350.915    21091357.559     6992941.066 9 -18923075.588 8
  20819531.969    20819537.809    31108386.737 8 -44344054.470 8
  21425472.780    21425478.254    66194943.731 8-104826520.713 8
  24479907.000    24479914.557    94078798.860 9 -83493862.920 6
 86  6 13  3  2 47.0800000  0  4G12G13G 9G11
  21089908.391    21089914.021     6985361.710 9 -18928981.575 8
  20820526.623    20820533.238    31113614.221 9 -44339981.104 9
  21428914.309    21428919.296    66213023.205 7-104812432.826 7
  24483002.434    24483008.599    94095064.844 8 -83481188.123 8
 86  6 13  3  2 53.0800000  0  4G12G13G 9G11
  21088470.074    21088476.625     6977805.662 9 -18934869.407 9
  20821523.373    20821528.497    31118852.212 9 -44335899.558 9
  21432357.335    21432362.378    66231121.408 8-104798330.322 8
  24486096.797    24486104.769    94111328.276 8 -83468515.329 7
 86  6 13  3  2 59.0800000  0  4G12G13G 9G11
  21087036.513    21087042.881     6970272.879 9 -18940739.102 9
  20822522.170    20822527.726    31124100.656 9 -44331809.847 8
  21435804.889    21435810.116    66249238.325 8-104784213.258 7
  24489190.807    24489198.348    94127589.104 8 -83455844.550 8
 86  6 13  3  3  5.0800000  0  4G12G13G 9G11
  21085607.082    21085614.215     6962763.462 9 -18946590.596 8
  20823522.492    20823527.852    31129359.555 8 -44327712.007 9
  21439256.852    21439261.670    66267373.996 8-104770081.558 8
  24492284.933    24492292.717    94143847.325 9 -83443175.820 8
 86  6 13  3  3 11.0800000  0  4G12G13G 9G11
  21084182.692    21084189.953     6955277.379 9 -18952423.902 9
  20824526.149    20824531.124    31134628.937 9 -44323606.001 8
  21442711.507    21442716.333    66285528.342 7-104755935.324 7
  24495378.245    24495385.030    94160102.947 8 -83430509.118 8
 86  6 13  3  3 17.0800000  0  4G12G13G 9G11
  21082762.205    21082769.309     6947814.690 8 -18958238.984 8
  20825530.918    20825535.391    31139908.864 9 -44319491.757 9
  21446168.920    21446175.410    66303701.326 8-104741774.559 8
  24498471.312    24498478.403    94176355.919 8 -83417844.467 8
 86  6 13  3  3 23.0800000  0  4G12G13G 9G11
  21081346.826    21081353.785     6940375.390 9 -18964035.828 8
  20826539.505    20826542.276    31145199.287 9 -44315369.352 9
  21449630.241    21449636.170    66321892.990 8-104727599.247 9
  24501562.952    24501571.260    94192606.289 8 -83405181.855 9
 86  6 13  3  3 29.0800000  0  4G12G13G 9G11
  21079935.710    21079941.392     6932959.513 8 -18969814.434 8
  20827546.917    20827550.585    31150500.142 9 -44311238.808 9
  21453096.298    21453101.110    66340103.302 9-104713409.392 8
  24504655.663    24504663.478    94208854.094 8 -83392521.248 8
 86  6 13  3  3 35.0800000  0  4G12G13G 9G11
  21078529.624    21078534.818     6925567.045 9 -18975574.800 9
  20828557.382    20828561.881    31155811.336 9 -44307100.222 9
  21456565.712    21456569.721    66358332.229 8-104699205.031 8
  24507746.338    24507754.055    94225099.270 8 -83379862.678 7
 86  6 13  3  3 41.0800000  0  4G12G13G 9G11
  21077126.268    21077133.166     6918197.978 9 -18981316.940 9
  20829570.210    20829573.671    31161132.939 9 -44302953.510 8
  21460036.359    21460041.959    66376579.743 6-104684986.196 7
  24510836.200    24510843.935    94241341.776 7 -83367206.188 8
 86  6 13  3  3 47.0800000  0  4G12G13G 9G11
  21075729.034    21075734.807     6910852.367 9 -18987040.792 9
  20830583.712    20830589.129    31166464.911 9 -44298798.731 9
  21463512.760    21463518.859    66394845.674 7-104670753.010 8
  24513927.345    24513935.467    94257581.647 8 -83354551.763 8
 86  6 13  3  3 53.0800000  0  4G12G13G 9G11
  21074335.723    21074342.168     6903530.128 9 -18992746.426 9
  20831600.580    20831604.788    31171807.239 9 -44294635.881 8
  21466992.817    21466997.342    66413130.194 8-104656505.343 7
  24517017.293    24517024.500    94273818.858 8 -83341899.402 8
 86  6 13  3  3 59.0800000  0  4G12G13G 9G11
  21072946.915    21072953.528     6896231.493 9 -18998433.678 9
  20832618.107    20832623.717    31177159.972 9 -44290464.920 8
  21470474.642    21470481.027    66431433.270 8-104642243.219 7
  24520106.181    24520114.383    94290053.500 8 -83329249.045 9
 86  6 13  3  4  5.0800000  0  4G12G13G 9G11
  21071563.447    21071569.353     6888956.419 8 -19004102.558 8
  20833639.136    20833643.972    31182523.084 8 -44286285.867 8
  21473961.514    21473967.318    66449755.004 7-104627966.537 7
  24523195.675    24523203.825    94306285.572 8 -83316600.667 8
 86  6 13  3  4 11.0800000  0  4G12G13G 9G11
  21070183.145    21070189.937     6881704.977 9 -19009753.024 9
  20834661.591    20834667.907    31187896.632 8 -44282098.689 9
  21477452.415    21477457.557    66468095.322 7-104613675.380 8
  24526283.141    24526291.317    94322515.118 9 -83303954.284 9
 86  6 13  3  4 17.0800000  0  4G12G13G 9G11
  21068807.468    21068814.214     6874477.173 8 -19015385.078 9
  20835686.408    20835692.071    31193280.519 9 -44277903.449 9
  21480944.957    21480951.002    66486454.101 8-104599369.847 8
  24529372.090    24529380.602    94338742.115 8 -83291309.881 9
 86  6 13  3  4 23.0800000  0  4G12G13G 9G11
  21067435.637    21067442.067     6867273.008 8 -19020998.719 8
  20836712.716    20836718.714    31198674.789 8 -44273700.135 8
  21484441.982    21484448.679    66504831.449 8-104585049.850 8
  24532459.662    24532467.371    94354966.511 7 -83278667.494 8
 86  6 13  3  4 29.0800000  0  4G12G13G 9G11
  21066069.406    21066074.928     6860092.475 8 -19026593.932 9
  20837741.724    20837747.019    31204079.379 8 -44269488.768 9
  21487942.453    21487950.141    66523227.293 9-104570715.431 7
  24535546.821    24535553.461    94371188.371 8 -83266027.098 9
 86  6 13  3  4 35.0800000  0  4G12G13G 9G11
  21064707.628    21064713.983     6852935.616 9 -19032170.712 8
  20838771.533    20838777.707    31209494.296 9 -44265269.348 9
  21491445.847    21491453.148    66541641.611 8-104556366.616 8
  24538633.457    24538641.003    94387407.626 8 -83253388.723 9
 86  6 13  3  4 41.0800000  0  4G12G13G 9G11
  21063350.325    21063356.918     6845802.400 9 -19037729.050 8
  20839803.788    20839809.980    31214919.521 9 -44261041.903 8
  21494954.843    21494961.047    66560074.288 8-104542003.498 8
  24541719.783    24541726.866    94403624.279 9 -83240752.374 9
 86  6 13  3  4 47.0800000  0  4G12G13G 9G11
  21061998.259    21062004.127     6838692.936 8 -19043268.906 9
  20840838.186    20840844.480    31220355.049 9 -44256806.449 8
  21498466.110    21498472.858    66578525.383 8-104527626.021 8
  24544804.845    24544812.453    94419838.285 9 -83228118.095 8
 86  6 13  3  4 53.0800000  0  4G12G13G 9G11
  21060649.008    21060655.581     6831607.264 8 -19048790.201 8
  20841875.020    20841880.383    31225800.871 9 -44252562.949 9
  21501980.154    21501987.370    66596994.936 8-104513234.172 8
  24547889.865    24547897.063    94436049.725 9 -83215485.799 9
 86  6 13  3  4 59.0800000  0  4G12G13G 9G11
  21059304.696    21059311.652     6824545.407 7 -19054292.948 9
  20842913.729    20842918.796    31231257.007 8 -44248311.419 9
  21505498.555    21505505.145    66615482.884 8-104498827.977 7
  24550974.898    24550982.078    94452258.649 9 -83202855.510 9
 86  6 13  3  5  5.0800000  0  4G12G13G 9G11
  21057964.523    21057972.236     6817507.300 9 -19059777.186 8
  20843953.807    20843958.699    31236723.455 9 -44244051.844 9
  21509019.555    21509026.832    66633989.305 8-104484407.389 7
  24554058.006    24554066.303    94468465.004 9 -83190227.178 9
 86  6 13  3  5 11.0800000  0  4G12G13G 9G11
  21056630.558    21056637.312     6810492.851 9 -19065242.979 9
  20844995.762    20845001.267    31242200.185 9 -44239784.252 9
  21512545.428    21512551.473    66652513.999 8-104469972.564 8
  24557142.332    24557148.871    94484668.743 8 -83177600.913 9
 86  6 13  3  5 17.0800000  0  4G12G13G 9G11
  21055299.525    21055306.864     6803502.119 9 -19070690.305 8
  20846039.469    20846045.188    31247687.028 9 -44235508.799 9
  21516074.188    21516080.121    66671056.859 7-104455523.591 7
  24560224.659    24560231.466    94500869.713 9 -83164976.775 9
 86  6 13  3  5 23.0800000  0  4G12G13G 9G11
  21053974.886    21053981.212     6796535.064 9 -19076119.186 9
  20847084.103    20847091.798    31253183.895 9 -44231225.523 8
  21519605.696    21519612.287    66689617.885 8-104441060.471 8
  24563306.875    24563314.318    94517067.929 8 -83152354.806 8
 86  6 13  3  5 29.0800000  0  4G12G13G 9G11
  21052654.043    21052660.637     6789591.753 9 -19081529.549 9
  20848133.041    20848140.131    31258691.023 8 -44226934.247 9
  21523142.242    21523147.054    66708197.149 8-104426583.111 8
  24566388.004    24566396.174    94533263.414 8 -83139734.952 9
 86  6 13  3  5 35.0800000  0  4G12G13G 9G11
  21051337.378    21051344.316     6782672.269 9 -19086921.360 8
  20849182.661    20849189.583    31264208.206 8 -44222635.164 9
  21526681.149    21526687.487    66726794.619 8-104412091.592 8
  24569470.719    24569476.817    94549456.198 8 -83127117.208 9
 86  6 13  3  5 41.0800000  0  4G12G13G 9G11
  21050025.550    21050032.906     6775776.513 9 -19092294.678 8
  20850235.433    20850241.566    31269735.517 8 -44218328.166 8
  21530222.637    21530228.900    66745410.251 8-104397585.903 8
  24572550.712    24572558.860    94565646.286 8 -83114501.581 8
 86  6 13  3  5 47.0800000  0  4G12G13G 9G11
  21048717.351    21048724.036     6768904.600 9 -19097649.410 9
  20851290.180    20851295.579    31275272.915 9 -44214013.311 8
  21533770.287    21533775.945    66764044.047 8-104383066.066 8
  24575630.957    24575638.612    94581833.658 8 -83101888.051 8
 86  6 13  3  5 53.0800000  0  4G12G13G 9G11
  21047414.061    21047420.353     6762056.553 9 -19102985.559 8
  20852345.541    20852351.779    31280820.461 9 -44209690.542 8
  21537319.497    21537324.799    66782696.019 8-104368532.067 8
  24578710.802    24578717.366    94598018.344 9 -83089276.615 8
 86  6 13  3  5 59.0800000  0  4G12G13G 9G11
  21046115.913    21046122.548     6755232.335 8 -19108303.123 8
  20853403.304    20853408.443    31286378.219 9 -44205359.826 8
  21540872.487    21540878.002    66801366.113 8-104353983.945 8
  24581790.467    24581797.209    94614200.281 8 -83076667.333 8
 86  6 13  3  6  5.0800000  0  4G12G13G 9G11
  21044821.905    21044827.700     6748432.004 9 -19113602.080 9
  20854463.255    20854468.392    31291946.048 9 -44201021.263 8
  21544428.630    21544434.466    66820054.201 8-104339421.797 7
  24584868.980    24584875.987    94630379.429 8 -83064060.216 8
 86  6 13  3  6 11.0800000  0  4G12G13G 9G11
  21043531.974    21043538.423     6741655.473 9 -19118882.493 8
  20855524.596    20855529.187    31297523.792 9 -44196674.960 8
  21547986.802    21547992.420    66838760.284 7-104324845.633 8
  24587946.785    24587954.512    94646555.796 8 -83051455.268 8
 86  6 13  3  6 17.0800000  0  4G12G13G 9G11
  21042245.944    21042253.573     6734902.713 9 -19124144.377 8
  20856587.924    20856592.352    31303111.489 9 -44192320.919 9
  21551550.548    21551556.974    66857484.318 8-104310255.490 8
  24591025.661    24591032.523    94662729.298 8 -83038852.556 8
 86  6 13  3  6 23.0800000  0  4G12G13G 9G11
  21040966.927    21040973.367     6728173.709 8 -19129387.751 9
  20857652.545    20857656.910    31308709.185 9 -44187959.081 9
  21555117.268    21555122.679    66876226.312 8-104295651.341 7
  24594101.933    24594111.060    94678899.974 9 -83026252.026 7
 86  6 13  3  6 29.0800000  0  4G12G13G 9G11
  21039690.724    21039696.473     6721468.592 9 -19134612.524 9
  20858718.557    20858725.078    31314316.750 9 -44183589.530 9
  21558686.122    21558694.655    66894986.265 7-104281033.213 9
  24597177.992    24597186.103    94695067.905 8 -83013653.659 9
 86  6 13  3  6 35.0800000  0  4G12G13G 9G11
  21038419.204    21038425.311     6714787.252 9 -19139818.760 8
  20859787.809    20859793.670    31319934.333 8 -44179212.211 8
  21562259.938    21562267.266    66913764.014 9-104266401.197 8
  24600255.094    24600261.104    94711232.981 8 -83001057.502 8
 86  6 13  3  6 41.0800000  0  4G12G13G 9G11
  21037153.189    21037158.500     6708129.847 9 -19145006.344 9
  20860858.679    20860863.860    31325561.868 9 -44174827.116 8
  21565836.670    21565843.786    66932559.681 8-104251755.229 8
  24603330.119    24603336.736    94727395.269 8 -82988463.527 8
 86  6 13  3  6 47.0800000  0  4G12G13G 9G11
  21035890.942    21035896.266     6701496.470 9 -19150175.207 8
  20861931.919    20861937.276    31331199.399 9 -44170434.234 9
  21569417.245    21569423.434    66951373.375 8-104237095.225 8
  24606404.306    24606412.689    94743554.827 7 -82975871.678 8
 86  6 13  3  6 53.0800000  0  4G12G13G 9G11
  21034633.404    21034638.288     6694887.139 9 -19155325.344 8
  20863006.535    20863011.498    31336847.013 9 -44166033.497 9
  21573002.024    21573006.904    66970205.072 8-104222421.177 8
  24609477.826    24609488.068    94759711.698 7 -82963281.923 8
 86  6 13  3  6 59.0800000  0  4G12G13G 9G11
  21033378.930    21033385.519     6688301.922 8 -19160456.681 9
  20864082.700    20864089.540    31342504.619 8 -44161624.982 9
  21576588.434    21576594.102    66989054.690 9-104207733.158 8
  24612553.162    24612561.698    94775865.967 8 -82950694.195 9
 86  6 13  3  7  5.0800000  0  4G12G13G 9G11
  21032130.578    21032137.138     6681740.771 9 -19165569.265 8
  20865161.098    20865166.980    31348172.299 8 -44157208.606 8
  21580179.242    21580183.227    67007922.199 9-104193031.200 8
  24615628.363    24615635.233    94792017.539 8 -82938108.572 8
 86  6 13  3  7 11.0800000  0  4G12G13G 9G11
  21030886.074    21030893.316     6675203.706 9 -19170663.081 9
  20866242.775    20866248.562    31353850.024 9 -44152784.411 8
  21583772.792    21583776.952    67026807.742 8-104178315.210 8
  24618700.640    24618708.320    94808166.446 9 -82925525.016 9
 86  6 13  3  7 17.0800000  0  4G12G13G 9G11
  21029646.814    21029654.398     6668690.832 9 -19175738.048 9
  20867324.544    20867331.021    31359537.805 9 -44148352.365 9
  21587370.138    21587374.198    67045711.283 8-104163585.176 8
  24621773.478    24621780.860    94824312.715 8 -82912943.501 8
 86  6 13  3  7 23.0800000  0  4G12G13G 9G11
  21028411.878    21028419.982     6662202.130 9 -19180794.171 8
  20868408.770    20868414.251    31365235.647 9 -44143912.489 9
  21590971.214    21590976.415    67064632.705 9-104148841.209 8
  24624845.142    24624852.777    94840456.400 9 -82900364.032 8
 86  6 13  3  7 29.0800000  0  4G12G13G 9G11
  21027181.587    21027188.523     6655737.624 9 -19185831.447 9
  20869495.672    20869501.325    31370943.551 9 -44139464.787 9
  21594574.585    21594580.275    67083571.990 9-104134083.319 8
  24627916.545    24627925.296    94856597.459 8 -82887786.584 8
 86  6 13  3  7 35.0800000  0  4G12G13G 9G11
  21025955.815    21025962.961     6649297.394 9 -19190849.806 8
  20870584.144    20870589.225    31376661.537 9 -44135009.206 9
  21598182.578    21598186.077    67102529.231 9-104119311.460 8
  24630987.105    24630996.138    94872735.934 9 -82875211.157 9
 86  6 13  3  7 41.0800000  0  4G12G13G 9G11
  21024735.145    21024741.767     6642881.430 9 -19195849.242 9
  20871673.760    20871678.992    31382389.543 9 -44130545.837 9
  21601793.043    21601797.765    67121504.397 9-104104525.607 8
  24634057.122    24634066.437    94888871.808 8 -82862637.761 9
 86  6 13  3  7 47.0800000  0  4G12G13G 9G11
  21023519.380    21023525.142     6636489.793 8 -19200829.751 8
  20872764.431    20872770.672    31388127.525 9 -44126074.671 8
  21605407.287    21605411.530    67140497.447 8-104089725.834 8
  24637129.216    24637136.382    94905004.990 8 -82850066.449 8
 86  6 13  3  7 53.0800000  0  4G12G13G 9G11
  21022308.646    21022314.127     6630122.355 9 -19205791.384 8
  20873858.390    20873864.268    31393875.417 8 -44121595.808 8
  21609025.208    21609029.034    67159508.239 9-104074912.246 8
  24640199.351    24640206.267    94921135.417 9 -82837497.291 8
 86  6 13  3  7 59.0800000  0  4G12G13G 9G11
  21021100.497    21021107.519     6623779.020 9 -19210734.252 8
  20874954.835    20874959.978    31399633.054 8 -44117109.328 9
  21612645.618    21612650.433    67178536.747 9-104060084.834 8
  24643267.540    24643274.727    94937263.041 8 -82824930.320 9
 86  6 13  3  8  5.0800000  0  4G12G13G 9G11
  21019898.019    21019903.991     6617459.794 8 -19215658.317 8
  20876051.749    20876058.154    31405400.464 9 -44112615.238 9
  21616270.335    21616274.120    67197583.015 8-104045243.587 8
  24646335.881    24646344.211    94953387.873 9 -82812365.518 8
 86  6 13  3  8 11.0800000  0  4G12G13G 9G11
  21018699.610    21018706.733     6611164.709 8 -19220563.578 8
  20877151.902    20877156.257    31411177.589 9 -44108113.589 8
  21619897.815    21619902.932    67216646.713 9-104030388.762 8
  24649404.320    24649411.004    94969509.863 9 -82799802.946 9
 86  6 13  3  8 17.0800000  0  4G12G13G 9G11
  21017506.434    21017512.659     6604893.736 8 -19225450.047 9
  20878252.198    20878258.301    31416964.355 9 -44103604.412 8
  21623527.969    21623533.745    67235727.986 9-104015520.252 9
  24652471.155    24652478.803    94985628.933 8 -82787242.628 8
 86  6 13  3  8 23.0800000  0  4G12G13G 9G11
  21016318.023    21016323.775     6598646.882 8 -19230317.724 8
  20879355.248    20879360.713    31422760.898 9 -44099087.639 8
  21627163.107    21627169.195    67254826.695 9-104000638.145 8
  24655538.270    24655545.342    95001745.084 8 -82774684.612 8
 86  6 13  3  8 29.0800000  0  4G12G13G 9G11
  21015134.800    21015140.797     6592424.130 8 -19235166.629 9
  20880460.308    20880465.882    31428567.132 9 -44094563.294 9
  21630801.659    21630806.389    67273942.940 9-103985742.374 8
  24658604.124    24658611.952    95017858.398 8 -82762128.793 9
 86  6 13  3  8 35.0800000  0  4G12G13G 9G11
  21013955.370    21013961.720     6586225.586 8 -19239996.668 8
  20881566.340    20881572.745    31434383.056 9 -44090031.405 9
  21634442.547    21634448.476    67293076.700 9-103970832.952 8
  24661669.807    24661677.154    95033968.841 8 -82749575.202 8
 86  6 13  3  8 41.0800000  0  4G12G13G 9G11
  21012780.700    21012786.382     6580051.243 9 -19244807.838 8
  20882675.381    20882680.656    31440208.568 9 -44085492.052 9
  21638086.038    21638091.341    67312227.837 9-103955909.988 8
  24664734.640    24664742.245    95050076.365 9 -82737023.909 8
 86  6 13  3  8 47.0800000  0  4G12G13G 9G11
  21011610.008    21011615.729     6573901.106 9 -19249600.163 8
  20883784.876    20883792.220    31446043.729 8 -44080945.177 9
  21641732.978    21641738.985    67331396.388 9-103940973.469 8
  24667799.927    24667807.191    95066180.895 9 -82724474.928 8
 86  6 13  3  8 53.0800000  0  4G12G13G 9G11
  21010444.015    21010450.616     6567775.089 8 -19254373.675 9
  20884897.942    20884903.620    31451888.496 9 -44076390.817 9
  21645384.058    21645390.658    67350582.294 9-103926023.412 8
  24670863.312    24670870.769    95082282.521 8 -82711928.211 8
 86  6 13  3  8 59.0800000  0  4G12G13G 9G11
  21009282.342    21009288.253     6561673.224 8 -19259128.385 9
  20886011.507    20886017.094    31457742.792 9 -44071829.028 9
  21649038.664    21649043.449    67369785.516 8-103911059.887 8
  24673926.583    24673933.879    95098381.193 8 -82699383.812 7
 86  6 13  3  9  5.0800000  0  4G12G13G 9G11
  21008124.977    21008132.519     6555595.585 8 -19263864.200 8
  20887127.995    20887133.864    31463606.644 9 -44067259.789 8
  21652696.276    21652701.129    67389006.025 9-103896082.852 8
  24676990.112    24676997.186    95114476.894 8 -82686841.702 7
 86  6 13  3  9 11.0800000  0  4G12G13G 9G11
  21006973.730    21006979.751     6549542.155 9 -19268581.156 8
  20888246.035    20888251.073    31469480.054 9 -44062683.119 8
  21656356.468    21656361.601    67408243.848 8-103881092.348 8
  24680052.475    24680059.208    95130569.623 8 -82674301.938 8
 86  6 13  3  9 17.0800000  0  4G12G13G 9G11
  21005825.687    21005831.820     6543512.896 8 -19273279.285 8
  20889365.455    20889371.168    31475362.966 9 -44058099.025 9
  21660021.678    21660025.956    67427498.904 9-103866088.405 8
  24683114.548    24683122.119    95146659.342 8 -82661764.502 8
 86  6 13  3  9 23.0800000  0  4G12G13G 9G11
  21004683.703    21004690.272     6537507.878 8 -19277958.514 8
  20890487.244    20890491.750    31481255.348 9 -44053507.561 9
  21663688.459    21663693.283    67446771.197 9-103851071.040 7
  24686174.369    24686181.641    95162746.027 8 -82649229.421 8
 86  6 13  3  9 29.0800000  0  4G12G13G 9G11
  21003544.972    21003551.861     6531527.120 8 -19282618.852 8
  20891609.823    20891615.750    31487157.220 9 -44048908.692 9
  21667359.583    21667364.736    67466060.728 9-103836040.241 7
  24689234.961    24689242.163    95178829.741 8 -82636696.666 7
 86  6 13  3  9 35.0800000  0  4G12G13G 9G11
  21002411.904    21002417.734     6525570.628 8 -19287260.269 8
  20892734.754    20892740.884    31493068.612 9 -44044302.421 8
  21671032.777    21671038.824    67485367.467 8-103820996.033 9
  24692295.813    24692302.155    95194910.504 7 -82624166.196 7
 86  6 13  3  9 41.0800000  0  4G12G13G 9G11
  21001283.352    21001289.272     6519638.443 9 -19291882.753 8
  20893861.490    20893867.621    31498989.431 9 -44039688.793 9
  21674709.862    21674716.282    67504691.366 9-103805938.457 9
  24695355.547    24695362.466    95210988.341 7 -82611638.035 8
 86  6 13  3  9 47.0800000  0  4G12G13G 9G11
  21000159.665    21000164.619     6513730.624 9 -19296486.245 8
  20894990.701    20894995.066    31504919.739 9 -44035067.773 9
  21678390.858    21678396.805    67524032.492 7-103790867.462 8
  24698413.311    24698421.925    95227063.194 8 -82599112.166 9
 86  6 13  3  9 53.0800000  0  4G12G13G 9G11
  20999040.144    20999044.943     6507847.268 9 -19301070.680 9
  20896120.961    20896126.171    31510859.664 9 -44030439.259 9
  21682074.132    21682079.702    67543390.874 9-103775783.006 8
  24701471.712    24701480.167    95243135.168 8 -82586588.551 8
 86  6 13  3  9 59.0800000  0  4G12G13G 9G11
  20997925.210    20997929.503     6501988.436 9 -19305636.021 8
  20897252.767    20897258.866    31516809.214 8 -44025803.246 9
  21685762.255    21685766.925    67562766.518 9-103760685.106 8
  24704529.971    24704538.274    95259204.323 8 -82574067.151 8
 86  6 13  3 10  5.0800000  0  4G12G13G 9G11
  20996814.932    20996820.044     6496154.140 9 -19310182.214 8
  20898386.752    20898391.262    31522768.439 9 -44021159.689 9
  21689451.705    21689457.496    67582159.487 9-103745573.705 8
  24707587.568    24707596.218    95275270.736 8 -82561547.871 8
 86  6 13  3 10 11.0800000  0  4G12G13G 9G11
  20995708.288    20995714.717     6490344.365 9 -19314709.322 8
  20899521.969    20899527.334    31528737.259 9 -44016508.664 8
  21693144.808    21693150.695    67601569.637 8-103730448.921 8
  24710645.275    24710652.995    95291334.343 7 -82549030.780 8
 86  6 13  3 10 17.0800000  0  4G12G13G 9G11
  20994608.565    20994613.455     6484559.137 8 -19319217.285 8
  20900659.012    20900664.805    31534715.565 9 -44011850.246 9
  21696841.947    21696848.246    67620997.025 8-103715310.713 8
  24713701.918    24713709.404    95307395.125 8 -82536515.900 8
 86  6 13  3 10 23.0800000  0  4G12G13G 9G11
  20993512.161    20993518.791     6478798.439 8 -19323706.138 8
  20901799.077    20901804.207    31540703.400 9 -44007184.395 9
  21700542.689    21700548.259    67640441.654 8-103700159.050 9
  24716757.000    24716765.596    95323453.042 7 -82524003.237 8
 86  6 13  3 10 29.0800000  0  4G12G13G 9G11
  20992420.608    20992426.410     6473062.288 9 -19328175.869 8
  20902939.800    20902946.065    31546700.787 9 -44002511.118 9
  21704245.626    21704251.625    67659903.409 8-103684994.057 8
  24719811.510    24719819.750    95339508.087 8 -82511492.813 9
 86  6 13  3 10 35.0800000  0  4G12G13G 9G11
  20991333.778    20991339.589     6467350.699 9 -19332626.462 9
  20904082.463    20904089.286    31552707.581 9 -43997830.502 8
  21707952.515    21707957.817    67679382.210 9-103669815.781 8
  24722865.725    24722874.155    95355560.222 7 -82498984.663 8
 86  6 13  3 10 41.0800000  0  4G12G13G 9G11
  20990251.264    20990257.070     6461663.597 9 -19337057.970 8
  20905228.205    20905234.011    31558723.813 8 -43993142.533 9
  21711663.034    21711668.390    67698878.030 9-103654624.226 8
  24725920.722    24725928.469    95371609.398 7 -82486478.825 8
 86  6 13  3 10 47.0800000  0  4G12G13G 9G11
  20989173.390    20989179.529     6456000.894 9 -19341470.468 8
  20906375.454    20906381.273    31564749.448 9 -43988447.234 9
  21715376.653    21715380.997    67718390.774 8-103639419.496 7
  24728973.142    24728981.789    95387655.525 7 -82473975.327 8
 86  6 13  3 10 53.0800000  0  4G12G13G 9G11
  20988100.268    20988107.401     6450362.649 9 -19345863.905 9
  20907523.268    20907529.440    31570784.359 9 -43983744.707 9
  21719093.494    21719097.753    67737920.424 9-103624201.593 8
  24732026.290    24732034.344    95403698.653 7 -82461474.188 9
 86  6 13  3 10 59.0800000  0  4G12G13G 9G11
  20987032.197    20987037.711     6444748.819 9 -19350238.320 9
  20908674.558    20908680.388    31576828.463 9 -43979035.017 9
  21722812.823    21722817.711    67757466.890 9-103608970.575 8
  24735077.644    24735086.081    95419738.662 8 -82448975.475 8
 86  6 13  3 11  5.0800000  0  4G12G13G 9G11
  20985968.442    20985974.368     6439159.467 8 -19354593.659 9
  20909825.851    20909832.041    31582881.850 9 -43974318.089 8
  21726534.472    21726540.732    67777030.217 8-103593726.426 8
  24738129.790    24738138.492    95435775.522 9 -82436479.209 9
 86  6 13  3 11 11.0800000  0  4G12G13G 9G11
  20984909.505    20984915.821     6433594.587 8 -19358929.930 8
  20910978.943    20910985.323    31588944.426 9 -43969594.012 9
  21730260.971    21730266.214    67796610.337 7-103578469.196 8
  24741182.022    24741189.582    95451809.311 8 -82423985.337 8
 86  6 13  3 11 17.0800000  0  4G12G13G 9G11
  20983854.994    20983862.102     6428054.280 9 -19363247.055 8
  20912134.257    20912141.095    31595016.343 9 -43964862.655 8
  21733988.644    21733994.820    67816207.308 9-103563198.839 7
  24744233.969    24744239.660    95467840.059 8 -82411493.832 8
 86  6 13  3 11 23.0800000  0  4G12G13G 9G11
  20982806.487    20982812.294     6422538.507 8 -19367545.057 9
  20913291.137    20913297.566    31601097.508 8 -43960124.075 9
  21737721.107    21737727.654    67835821.047 8-103547915.402 9
  24747282.706    24747291.007    95483867.851 8 -82399004.658 8
 86  6 13  3 11 29.0800000  0  4G12G13G 9G11
  20981760.473    20981767.675     6417047.274 9 -19371823.945 7
  20914450.531    20914457.017    31607187.906 9 -43955378.322 8
  21741456.657    21741462.673    67855451.561 8-103532618.912 8
  24750333.213    24750340.272    95499892.615 8 -82386517.822 7
 86  6 13  3 11 35.0800000  0  4G12G13G 9G11
  20980722.335    20980726.567     6411580.588 9 -19376083.702 7
  20915611.006    20915617.394    31613287.639 9 -43950625.288 8
  21745195.758    21745202.264    67875098.884 8-103517309.317 8
  24753382.215    24753387.970    95515914.337 8 -82374033.366 8
 86  6 13  3 11 41.0800000  0  4G12G13G 9G11
  20979685.960    20979691.183     6406138.519 9 -19380324.276 8
  20916773.514    20916779.430    31619396.658 9 -43945865.020 8
  21748937.201    21748944.239    67894762.951 8-103501986.683 8
  24756430.650    24756436.938    95531932.964 7 -82361551.310 8
 86  6 13  3 11 47.0800000  0  4G12G13G 9G11
  20978654.219    20978661.398     6400721.081 8 -19384545.664 9
  20917937.281    20917944.474    31625514.875 9 -43941097.572 8
  21752683.073    21752689.293    67914443.657 8-103486651.063 9
  24759476.663    24759484.393    95547948.595 7 -82349071.604 8
 86  6 13  3 11 53.0800000  0  4G12G13G 9G11
  20977628.456    20977635.030     6395328.357 9 -19388747.780 8
  20919103.559    20919109.999    31631642.321 9 -43936322.938 8
  21756431.589    21756437.497    67934141.161 8-103471302.362 8
  24762524.825    24762532.257    95563961.232 7 -82336594.234 7
 86  6 13  3 11 59.0800000  0  4G12G13G 9G11
  20976605.657    20976612.284     6389960.301 9 -19392930.704 8
  20920271.664    20920277.882    31637779.047 9 -43931541.067 9
  21760183.063    21760189.333    67953855.561 8-103455940.505 8
  24765570.074    24765577.173    95579970.899 7 -82324119.161 7
 86  6 13  3 12  5.0800000  0  4G12G13G 9G11
  20975589.620    20975596.027     6384617.049 9 -19397094.254 8
  20921441.836    20921447.031    31643925.050 9 -43926751.982 9
  21763936.623    21763943.983    67973586.686 9-103440565.608 9
  24768615.945    24768624.663    95595977.657 7 -82311646.373 7
 86  6 13  3 12 11.0800000  0  4G12G13G 9G11
  20974577.289    20974583.519     6379298.590 9 -19401238.509 7
  20922613.003    20922619.027    31650080.286 9 -43921955.696 8
  21767694.799    21767702.318    67993334.501 8-103425177.702 7
  24771661.624    24771668.905    95611981.504 6 -82299175.851 8
 86  6 13  3 12 17.0800000  0  4G12G13G 9G11
  20973569.010    20973577.201     6374004.915 9 -19405363.461 8
  20923785.697    20923791.715    31656244.721 9 -43917152.251 8
  21771456.153    21771462.830    68013099.122 8-103409776.705 8
  24774706.207    24774716.301    95627982.427 7 -82286707.601 8
 86  6 13  3 12 23.0800000  0  4G12G13G 9G11
  20972567.076    20972574.642     6368735.991 8 -19409469.116 9
  20924961.381    20924966.850    31662418.414 9 -43912341.583 9
  21775220.932    21775224.834    68032880.467 8-103394362.677 8
  24777748.828    24777758.949    95643980.356 8 -82274241.683 7
 86  6 13  3 12 29.0800000  0  4G12G13G 9G11
  20971569.668    20971576.957     6363491.846 9 -19413555.454 9
  20926137.381    20926142.681    31668601.341 9 -43907523.716 8
  21778987.928    21778993.353    68052678.448 8-103378935.671 8
  24780794.012    24780803.086    95659975.352 8 -82261778.037 8
 86  6 13  3 12 35.0800000  0  3G12G13G 9
  20970577.292    20970583.804     6358272.489 9 -19417622.494 8
  20927316.600    20927321.478    31674793.497 9 -43902698.664 9
  21782759.599    21782765.316    68072493.079 8-103363495.716 8
 86  6 13  3 12 41.0800000  0  3G12G13G 9
  20969588.694    20969595.060     6353077.794 9 -19421670.304 8
  20928495.650    20928501.159    31680994.799 9 -43897866.476 8
  21786533.062    21786539.281    68092324.201 9-103348042.886 8
 86  6 13  3 12 47.0800000  0  3G12G13G 9
  20968604.790    20968610.949     6347907.826 8 -19425698.846 9
  20929676.690    20929682.549    31687205.201 9 -43893027.206 8
  21790310.876    21790316.501    68112171.854 8-103332577.201 8
 86  6 13  3 12 53.0800000  0  3G12G13G 9
  20967624.472    20967631.809     6342762.620 8 -19429708.106 9
  20930860.884    20930866.354    31693424.659 9 -43888180.874 9
  21794090.285    21794095.700    68132035.941 8-103317098.693 7
 86  6 13  3 12 59.0800000  0  3G12G13G 9
  20966650.384    20966656.896     6337642.237 9 -19433697.999 9
  20932046.046    20932052.320    31699653.204 9 -43883327.470 8
  21797873.232    21797879.051    68151916.495 9-103301607.354 8
 86  6 13  3 13  5.0800000  0  3G12G13G 9
  20965680.135    20965686.904     6332546.697 9 -19437668.569 8
  20933233.653    20933238.188    31705890.757 9 -43878467.048 9
  21801659.075    21801664.950    68171813.381 8-103286103.294 8
 86  6 13  3 13 11.0800000  0  3G12G13G 9
  20964715.634    20964722.177     6327475.885 9 -19441619.849 8
  20934422.006    20934427.532    31712137.271 9 -43873599.623 9
  21805449.179    21805453.740    68191726.673 7-103270586.445 8
 86  6 13  3 13 17.0800000  0  3G12G13G 9
  20963754.919    20963761.699     6322429.832 9 -19445551.843 9
  20935613.721    20935617.989    31718392.748 9 -43868725.229 8
  21809241.401    21809246.994    68211656.414 8-103255056.776 9
 86  6 13  3 13 23.0800000  0  3G12G13G 9
  20962799.219    20962806.016     6317408.612 9 -19449464.479 8
  20936805.224    20936809.767    31724657.300 9 -43863843.760 8
  21813037.216    21813043.217    68231602.555 9-103239514.333 7
 86  6 13  3 13 29.0800000  0  3G12G13G 9
  20961850.572    20961855.265     6312412.325 9 -19453357.692 8
  20938000.220    20938003.344    31730930.919 9 -43858955.224 8
  21816835.333    21816841.563    68251565.073 8-103223959.133 9
 86  6 13  3 13 35.0800000  0  3G12G13G 9
  20960903.361    20960909.724     6307440.945 9 -19457231.484 8
  20939194.688    20939198.573    31737213.553 9 -43854059.663 8
  21820637.207    21820643.285    68271543.876 8-103208391.248 8
 86  6 13  3 13 41.0800000  0  3G12G13G 9
  20959962.255    20959967.874     6302494.402 9 -19461085.936 8
  20940391.852    20940395.084    31743505.158 9 -43849157.119 8
  21824440.999    21824448.560    68291538.967 8-103192810.669 7
 86  6 13  3 13 47.0800000  0  3G12G13G 9
  20959025.513    20959032.684     6297572.636 8 -19464921.088 9
  20941590.241    20941595.076    31749805.680 8 -43844247.619 9
  21828249.217    21828256.402    68311550.291 8-103177217.444 9
 86  6 13  3 13 53.0800000  0  3G12G13G 9
  20958093.603    20958099.619     6292675.650 9 -19468736.918 8
  20942791.080    20942795.846    31756115.178 9 -43839331.126 9
  21832060.525    21832066.995    68331577.836 9-103161611.568 8
 86  6 13  3 13 59.0800000  0  3G12G13G 9
  20957166.174    20957173.043     6287803.616 9 -19472533.308 8
  20943992.799    20943998.698    31762433.586 9 -43834407.697 9
  21835875.930    21835880.861    68351621.549 8-103145993.088 8
 86  6 13  3 14  5.0800000  0  3G12G13G 9
  20956244.699    20956250.540     6282956.583 9 -19476310.231 9
  20945197.451    20945201.799    31768760.865 9 -43829477.362 8
  21839694.260    21839697.979    68371681.411 7-103130362.033 8
 86  6 13  3 14 11.0800000  0  3G12G13G 9
  20955326.693    20955334.350     6278134.378 9 -19480067.797 9
  20946402.645    20946408.543    31775097.029 9 -43824540.094 8
  21843514.788    21843518.980    68391757.458 8-103114718.347 8
 86  6 13  3 14 17.0800000  0  3G12G13G 9
  20954412.942    20954420.336     6273337.018 9 -19483805.982 9
  20947609.523    20947615.442    31781441.918 9 -43819596.024 9
  21847336.784    21847342.114    68411849.576 9-103099062.156 7
 86  6 13  3 14 23.0800000  0  3G12G13G 9
  20953505.834    20953512.970     6268564.567 9 -19487524.768 8
  20948819.377    20948825.792    31787795.637 9 -43814645.076 8
  21851162.894    21851168.677    68431957.783 9-103083393.442 8
 86  6 13  3 14 29.0800000  0  3G12G13G 9
  20952601.704    20952608.478     6263817.034 9 -19491224.160 8
  20950030.524    20950036.626    31794158.199 9 -43809687.231 8
  21854992.633    21854998.573    68452082.096 8-103067712.168 8
 86  6 13  3 14 35.0800000  0  3G12G13G 9
  20951703.135    20951708.641     6259094.464 9 -19494904.084 8
  20951242.358    20951249.077    31800529.632 9 -43804722.479 9
  21858826.966    21858831.396    68472222.395 8-103052018.427 9
 86  6 13  3 14 41.0800000  0  3G12G13G 9
  20950810.402    20950815.776     6254396.924 8 -19498564.496 7
  20952456.171    20952462.497    31806909.980 8 -43799750.782 8
  21862662.559    21862666.624    68492378.807 8-103036312.130 8
 86  6 13  3 14 47.0800000  0  3G12G13G 9
  20949922.032    20949925.878     6249724.406 9 -19502205.421 8
  20953671.862    20953678.976    31813299.217 9 -43794772.159 8
  21866500.586    21866505.783    68512551.349 9-103020593.271 7
 86  6 13  3 14 53.0800000  0  3G12G13G 9
  20949037.089    20949041.130     6245076.974 9 -19505826.802 8
  20954887.705    20954896.230    31819697.355 9 -43789786.607 9
  21870342.056    21870346.480    68532739.923 9-103004861.921 8
 86  6 13  3 14 59.0800000  0  3G12G13G 9
  20948157.800    20948162.681     6240454.598 9 -19509428.655 8
  20956107.980    20956116.091    31826104.319 9 -43784794.169 9
  21874186.390    21874192.015    68552944.575 9-102989118.047 8
 86  6 13  3 15  5.0800000  0  3G12G13G 9
  20947281.858    20947287.549     6235857.219 9 -19513011.031 8
  20957328.771    20957335.692    31832520.007 9 -43779794.948 8
  21878034.390    21878039.475    68573165.158 8-102973361.756 8
 86  6 13  3 15 11.0800000  0  3G12G13G 9
  20946412.574    20946417.064     6231284.895 9 -19516573.896 8
  20958552.345    20958557.750    31838944.353 9 -43774788.965 8
  21881884.348    21881890.873    68593401.571 8-102957593.128 7
 86  6 13  3 15 17.0800000  0  3G12G13G 9
  20945546.387    20945551.568     6226737.465 9 -19520117.343 8
  20959776.444    20959782.486    31845377.402 9 -43769776.189 8
  21885738.701    21885743.890    68613653.862 9-102941812.134 8
 86  6 13  3 15 23.0800000  0  3G12G13G 9
  20944685.714    20944693.027     6222215.040 8 -19523641.314 9
  20961002.634    20961008.035    31851819.143 9 -43764756.641 8
  21889597.262    21889601.701    68633921.966 9-102926018.807 7
 86  6 13  3 15 29.0800000  0  3G12G13G 9
  20943830.687    20943835.657     6217717.690 9 -19527145.749 8
  20962231.221    20962235.995    31858269.535 9 -43759730.377 8
  21893456.463    21893461.036    68654205.873 9-102910213.170 7
 86  6 13  3 15 35.0800000  0  3G12G13G 9
  20942978.799    20942985.397     6213245.402 8 -19530630.643 7
  20963459.825    20963463.947    31864728.600 9 -43754697.333 9
  21897319.388    21897324.688    68674505.689 9-102894395.134 7
 86  6 13  3 15 41.0800000  0  3G12G13G 9
  20942133.002    20942139.361     6208798.295 9 -19534095.928 9
  20964691.325    20964695.063    31871196.409 9 -43749657.480 7
  21901185.506    21901190.224    68694821.315 9-102878564.783 8
 86  6 13  3 15 47.0800000  0  3G12G13G 9
  20941290.734    20941297.475     6204376.355 8 -19537541.592 9
  20965922.842    20965929.320    31877672.956 9 -43744610.823 8
  21905054.349    21905059.807    68715152.774 8-102862722.083 8
 86  6 13  3 15 53.0800000  0  3G12G13G 9
  20940454.382    20940461.579     6199979.554 9 -19540967.670 8
  20967156.639    20967161.601    31884158.260 9 -43739557.345 8
  21908925.873    21908930.729    68735500.035 9-102846867.090 6
 86  6 13  3 15 59.0800000  0  3G12G13G 9
  20939622.727    20939629.138     6195607.842 9 -19544374.190 8
  20968392.398    20968397.749    31890652.189 9 -43734497.143 8
  21912800.459    21912806.453    68755863.055 8-102830999.794 8
 86  6 13  3 16  5.0800000  0  3G12G13G 9
  20938796.553    20938801.380     6191261.334 9 -19547761.089 8
  20969629.920    20969634.649    31897154.761 9 -43729430.205 8
  21916678.347    21916683.874    68776241.857 8-102815120.214 8
 86  6 13  3 16 11.0800000  0  3G12G13G 9
  20937974.041    20937978.870     6186940.000 9 -19551128.376 8
  20970869.279    20970873.489    31903665.986 9 -43724356.516 9
  21920560.141    21920565.331    68796636.395 9-102799228.366 8
 86  6 13  3 16 17.0800000  0  3G12G13G 9
  20937157.030    20937161.139     6182643.933 9 -19554475.958 8
  20972110.280    20972113.586    31910185.944 9 -43719276.027 8
  21924444.129    21924448.843    68817046.697 8-102783324.243 8
 86  6 13  3 16 23.0800000  0  3G12G13G 9
  20936343.548    20936348.251     6178373.079 9 -19557803.904 9
  20973353.257    20973356.077    31916714.524 9 -43714188.819 8
  21928330.933    21928336.248    68837472.635 8-102767407.927 8
 86  6 13  3 16 29.0800000  0  3G12G13G 9
  20935535.918    20935540.049     6174127.398 9 -19561112.216 8
  20974596.903    20974600.323    31923251.645 9 -43709094.950 8
  21932220.534    21932226.146    68857914.169 9-102751479.481 9
 86  6 13  3 16 35.0800000  0  3G12G13G 9
  20934732.500    20934737.895     6169906.901 9 -19564400.924 7
  20975842.089    20975845.322    31929797.289 9 -43703994.453 8
  21936114.315    21936118.816    68878371.261 9-102735538.887 8
 86  6 13  3 16 41.0800000  0  3G12G13G 9
  20933934.400    20933939.471     6165711.523 9 -19567670.038 8
  20977088.277    20977093.047    31936351.425 9 -43698887.329 8
  21940009.678    21940014.179    68898843.862 9-102719586.225 8
 86  6 13  3 16 47.0800000  0  3G12G13G 9
  20933140.875    20933147.505     6161541.227 8 -19570919.633 9
  20978335.976    20978341.675    31942913.982 9 -43693773.643 8
  21943908.267    21943912.410    68919331.903 8-102703621.523 8
 86  6 13  3 16 53.0800000  0  3G12G13G 9
  20932351.426    20932359.089     6157396.048 9 -19574149.648 8
  20979586.811    20979593.716    31949484.969 9 -43688653.405 9
  21947810.566    21947815.899    68939835.270 9-102687644.876 8
 86  6 13  3 16 59.0800000  0  3G12G13G 9
  20931567.852    20931573.200     6153276.131 9 -19577359.969 8
  20980838.973    20980844.938    31956064.487 9 -43683526.509 8
  21951713.727    21951719.325    68960354.208 9-102671656.107 8
 86  6 13  3 17  5.0800000  0  3G12G13G 9
  20930788.159    20930794.236     6149181.448 8 -19580550.642 8
  20982093.202    20982099.771    31962652.578 9 -43678392.928 9
  21955621.106    21955626.825    68980888.554 8-102655655.311 8
 86  6 13  3 17 11.0800000  0  3G12G13G 9
  20930013.955    20930019.775     6145111.990 9 -19583721.630 8
  20983348.971    20983354.521    31969249.141 9 -43673252.752 9
  21959532.735    21959537.641    69001438.355 8-102639642.491 8
 86  6 13  3 17 17.0800000  0  3G12G13G 9
  20929244.158    20929250.495     6141067.752 9 -19586872.991 9
  20984606.240    20984611.516    31975854.210 9 -43668105.954 8
  21963446.744    21963451.432    69022003.544 8-102623617.654 8
 86  6 13  3 17 23.0800000  0  3G12G13G 9
  20928479.681    20928485.668     6137048.805 9 -19590004.641 8
  20985864.493    20985869.356    31982467.717 8 -43662952.560 8
  21967361.983    21967368.197    69042584.148 8-102607580.842 8
 86  6 13  3 17 29.0800000  0  3G12G13G 9
  20927719.572    20927724.953     6133055.210 9 -19593116.533 9
  20987123.250    20987129.549    31989089.693 9 -43657792.583 8
  21971281.585    21971286.863    69063180.177 9-102591531.989 8
 86  6 13  3 17 35.0800000  0  3G12G13G 9
  20926965.106    20926970.078     6129086.907 8 -19596208.719 8
  20988386.012    20988391.208    31995720.145 9 -43652626.003 8
  21975202.743    21975208.062    69083791.556 9-102575471.169 8
 86  6 13  3 17 41.0800000  0  3G12G13G 9
  20926213.944    20926218.672     6125143.963 9 -19599281.153 8
  20989648.822    20989653.549    32002359.007 9 -43647452.862 8
  21979127.728    21979133.645    69104418.267 8-102559398.417 7
 86  6 13  3 17 47.0800000  0  3G12G13G 9
  20925468.641    20925474.129     6121226.356 9 -19602333.840 8
  20990913.187    20990919.065    32009006.238 9 -43642273.210 8
  21983056.818    21983062.575    69125060.262 8-102543313.737 8
 86  6 13  3 17 53.0800000  0  3G12G13G 9
  20924728.003    20924733.866     6117334.003 8 -19605366.824 8
  20992180.712    20992185.647    32015661.784 9 -43637087.068 8
  21986988.625    21986992.767    69145717.446 9-102527217.237 8
 86  6 13  3 17 59.0800000  0  3G12G13G 9
  20923991.494    20923997.315     6113466.928 9 -19608380.132 8
  20993448.954    20993454.899    32022325.568 9 -43631894.504 9
  21990922.434    21990927.451    69166389.760 9-102511108.938 7
 86  6 13  3 18  5.0800000  0  3G12G13G 9
  20923261.130    20923267.451     6109625.125 9 -19611373.746 8
  20994718.190    20994724.097    32028997.572 8 -43626695.542 9
  21994858.463    21994863.739    69187077.244 8-102494988.834 7
 86  6 13  3 18 11.0800000  0  3G12G13G 9
  20922534.805    20922540.115     6105808.574 9 -19614347.682 8
  20995989.940    20995996.768    32035677.832 9 -43621490.136 8
  21998797.130    21998803.001    69207779.891 8-102478856.898 8
 86  6 13  3 18 17.0800000  0  3G12G13G 9
  20921813.594    20921818.082     6102017.288 9 -19617301.949 8
  20997262.347    20997269.107    32042366.341 9 -43616278.308 9
  22002740.396    22002746.268    69228497.634 8-102462713.206 9
 86  6 13  3 18 23.0800000  0  3G12G13G 9
  20921096.112    20921102.785     6098251.327 9 -19620236.445 7
  20998537.108    20998543.510    32049063.197 9 -43611059.986 9
  22006685.715    22006690.915    69249230.389 7-102446557.831 8
 86  6 13  3 18 29.0800000  0  3G12G13G 9
  20920385.421    20920390.637     6094510.765 9 -19623151.176 8
  20999813.538    20999818.839    32055768.386 9 -43605835.155 8
  22010633.522    22010639.276    69269978.249 9-102430390.669 8
 86  6 13  3 18 35.0800000  0  3G12G13G 9
  20919678.161    20919683.867     6090795.585 9 -19626046.128 8
  21001089.609    21001096.790    32062481.884 8 -43600603.871 9
  22014585.828    22014590.557    69290741.266 9-102414211.711 8
 86  6 13  3 18 41.0800000  0  3G12G13G 9
  20918975.795    20918981.620     6087105.796 9 -19628921.286 9
  21002368.742    21002375.821    32069203.638 9 -43595366.135 9
  22018539.198    22018544.789    69311519.382 8-102398020.962 8
 86  6 13  3 18 47.0800000  0  3G12G13G 9
  20918278.079    20918284.067     6083441.474 9 -19631776.611 9
  21003648.974    21003655.411    32075933.708 9 -43590121.934 8
  22022495.308    22022501.162    69332312.616 8-102381818.454 8
 86  6 13  3 18 53.0800000  0  3G12G13G 9
  20917585.687    20917591.310     6079802.559 8 -19634612.123 8
  21004931.987    21004938.306    32082672.062 9 -43584871.277 8
  22026455.676    22026461.201    69353120.941 8-102365604.169 8
 86  6 13  3 18 59.0800000  0  3G12G13G 9
  20916898.802    20916904.870     6076189.192 9 -19637427.732 9
  21006216.781    21006221.939    32089418.774 9 -43579614.090 8
  22030418.434    22030423.423    69373944.293 9-102349378.203 8
 86  6 13  3 19  5.0800000  0  3G12G13G 9
  20916216.017    20916222.237     6072601.296 9 -19640223.504 8
  21007502.153    21007506.910    32096173.750 9 -43574350.465 8
  22034382.721    22034389.126    69394782.633 8-102333140.545 9
 86  6 13  3 19 11.0800000  0  3G12G13G 9
  20915538.700    20915543.275     6069038.920 9 -19642999.383 9
  21008790.146    21008794.821    32102936.926 9 -43569080.456 8
  22038351.557    22038356.808    69415636.009 9-102316891.153 8
 86  6 13  3 19 17.0800000  0  3G12G13G 9
  20914864.121    20914870.744     6065502.042 9 -19645755.381 8
  21010078.609    21010083.421    32109708.285 9 -43563804.075 8
  22042322.174    22042328.607    69436504.285 9-102300630.174 8
 86  6 13  3 19 23.0800000  0  3G12G13G 9
  20914196.145    20914201.466     6061990.632 9 -19648491.548 8
  21011368.531    21011373.314    32116487.800 9 -43558521.337 8
  22046296.329    22046302.811    69457387.398 8-102284357.618 8
 86  6 13  3 19 29.0800000  0  3G12G13G 9
  20913533.000    20913538.377     6058504.716 8 -19651207.848 9
  21012659.907    21012664.879    32123275.486 9 -43553232.228 8
  22050273.664    22050279.082    69478285.375 8-102268073.486 8
 86  6 13  3 19 35.0800000  0  3G12G13G 9
  20912874.592    20912879.163     6055044.156 9 -19653904.395 8
  21013952.330    21013958.584    32130071.302 9 -43547936.777 8
  22054252.566    22054258.232    69499198.197 8-102251777.780 8
 86  6 13  3 19 41.0800000  0  3G12G13G 9
  20912220.767    20912227.273     6051609.008 9 -19656581.132 8
  21015246.807    21015252.908    32136875.257 9 -43542634.995 8
  22058235.844    22058240.940    69520125.765 8-102235470.590 8
 86  6 13  3 19 47.0800000  0  3G12G13G 9
  20911571.425    20911578.580     6048199.347 9 -19659238.019 8
  21016542.489    21016550.127    32143687.212 9 -43537326.978 9
  22062219.507    22062225.247    69541068.039 9-102219151.937 8
 86  6 13  3 19 53.0800000  0  3G12G13G 9
  20910927.890    20910935.068     6044815.138 9 -19661875.063 8
  21017841.074    21017846.225    32150507.299 8 -43532012.621 9
  22066208.036    22066213.623    69562025.010 9-102202821.830 8
 86  6 13  3 19 59.0800000  0  3G12G13G 9
  20910289.383    20910295.763     6041456.488 8 -19664492.203 9
  21019139.699    21019145.861    32157335.458 9 -43526691.974 8
  22070198.482    22070203.852    69582996.754 9-102186480.214 8
 86  6 13  3 20  5.0800000  0  3G12G13G 9
  20909657.454    20909660.968     6038123.289 1 -19667089.500 3
  21020440.698    21020446.902    32164171.617 9 -43521365.097 8
  22074192.578    22074198.608    69603983.163 9-102170127.180 8
 86  6 13  3 20 11.0800000  0  3G12G13G 9
  20909026.885    20909032.776     6034815.572 1 -19669666.927 1
  21021743.255    21021748.418    32171015.719 9 -43516032.022 8
  22078188.563    22078195.513    69624984.149 8-102153762.785 8
 86  6 13  3 20 17.0800000  0  3G12G13G 9
  20908401.124    20908407.870     6031533.428 1 -19672224.459 1
  21023047.006    21023052.041    32177867.805 6 -43510692.740 8
  22082186.762    22082194.780    69645999.843 9-102137386.942 9
 86  6 13  3 20 23.0800000  0  3G12G13G 9
  20907781.728    20907787.738     6028276.914 9 -19674762.000 8
  21024353.611    21024357.955    32184727.981 9 -43505347.146 8
  22086189.965    22086195.505    69667030.198 8-102120999.657 8
 86  6 13  3 20 29.0800000  0  3G12G13G 9
  20907166.126    20907172.328     6025046.005 7 -19677279.604 7
  21025660.777    21025665.213    32191596.222 9 -43499995.255 9
  22090194.650    22090200.327    69688075.177 8-102104600.972 8
 86  6 13  3 20 35.0800000  0  4G12G13G 9G 7
  20906556.803    20906562.281     6021840.644 8 -19679777.278 7
  21026969.976    21026973.421    32198472.453 9 -43494637.148 9
  22094202.688    22094208.448    69709134.819 8-102088190.861 9
                  25745427.191    -9594307.112 9
 86  6 13  3 20 41.0800000  0  4G12G13G 9G 7
  20905950.713    20905957.584     6018660.845 8 -19682255.033 7
  21028280.158    21028283.795    32205356.622 8 -43489272.859 8
  22098213.470    22098217.419    69730208.948 8-102071769.463 8
                  25741715.510    -9613813.713 9
 86  6 13  3 20 47.0800000  0  4G12G13G 9G 7
  20905350.861    20905357.214     6015506.612 7 -19684712.883 8
  21029590.469    21029596.188    32212248.808 9 -43483902.322 8
  22102225.352    22102232.359    69751297.542 8-102055336.793 8
                  26037802.117    -9633314.741 7
 86  6 13  3 20 53.0800000  0  4G12G13G 9G 7
  20904755.407    20904761.461     6012377.934 8 -19687150.822 7
  21030903.319    21030909.277    32219148.937 9 -43478525.595 9
  22106240.841    22106246.827    69772400.608 9-102038892.856 8
  26034091.417    26034113.367    -9652807.474 8  12391661.981 8
 86  6 13  3 20 59.0800000  0  4G12G13G 9G 7
  20904165.782    20904171.268     6009274.798 7 -19689568.860 7
  21032217.488    21032223.487    32226056.864 9 -43473142.801 9
  22110259.682    22110265.705    69793518.081 9-102022437.695 9
  26030383.149    26030391.942    -9672285.756 8  12376483.981 9
 86  6 13  3 21  5.0800000  0  4G12G13G 9G 7
  20903579.603    20903585.441     6006197.230 8 -19691966.964 7
  21033533.829    21033539.949    32232972.568 9 -43467753.940 9
  22114280.704    22114286.649    69814650.000 8-102005971.257 8
  26026682.203    26026690.474    -9691742.844 7  12361322.621 9
 86  6 13  3 21 11.0800000  0  4G12G13G 9G 7
  20902998.868    20903004.100     6003145.316 9 -19694345.068 8
  21034850.325    21034856.317    32239896.274 9 -43462358.837 8
  22118304.249    22118310.709    69835796.349 8-101989493.593 8
  26022984.130    26022992.224    -9711176.331 6  12346179.663 9
 86  6 13  3 21 17.0800000  0  4G12G13G 9G 7
  20902423.444    20902428.879     6000119.002 9 -19696703.232 8
  21036170.332    21036175.866    32246827.892 9 -43456957.582 8
  22122330.712    22122337.544    69856957.090 9-101973004.727 7
  26019290.347    26019297.603    -9730589.325 8  12331052.653 9
 86  6 13  3 21 23.0800000  0  4G12G13G 9G 7
  20901851.117    20901858.418     5997118.264 9 -19699041.474 8
  21037490.270    21037495.881    32253767.411 9 -43451550.177 9
  22126361.310    22126367.528    69878132.228 8-101956504.621 8
  26015599.564    26015605.822    -9749986.400 9  12315938.077 8
 86  6 13  3 21 29.0800000  0  4G12G13G 9G 7
  20901286.338    20901292.653     5994143.210 9 -19701359.695 8
  21038811.453    21038817.755    32260714.809 9 -43446136.608 8
  22130392.397    22130400.377    69899321.702 9-101939993.341 8
  26011910.579    26011917.474    -9769371.682 9  12300832.658 8
 86  6 13  3 21 35.0800000  0  4G12G13G 9G 7
  20900724.142    20900730.153     5991193.777 9 -19703657.960 8
  21040136.268    21040141.469    32267670.089 9 -43440716.916 9
  22134427.548    22134435.139    69920525.391 8-101923471.000 7
  26008222.937    26008230.291    -9788748.173 8  12285734.117 8
 86  6 13  3 21 41.0800000  0  4G12G13G 9G 7
  20900167.543    20900174.287     5988269.943 9 -19705936.267 8
  21041460.578    21041467.336    32274633.230 9 -43435291.094 8
  22138465.760    22138472.653    69941743.384 8-101906937.498 7
  26004538.453    26004543.594    -9808117.769 7  12270640.919 9
 86  6 13  3 21 47.0800000  0  4G12G13G 9G 7
  20899616.009    20899622.284     5985371.758 9 -19708194.592 8
  21042788.013    21042792.939    32281604.132 9 -43429859.212 7
  22142504.745    22142512.768    69962975.727 8-101890392.810 8
  26000852.645    26000858.806    -9827481.238 8  12255552.513 9
 86  6 13  3 21 53.0800000  0  4G12G13G 9G 7
  20899069.038    20899074.691     5982499.236 9 -19710432.920 8
  21044116.478    21044122.045    32288582.783 9 -43424421.293 8
  22146548.842    22146555.628    69984222.240 9-101873837.089 8
  25997170.077    25997176.087    -9846835.942 8  12240470.921 9
 86  6 13  3 21 59.0800000  0  4G12G13G 9G 7
  20898527.230    20898533.767     5979652.468 8 -19712651.172 8
  21045445.834    21045450.749    32295569.291 9 -43418977.262 8
  22150593.804    22150601.120    70005483.031 8-101857270.265 8
                  25993489.019    -9866175.220 7
 86  6 13  3 22  5.0800000  0  4G12G13G 9G 7
  20897990.777    20897997.645     5976831.373 9 -19714849.444 8
  21046776.859    21046781.748    32302563.621 9 -43413527.129 7
  22154642.909    22154650.174    70026758.008 8-101840692.358 8
  25989813.249    25989819.079    -9885492.500 8  12279149.477 8
 86  6 13  3 22 11.0800000  0  4G12G13G 9G 7
  20897458.734    20897465.168     5974035.983 9 -19717027.660 8
  21048109.137    21048115.626    32309565.789 9 -43408070.888 7
  22158694.262    22158701.049    70048047.178 8-101824103.404 7
  25986141.824    25986148.763    -9904786.146 9  12264115.459 9
 86  6 13  3 22 17.0800000  0  4G12G13G 9G 7
  20896932.499    20896938.338     5971266.395 9 -19719185.793 8
  21049442.970    21049448.691    32316575.769 9 -43402608.575 8
  22162748.600    22162755.572    70069350.528 9-101807503.402 9
  25982474.551    25982481.179    -9924059.227 8  12249096.983 8
 86  6 13  3 22 23.0800000  0  4G12G13G 9G 7
  20896410.459    20896416.751     5968522.598 9 -19721323.814 8
  21050777.543    21050783.359    32323593.549 9 -43397140.176 9
  22166805.524    22166811.343    70090668.111 8-101790892.300 9
  25978811.600    25978816.347    -9943316.413 7  12234091.400 8
 86  6 13  3 22 29.0800000  0  4G12G13G 9G 7
  20895893.486    20895898.512     5965804.494 9 -19723441.814 8
  21052114.903    21052119.923    32330618.953 9 -43391665.815 9
  22170864.496    22170870.929    70111999.757 8-101774270.242 9
  25975147.900    25975153.177    -9962561.932 8  12219094.901 7
 86  6 13  3 22 35.0800000  0  4G12G13G 9G 7
  20895381.028    20895385.519     5963112.098 9 -19725539.792 7
  21053453.143    21053457.559    32337652.111 9 -43386185.437 8
  22174926.189    22174932.981    70133345.432 9-101757637.252 8
  25971487.207    25971492.648    -9981798.562 8  12204105.317 8
 86  6 13  3 22 41.0800000  0  4G12G13G 9G 7
  20894873.143    20894879.260     5960445.368 9 -19727617.780 8
  21054792.484    21054797.795    32344692.905 9 -43380699.101 8
  22178991.716    22178997.846    70154705.105 8-101740993.365 7
  25967827.576    25967833.771   -10001028.245 8  12189121.158 8
 86  6 13  3 22 47.0800000  0  4G12G13G 9G 7
  20894369.740    20894376.945     5957804.328 9 -19729675.726 8
  21056133.551    21056138.665    32351741.358 9 -43375206.797 7
  22183058.732    22183064.681    70176078.706 9-101724338.609 7
  25964171.009    25964175.342   -10020251.483 8  12174142.024 8
 86  6 13  3 22 53.0800000  0  4G12G13G 9G 7
  20893871.927    20893878.268     5955189.002 9 -19731713.641 8
  21057477.813    21057480.175    32358797.437 5 -43369708.554 3
  22187128.096    22187134.152    70197466.199 8-101707673.035 7
  25960513.408    25960519.217   -10039465.385 8  12159170.148 8
 86  6 13  3 22 59.0800000  0  4G12G13G 9G 7
  20893379.129    20893386.554     5952599.387 8 -19733731.506 8
  21058820.991    21058825.862    32365861.126 4 -43364204.375 3
  22191200.846    22191207.583    70218867.721 8-101690996.523 8
                  25956861.259   -10058662.918 8
 86  6 13  3 23  5.0800000  0  4G12G13G 9G 7
  20892891.152    20892897.097     5950035.480 9 -19735729.360 8
  21060165.998    21060172.883    32372932.531 5 -43358694.192 4
  22195277.466    22195283.042    70240283.081 8-101674309.251 8
  25953212.363    25953217.537   -10077837.886 9  12190634.501 7
 86  6 13  3 23 11.0800000  0  4G12G13G 9G 7
  20892407.576    20892414.597     5947497.268 9 -19737707.199 8
  21061515.620    21061519.348    32380011.533 4 -43353178.070 4
  22199353.955    22199360.737    70261712.350 8-101657611.123 8
  25949568.032    25949574.263   -10096989.117 9  12175711.471 8
 86  6 13  3 23 17.0800000  0  4G12G13G 9G 7
  20891929.832    20891936.702     5944984.802 9 -19739664.955 8
  21062862.478    21062866.578    32387098.153 5 -43347656.019 4
  22203434.727    22203439.882    70283155.540 8-101640902.152 8
  25945927.743    25945932.917   -10116120.101 9  12160804.222 7
 86  6 13  3 23 23.0800000  0  4G12G13G 9G 7
  20891457.163    20891461.882     5942498.138 9 -19741602.622 7
  21064213.542    21064217.022    32394192.337 5 -43342128.080 3
  22207518.232    22207524.498    70304612.578 9-101624182.395 8
  25942289.430    25942295.114   -10135235.508 9  12145909.094 7
 86  6 13  3 23 29.0800000  0  4G12G13G 9G 7
  20890989.105    20890994.871     5940037.321 9 -19743520.137 7
  21065563.272    21065570.610    32401294.195 4 -43336594.173 3
  22211603.870    22211610.178    70326083.445 8-101607451.846 7
  25938654.386    25938660.843   -10154339.295 9  12131023.035 8
 86  6 13  3 23 35.0800000  0  4G12G13G 9G 7
  20890526.419    20890531.686     5937602.314 9 -19745417.564 8
  21066916.044    21066922.921    32408403.669 5 -43331054.313 3
  22215692.710    22215698.024    70347568.073 9-101590710.571 7
  25935020.355    25935026.136   -10173434.007 9  12116144.061 7
 86  6 13  3 23 41.0800000  0  4G12G13G 9G 7
  20890067.285    20890073.487     5935193.030 9 -19747294.907 7
  21068271.170    21068276.809    32415520.680 8 -43325508.591 8
  22219783.110    22219789.114    70369066.539 8-101573958.524 8
  25931388.149    25931394.583   -10192521.606 8  12101270.603 7
 86  6 13  3 23 47.0800000  0  4G12G13G 9G 7
  20889613.712    20889619.361     5932809.615 8 -19749152.127 8
  21069627.326    21069632.789    32422645.290 9 -43319956.953 8
  22223876.486    22223882.689    70390578.737 8-101557195.780 9
  25927758.388    25927763.591   -10211602.415 8  12086402.455 9
 86  6 13  3 23 53.0800000  0  4G12G13G 9G 7
  20889164.220    20889171.558     5930451.982 8 -19750989.241 8
  21070984.168    21070989.226    32429777.395 9 -43314399.458 8
  22227972.618    22227979.872    70412104.630 9-101540422.358 8
  25924128.741    25924134.039   -10230672.968 9  12071542.273 8
 86  6 13  3 23 59.0800000  0  4G12G13G 9G 7
  20888721.038    20888727.973     5928120.213 8 -19752806.220 7
  21072342.282    21072347.468    32436917.070 9 -43308836.068 8
  22232071.660    22232077.394    70433644.275 9-101523638.219 9
                  25920508.588                    12056695.590 7
 86  6 13  3 24  5.0800000  0  4G12G13G 9G 7
  20888282.083    20888289.111     5925814.326 9 -19754603.005 8
  21073702.526    21073708.478    32444064.288 9 -43303266.813 9
  22236172.687    22236179.526    70455197.585 9-101506843.436 8
  25916884.475    25916886.810   -10285934.185 9  12041867.550 9
 86  6 13  3 24 11.0800000  0  4G12G13G 9G 7
  20887848.697    20887855.678     5923534.333 8 -19756379.620 8
  21075064.060    21075070.312    32451218.990 9 -43297691.713 9
  22240276.308    22240282.970    70476764.600 8-101490037.987 8
  25913265.944    25913271.246   -10304940.216 8  12027057.656 8
 86  6 13  3 24 17.0800000  0  4G12G13G 9G 7
  20887419.884    20887426.656     5921280.195 8 -19758136.094 7
  21076426.712    21076432.814    32458381.185 9 -43292110.784 8
  22244383.889    22244388.907    70498345.270 8-101473221.881 8
  25909652.706    25909657.692   -10323925.992 9  12012263.037 8
 86  6 13  3 24 23.0800000  0  4G12G13G 9G 7
  20886995.838    20887000.781     5919051.924 8 -19759872.410 8
  21077790.934    21077797.995    32465550.872 9 -43286524.018 8
  22248492.961    22248499.221    70519939.516 9-101456395.189 8
  25906042.783    25906047.155   -10342896.300 9  11997480.987 8
 86  6 13  3 24 29.0800000  0  4G12G13G 9G 7
  20886577.446    20886582.593     5916849.453 9 -19761588.627 7
  21079156.705    21079164.382    32472728.063 9 -43280931.391 9
  22252604.822    22252611.656    70541547.311 9-101439557.960 7
  25902435.483    25902438.675   -10361854.821 9  11982708.115 7
 86  6 13  3 24 35.0800000  0  4G12G13G 9G 7
  20886162.702    20886168.273     5914672.912 9 -19763284.634 8
  21080523.956    21080530.975    32479912.802 9 -43275332.899 8
  22256720.476    22256724.489    70563168.763 9-101422710.072 8
  25898827.776    25898834.403   -10380804.209 8  11967942.357 7
 86  6 13  3 24 41.0800000  0  4G12G13G 9G 7
  20885754.187    20885759.768     5912522.282 9 -19764960.445 8
  21081891.750    21081899.536    32487104.994 9 -43269728.586 8
  22260836.600    22260841.675    70584803.773 8-101405851.632 7
  25895224.215    25895228.559   -10399746.314 9  11953182.290 7
 86  6 13  3 24 47.0800000  0  4G12G13G 9G 7
  20885349.943    20885353.964     5910397.581 9 -19766616.063 7
  21083262.543    21083269.544    32494304.669 9 -43264118.447 8
  22264956.445    22264961.522    70606452.259 9-101388982.697 7
  25891620.298    25891624.188   -10418681.116 9  11938427.898 7
 86  6 13  3 24 53.0800000  0  4G12G13G 9G 7
  20884951.187    20884955.000     5908298.829 9 -19768251.458 8
  21084634.342    21084640.605    32501511.831 9 -43258502.475 8
  22269077.365    22269083.169    70628114.295 9-101372103.196 8
  25888020.157    25888023.550   -10437605.009 9  11923682.022 8
 86  6 13  3 24 59.0800000  0  4G12G13G 9G 7
  20884555.885    20884560.319     5906226.047 9 -19769866.608 9
  21086006.595    21086013.376    32508726.463 9 -43252880.685 8
  22273203.293    22273208.968    70649789.890 9-101355213.121 7
                  25884427.307                    11908950.379 8
 86  6 13  3 25  5.0800000  0  4G12G13G 9G 7
  20884166.382    20884171.338     5904179.346 9 -19771461.453 8
  21087381.406    21087388.161    32515948.476 9 -43247253.137 9
  22277330.792    22277336.941    70671479.021 8-101338312.501 8
  25880827.830    25880833.488   -10492658.802 8  11894237.396 8
 86  6 13  3 25 11.0800000  0  4G12G13G 9G 7
  20883781.538    20883787.793     5902158.656 9 -19773036.009 9
  21088757.408    21088764.140    32523177.924 9 -43241619.811 9
  22281459.897    22281465.631    70693181.600 8-101321401.401 9
  25877239.329    25877246.442   -10511516.487 9  11879543.101 8
 86  6 13  3 25 17.0800000  0  4G12G13G 9G 7
  20883401.927    20883408.086     5900163.961 8 -19774590.305 8
  21090135.181    21090140.778    32530414.778 8 -43235980.688 8
  22285593.121    22285598.952    70714897.540 9-101304479.887 8
  25873655.680    25873662.051   -10530353.502 8  11864864.528 8
 86  6 13  3 25 23.0800000  0  4G12G13G 9G 7
  20883027.513    20883032.369     5898195.233 9 -19776124.384 8
  21091512.628    21091518.560    32537659.021 9 -43230335.836 9
  22289727.807    22289733.853    70736626.960 9-101287547.878 8
  25870074.360    25870080.129   -10549175.524 9  11850198.023 9
 86  6 13  3 25 29.0800000  0  4G12G13G 9G 7
  20882657.824    20882663.065     5896252.360 9 -19777638.317 8
  21092893.094    21092898.560    32544910.555 9 -43224685.280 8
  22293865.623    22293871.211    70758369.594 8-101270605.569 9
  25866494.515    25866500.574   -10567985.988 8  11835540.531 8
 86  6 13  3 25 35.0800000  0  4G12G13G 9G 7
  20882293.633    20882297.273     5894335.266 9 -19779132.150 8
  21094274.417    21094279.346    32552169.307 9 -43219029.092 8
  22298005.817    22298010.891    70780125.395 9-101253653.006 8
  25862916.359    25862922.618   -10586787.296 9  11820890.154 9
 86  6 13  3 25 41.0800000  0  4G12G13G 9G 7
  20881932.749    20881937.784     5892443.984 9 -19780605.880 9
  21095658.344    21095662.300    32559435.279 8 -43213367.294 9
  22302148.143    22302154.203    70801894.352 8-101236690.181 8
  25859339.995    25859347.061   -10605581.311 9  11806245.470 8
 86  6 13  3 25 47.0800000  0  4G12G13G 9G 7
  20881578.173    20881583.334     5890578.552 8 -19782059.464 8
  21097042.137    21097046.151    32566708.414 9 -43207699.911 9
  22306292.742    22306297.058    70823676.456 9-101219717.114 8
  25855765.095    25855770.928   -10624367.707 9  11791606.715 8
 86  6 13  3 25 53.0800000  0  4G12G13G 9G 7
  20881227.976    20881233.783     5888738.975 9 -19783492.895 9
  21098427.638    21098430.680    32573988.703 9 -43202026.954 9
  22310440.333    22310444.893    70845471.752 8-101202733.763 8
                  25852197.163                    11776977.031 9
 86  6 13  3 25 59.0800000  0  4G12G13G 9G 7
  20880882.638    20880888.480     5886925.295 9 -19784906.153 8
  21099814.329    21099818.428    32581276.174 9 -43196348.396 8
  22314589.529    22314595.789    70867280.164 8-101185740.207 8
  25848644.310    25848629.715   -10679255.617 8  11762362.078 8
 86  6 13  3 26  5.0800000  0  4G12G13G 9G 7
  20880542.989    20880549.769     5885137.514 9 -19786299.226 8
  21101201.776    21101206.499    32588570.845 9 -43190664.229 8
  22318742.054    22318748.003    70889101.730 8-101168736.398 8
  25845057.875    25845064.286   -10697987.310 9  11747766.116 9
 86  6 13  3 26 11.0800000  0  4G12G13G 9G 7
  20880207.333    20880213.272     5883375.617 8 -19787672.129 8
  21102590.414    21102596.357    32595872.738 9 -43184974.442 9
  22322896.629    22322903.247    70910936.300 9-101151722.465 8
  25841498.490    25841503.892   -10716695.013 9  11733188.690 8
 86  6 13  3 26 17.0800000  0  4G12G13G 9G 7
  20879877.726    20879882.547     5881639.593 9 -19789024.880 7
  21103982.489    21103987.549    32603181.793 9 -43179279.069 8
  22327054.565    22327061.527    70932783.890 9-101134698.363 8
  25837942.656    25837949.252   -10735383.277 9  11718626.791 8
 86  6 13  3 26 23.0800000  0  4G12G13G 9G 7
  20879552.052    20879557.268     5879929.554 9 -19790357.383 9
  21105372.914    21105381.071    32610497.931 9 -43173578.179 9
  22331215.106    22331220.237    70954644.460 8-101117664.167 8
  25834389.158    25834394.730   -10754055.870 9  11704076.719 8
 86  6 13  3 26 29.0800000  0  4G12G13G 9G 7
  20879230.616    20879237.385     5878245.487 8 -19791669.633 7
  21106767.754    21106774.050    32617821.295 9 -43167871.664 9
  22335377.336    22335383.528    70976518.122 8-101100619.758 7
  25830838.181    25830844.374   -10772716.770 9  11689535.756 8
 86  6 13  3 26 35.0800000  0  4G12G13G 9G 7
  20878914.762    20878922.169     5876587.354 9 -19792961.694 8
  21108162.930    21108168.936    32625151.763 9 -43162159.611 9
  22339542.384    22339547.990    70998404.727 9-101083565.262 8
  25827288.377    25827294.652   -10791368.425 8  11675001.994 9
 86  6 13  3 26 41.0800000  0  4G12G13G 9G 7
  20878606.033    20878610.887     5874955.194 8 -19794233.506 8
  21109560.312    21109565.058    32632489.316 9 -43156442.038 9
  22343709.551    22343714.970    71020304.296 8-101066500.665 7
  25823741.092    25823747.346   -10810012.490 8  11660474.161 9
 86  6 13  3 26 47.0800000  0  4G12G13G 9G 7
  20878299.466    20878304.583     5873349.080 8 -19795485.016 7
  21110958.030    21110963.645    32639834.063 9 -43150718.846 8
  22347879.621    22347884.552    71042217.021 8-101049425.820 8
  25820194.962    25820202.031   -10828648.349 9  11645952.718 8
 86  6 13  3 26 53.0800000  0  4G12G13G 9G 7
  20877999.080    20878003.930     5871769.019 9 -19796716.237 8
  21112357.293    21112361.537    32647186.021 9 -43144990.049 8
  22352052.142    22352057.599    71064142.597 8-101032340.960 8
                  25816651.313   -10847271.602 9
 86  6 13  3 26 59.0800000  0  4G12G13G 9G 7
  20877703.922    20877707.711     5870214.986 8 -19797927.177 8
  21113756.423    21113761.790    32654545.204 9 -43139255.605 8
  22356227.161    22356231.736    71086081.052 9-101015246.049 8
  25813110.662    25813220.586   -10865875.168 9  11686257.819 9
 86  6 13  3 27  5.0800000  0  4G12G13G 9G 7
  20877413.531    20877417.184     5868687.129 8 -19799117.699 7
  21115157.339    21115163.369    32661911.503 9 -43133515.634 9
  22360403.501    22360408.874    71108032.556 9-100998141.002 8
  25809575.475    25809581.914   -10884453.780 8  11671780.989 8
 86  6 13  3 27 11.0800000  0  4G12G13G 9G 7
  20877127.704    20877131.914     5867185.410 8 -19800287.873 8
  21116560.087    21116566.675    32669285.000 9 -43127770.047 8
  22364583.886    22364588.731    71129997.067 8-100981025.791 9
  25806045.002    25806050.148   -10903008.213 8  11657322.993 9
 86  6 13  3 27 17.0800000  0  4G12G13G 9G 7
  20876846.168    20876850.481     5865709.883 9 -19801437.636 8
  21117966.108    21117971.202    32676665.801 9 -43122018.763 9
  22368767.438    22368771.162    71151974.475 9-100963900.541 8
  25802518.323    25802524.110   -10921542.632 8  11642880.592 8
 86  6 13  3 27 23.0800000  0  4G12G13G 9G 7
  20876570.332    20876575.489     5864260.574 8 -19802566.980 8
  21119371.665    21119377.550    32684053.910 9 -43116261.797 9
  22372950.874    22372956.316    71173964.894 8-100946765.154 7
  25798993.568    25799000.192   -10940061.842 8  11628450.040 9
 86  6 13  3 27 29.0800000  0  4G12G13G 9G 7
  20876299.655    20876304.779     5862837.415 9 -19803675.936 8
  21120778.832    21120784.258    32691449.106 9 -43110499.304 9
  22377137.357    22377142.300    71195968.293 8-100929619.658 8
  25795470.652    25795478.902   -10958569.153 8  11614028.756 9
 86  6 13  3 27 35.0800000  0  4G12G13G 9G 7
  20876033.941    20876038.160     5861440.370 9 -19804764.537 7
  21122187.898    21122193.593    32698851.350 9 -43104731.322 8
  22381327.645    22381333.088    71217984.429 8-100912464.223 8
  25791951.986    25791958.748   -10977067.053 8  11599614.821 8
 86  6 13  3 27 41.0800000  0  4G12G13G 9G 7
  20875773.371    20875777.904     5860069.291 9 -19805832.893 7
  21123598.269    21123603.067    32706260.619 9 -43098957.855 8
  22385519.744    22385524.317    71240013.325 9-100895298.858 8
  25788432.640    25788439.723   -10995557.089 8  11585207.003 9
 86  6 13  3 27 47.0800000  0  4G12G13G 9G 7
  20875515.941    20875521.488     5858724.212 9 -19806881.026 8
  21125009.035    21125013.594    32713676.797 9 -43093179.018 9
  22389713.389    22389719.886    71262054.964 8-100878123.553 9
  25784916.572    25784921.607   -11014038.616 8  11570805.824 9
 86  6 13  3 27 53.0800000  0  4G12G13G 9G 7
  20875265.350    20875270.987     5857405.119 9 -19807908.890 7
  21126422.039    21126426.758    32721100.007 9 -43087394.682 9
  22393910.145    22393916.064    71284109.165 8-100860938.473 8
                  25781408.657                    11556415.057 9
 86  6 13  3 27 59.0800000  0  4G12G13G 9G 7
  20875019.947    20875025.235     5856112.050 8 -19808916.475 8
  21127835.633    21127840.512    32728530.152 9 -43081604.954 8
  22398108.915    22398115.565    71306175.901 8-100843743.622 8
  25777897.841    25777897.784   -11068738.379 8  11542040.191 8
 86  6 13  3 28  5.0800000  0  4G12G13G 9G 7
  20874778.383    20874784.174     5854844.953 9 -19809903.815 7
  21129250.640    21129256.044    32735967.144 9 -43075809.891 8
  22402310.265    22402316.645    71328255.174 8-100826539.001 8
  25774385.688    25774391.597   -11087160.956 8  11527685.051 8
 86  6 13  3 28 11.0800000  0  4G12G13G 9G 7
  20874541.832    20874547.586     5853603.772 9 -19810870.979 8
  21130666.644    21130672.244    32743410.965 8 -43070009.519 9
  22406515.349    22406520.765    71350346.888 8-100809324.692 7
  25770884.548    25770890.597   -11105559.598 7  11513348.460 9
 86  6 13  3 28 17.0800000  0  4G12G13G 9G 7
  20874310.407    20874316.331     5852388.493 9 -19811817.958 7
  21132084.158    21132090.882    32750861.674 9 -43064203.766 8
  22410720.876    22410726.995    71372450.977 8-100792100.723 8
  25767387.291    25767393.462   -11123938.633 8  11499027.132 8
 86  6 13  3 28 23.0800000  0  4G12G13G 9G 7
  20874085.467    20874089.616     5851199.184 9 -19812744.690 8
  21133502.897    21133510.233    32758319.163 9 -43058392.740 8
  22414929.864    22414935.171    71394567.478 8-100774867.096 8
  25763892.456    25763898.640   -11142302.654 8  11484717.512 8
 86  6 13  3 28 29.0800000  0  4G12G13G 9G 7
  20873864.492    20873867.842     5850035.922 8 -19813651.127 7
  21134922.737    21134929.381    32765783.505 9 -43052576.369 9
  22419141.357    22419145.886    71416696.500 9-100757623.697 8
  25760399.942    25760406.538   -11160654.959 8  11470417.007 8
 86  6 13  3 28 35.0800000  0  4G12G13G 9G 7
  20873647.466    20873652.895     5848898.721 9 -19814537.265 7
  21136344.395    21136351.326    32773254.785 8 -43046754.589 8
  22423353.775    22423359.450    71438838.001 8-100740370.591 8
  25756908.959    25756915.353   -11178997.837 8  11456123.856 9
 86  6 13  3 28 41.0800000  0  4G12G13G 9G 7
  20873435.641    20873440.079     5847787.656 9 -19815403.037 7
  21137768.227    21137774.741    32780732.900 9 -43040927.495 9
  22427570.194    22427575.893    71460992.008 8-100723107.728 7
  25753421.232    25753426.257   -11197332.728 9  11441836.948 8
 86  6 13  3 28 47.0800000  0  4G12G13G 9G 7
  20873229.311    20873234.791     5846702.777 9 -19816248.404 7
  21139192.450    21139198.245    32788217.961 8 -43035094.977 9
  22431788.055    22431793.394    71483158.627 9-100705835.031 7
  25749933.410    25749939.393   -11215658.435 8  11427557.177 9
 86  6 13  3 28 53.0800000  0  4G12G13G 9G 7
  20873027.482    20873033.278     5845644.047 8 -19817073.380 8
  21140617.704    21140624.121    32795709.984 9 -43029257.032 8
  22436007.295    22436014.810    71505337.695 9-100688552.640 8
                  25746455.117                    11413288.608 8
 86  6 13  3 28 59.0800000  0  4G12G13G 9G 7
  20872830.947    20872837.643     5844611.511 8 -19817877.954 8
  21142045.325    21142051.141    32803208.941 9 -43023413.691 8
  22440230.445    22440237.118    71527529.323 8-100671260.464 8
  25742879.379    25742974.635   -11270199.380 9  11399036.763 8
 86  6 13  3 29  5.0800000  0  4G12G13G 9G 7
  20872639.781    20872644.872     5843605.226 8 -19818662.066 8
  21143474.659    21143478.792    32810714.796 9 -43017564.968 9
  22444456.548    22444461.936    71549733.301 8-100653958.669 8
  25739492.738    25739499.190   -11288463.599 8  11384805.125 8
 86  6 13  3 29 11.0800000  0  4G12G13G 9G 7
  20872452.408    20872459.153     5842625.149 8 -19819425.767 8
  21144903.467    21144909.594    32818227.549 9 -43011710.873 8
  22448684.207    22448690.765    71571949.659 9-100636647.218 8
  25736021.713    25736028.953   -11306703.584 8  11370592.155 9
 86  6 13  3 29 17.0800000  0  4G12G13G 9G 7
  20872270.840    20872275.807     5841671.200 9 -19820169.110 8
  21146334.329    21146340.783    32825747.108 9 -43005851.476 8
  22452913.968    22452919.769    71594178.346 9-100619326.187 8
  25732556.326    25732560.517   -11324924.030 7  11356394.426 9
 86  6 13  3 29 23.0800000  0  4G12G13G 9G 7
  20872093.913    20872099.537     5840743.436 9 -19820892.029 8
  21147766.336    21147773.296    32833273.499 8 -42999986.759 8
  22457146.148    22457152.371    71616419.305 8-100601995.567 9
  25729090.543    25729096.436   -11343129.312 8  11342208.488 9
 86  6 13  3 29 29.0800000  0  4G12G13G 9G 7
  20871923.013    20871927.726     5839841.917 9 -19821594.528 7
  21149199.899    21149206.968    32840806.789 8 -42994116.655 9
  22461381.352    22461387.031    71638672.645 8-100584655.315 8
  25725627.800    25725633.755   -11361322.653 8  11328031.850 8
 86  6 13  3 29 35.0800000  0  4G12G13G 9G 7
  20871756.560    20871762.254     5838966.501 9 -19822276.665 9
  21150635.455    21150641.038    32848346.830 9 -42988241.296 8
  22465619.599    22465623.576    71660938.235 9-100567305.492 8
  25722168.595    25722173.705   -11379506.414 8  11313862.700 9
 86  6 13  3 29 41.0800000  0  4G12G13G 9G 7
  20871594.404    20871599.532     5838117.105 8 -19822938.531 8
  21152071.765    21152076.333    32855893.664 9 -42982360.655 8
  22469858.926    22469863.374    71683216.060 8-100549946.154 9
  25718710.365    25718715.199   -11397681.855 8  11299700.023 8
 86  6 13  3 29 47.0800000  0  4G12G13G 9G 7
  20871438.569    20871442.638     5837293.823 9 -19823580.055 8
  21153509.318    21153514.187    32863447.237 8 -42976474.756 8
  22474099.253    22474105.142    71705506.095 9-100532577.299 8
  25715252.808    25715257.441   -11415847.738 7  11285544.790 8
 86  6 13  3 29 53.0800000  0  4G12G13G 9G 7
  20871286.724    20871291.455     5836496.763 9 -19824201.141 7
  21154947.335    21154952.681    32871007.643 9 -42970583.529 8
  22478344.327    22478348.381    71727808.283 9-100515198.978 9
                  25711804.246                    11271401.380 9
 86  6 13  3 29 59.0800000  0  4G12G13G 9G 7
  20871138.897    20871145.119     5835725.818 9 -19824801.875 7
  21156388.294    21156393.970    32878574.778 9 -42964687.053 8
  22482589.749    22482594.951    71750122.584 8-100497811.211 8
  25708348.678    25708353.918   -11470224.876 8  11257275.331 9
 86  6 13  3 30  5.0800000  0  4G12G13G 9G 7
  20870998.026    20871003.671     5834980.988 9 -19825382.270 8
  21157829.757    21157833.637    32886148.555 9 -42958785.396 8
  22486838.721    22486844.200    71772448.991 8-100480414.022 9
  25704902.241    25704910.405   -11488327.430 8  11243169.445 9
 86  6 13  3 30 11.0800000  0  4G12G13G 9G 7
  20870861.062    20870866.601     5834262.217 8 -19825942.341 8
  21159271.928    21159276.077    32893728.958 9 -42952878.585 8
  22491088.509    22491095.518    71794787.378 8-100463007.502 9
  25701463.774    25701470.020   -11506406.153 8  11229082.142 9
 86  6 13  3 30 17.0800000  0  4G12G13G 9G 7
  20870729.475    20870734.832     5833569.553 8 -19826482.083 8
  21160716.275    21160719.130    32901315.936 8 -42946966.644 8
  22495342.880    22495348.974    71817137.728 9-100445591.653 7
  25698025.895    25698033.319   -11524465.481 8  11215009.948 9
 86  6 13  3 30 23.0800000  0  4G12G13G 9G 7
  20870602.405    20870608.265     5832903.014 9 -19827001.481 7
  21162161.430    21162164.240    32908909.572 9 -42941049.519 8
  22499597.373    22499604.021    71839500.053 8-100428166.470 9
  25694593.334    25694600.976   -11542509.901 9  11200949.363 9
 86  6 13  3 30 29.0800000  0  4G12G13G 9G 7
  20870479.726    20870487.653     5832262.615 8 -19827500.482 8
  21163607.517    21163610.702    32916509.904 9 -42935127.179 7
  22503856.134    22503861.812    71861874.355 9-100410731.953 8
  25691161.677    25691169.001   -11560542.368 9  11186898.083 9
 86  6 13  3 30 35.0800000  0  4G12G13G 9G 7
  20870363.486    20870369.665     5831648.368 8 -19827979.109 8
  21165054.771    21165058.226    32924116.814 9 -42929199.710 8
  22508116.730    22508121.850    71884260.601 8-100393288.135 8
  25687731.947    25687739.261   -11578565.193 8  11172854.333 9
 86  6 13  3 30 41.0800000  0  4G12G13G 9G 7
  20870251.674    20870257.757     5831060.334 8 -19828437.321 8
  21166502.599    21166507.455    32931730.326 8 -42923267.113 8
  22512378.658    22512382.938    71906658.812 8-100375834.979 8
  25684304.136    25684311.093   -11596579.384 9  11158817.320 8
 86  6 13  3 30 47.0800000  0  4G12G13G 9G 7
  20870144.805    20870150.628     5830498.463 8 -19828875.148 7
  21167952.909    21167958.067    32939350.474 9 -42917329.332 8
  22516641.533    22516649.022    71929069.040 8-100358372.468 8
  25680877.930    25680884.669   -11614583.508 9  11144788.131 9
 86  6 13  3 30 53.0800000  0  4G12G13G 9G 7
  20870043.105    20870047.894     5829962.802 7 -19829292.540 7
  21169404.051    21169409.484    32946977.286 9 -42911386.367 9
  22520909.041    22520915.205    71951491.093 7-100340900.754 8
                  25677462.044                    11130771.404 6
 86  6 13  3 30 59.0800000  0  4G12G13G 9G 7
  20869946.591    20869952.309     5829453.473 9 -19829689.431 9
  21170856.258    21170862.080    32954610.741 9 -42905438.229 9
  22525177.330    22525183.979    71973925.037 8-100323419.764 8
  25674034.288    25674043.615   -11668800.669 4  11116772.683 5
 86  6 13  3 31  5.0800000  0  4G12G13G 9G 7
  20869854.599    20869859.863     5828970.461 8 -19830065.801 8
  21172309.922    21172315.166    32962250.876 9 -42899484.876 9
  22529449.369    22529455.245    71996370.881 8-100305929.491 9
  25670621.928    25670629.829   -11686739.295 7  11102794.553 7
 86  6 13  3 31 11.0800000  0  4G12G13G 9G 7
  20869767.888    20869771.727     5828513.827 8 -19830421.615 7
  21173765.394    21173770.532    32969897.747 9 -42893526.282 9
  22533722.107    22533728.286    72018828.721 8-100288429.885 9
  25667213.451    25667221.457   -11704654.075 6  11088834.991 7
 86  6 13  3 31 17.0800000  0  4G12G13G 9G 7
  20869685.941    20869691.598     5828083.484 8 -19830756.956 8
  21175222.285    21175227.354    32977551.191 8 -42887562.550 8
  22537996.864    22538005.047    72041298.471 8-100270921.005 9
  25663808.386    25663816.157   -11722549.594 6  11074890.425 7
 86  6 13  3 31 23.0800000  0  4G12G13G 9G 7
  20869607.794    20869614.570     5827679.291 9 -19831071.901 8
  21176679.641    21176684.150    32985211.196 8 -42881593.718 9
  22542275.341    22542282.664    72063779.942 7-100253402.978 7
  25660405.648    25660412.916   -11740430.083 6  11060957.581 8
 86  6 13  3 31 29.0800000  0  4G12G13G 9G 7
  20869537.078    20869542.076     5827301.276 9 -19831366.471 9
  21178138.497    21178144.165    32992877.823 9 -42875619.717 9
  22546556.221    22546563.030    72086273.169 8-100235875.814 8
  25657006.727    25657013.318   -11758298.596 6  11047034.056 6
 86  6 13  3 31 35.0800000  0  4G12G13G 9G 7
  20869469.185    20869475.689     5826949.505 9 -19831640.581 8
  21179598.498    21179604.780    33000550.948 9 -42869640.666 8
  22550840.052    22550845.915    72108778.121 8-100218339.478 7
  25653607.283    25653614.868   -11776157.342 8  11033118.166 7
 86  6 13  3 31 41.0800000  0  4G12G13G 9G 7
  20869407.245    20869413.239     5826623.989 8 -19831894.230 7
  21181059.955    21181065.986    33008230.572 9 -42863656.553 9
  22555124.162    22555131.134    72131294.711 8-100200794.097 8
  25650211.430    25650216.875   -11794007.409 8  11019209.032 9
 86  6 13  3 31 47.0800000  0  4G12G13G 9G 7
  20869350.335    20869356.976     5826324.710 9 -19832127.437 7
  21182522.030    21182528.787    33015916.668 9 -42857667.388 8
  22559411.684    22559417.444    72153822.968 9-100183239.628 8
  25646816.585    25646822.458   -11811846.734 9  11005308.263 9
 86  6 13  3 31 53.0800000  0  4G12G13G 9G 7
  20869297.988    20869305.080     5826051.636 8 -19832340.221 8
  21183985.484    21183993.389    33023609.271 9 -42851673.158 9
  22563701.721    22563706.869    72176362.814 9-100165676.110 8
                  25643431.088                    10991420.561 8
 86  6 13  3 31 59.0800000  0  4G12G13G 9G 7
  20869252.475    20869258.120     5825804.809 9 -19832532.558 7
  21185449.474    21185458.450    33031308.290 9 -42845673.934 9
  22567991.775    22567998.189    72198914.224 9-100148103.579 7
  25640037.316    25640043.856   -11865898.088 9  10977551.372 9
 86  6 13  3 32  5.0800000  0  4G12G13G 9G 7
  20869209.936    20869215.315     5825584.129 9 -19832704.515 8
  21186916.437    21186925.057    33039013.736 9 -42839669.708 9
  22572286.443    22572292.106    72221477.170 9-100130522.074 8
  25636654.918    25636660.995   -11883670.425 9  10963702.795 8
 86  6 13  3 32 11.0800000  0  4G12G13G 9G 7
  20869172.970    20869178.743     5825389.623 8 -19832856.079 8
  21188384.646    21188391.778    33046725.479 8 -42833660.552 9
  22576581.297    22576587.352    72244051.644 9-100112931.584 8
  25633277.971    25633283.679   -11901419.110 9  10949872.662 9
 86  6 13  3 32 17.0800000  0  4G12G13G 9G 7
  20869141.232    20869147.016     5825221.333 8 -19832987.224 8
  21189854.058    21189860.472    33054443.635 8 -42827646.418 8
  22580879.206    22580884.618    72266637.622 8-100095332.125 8
  25629903.716    25629910.026   -11919148.580 8  10936057.501 9
 86  6 13  3 32 23.0800000  0  4G12G13G 9G 7
  20869112.875    20869120.079     5825079.252 8 -19833097.946 8
  21191323.812    21191330.544    33062168.173 9 -42821627.303 9
  22585180.027    22585185.356    72289234.994 9-100077723.786 8
  25626532.686    25626539.136   -11936863.146 8  10922253.948 8
 86  6 13  3 32 29.0800000  0  4G12G13G 9G 7
  20869090.981    20869098.141     5824963.288 8 -19833188.295 8
  21192795.269    21192800.923    33069899.082 8 -42815603.220 7
  22589481.716    22589486.931    72311843.740 8-100060106.591 8
  25623164.467    25623170.011   -11954565.846 7  10908459.642 7
 86  6 13  3 32 35.0800000  0  4G12G13G 9G 7
  20869074.820    20869081.183     5824873.489 8 -19833258.274 9
  21194269.326    21194273.438    33077636.336 9 -42809574.193 8
  22593787.480    22593792.454    72334463.875 8-100042480.505 8
  25619797.941    25619803.394   -11972258.778 8  10894672.943 9
 86  6 13  3 32 41.0800000  0  4G12G13G 9G 7
  20869062.597    20869068.733     5824809.922 9 -19833307.806 8
  21195742.991    21195747.201    33085379.917 9 -42803540.230 8
  22598093.531    22598097.973    72357095.307 7-100024845.609 7
  25616432.745    25616438.438   -11989942.644 9  10880893.309 8
 86  6 13  3 32 47.0800000  0  4G12G13G 9G 7
  20869055.664    20869062.069     5824772.554 8 -19833336.928 8
  21197217.885    21197221.921    33093129.807 9 -42797501.349 8
  22602402.974    22602406.988    72379738.218 7-100007201.786 7
  25613069.376    25613076.650   -12007615.286 9  10867122.419 8
 86  6 13  3 32 53.0800000  0  4G12G13G 9G 7
  20869053.117    20869059.326     5824761.327 8 -19833345.672 8
  21198694.730    21198696.880    33100885.917 9 -42791457.622 9
  22606712.472    22606718.919    72402392.372 8 -99989549.210 7
                  25609716.381                    10853365.324 8
 86  6 13  3 32 59.0800000  0  4G12G13G 9G 7
  20869055.739    20869063.414     5824776.309 8 -19833334.002 8
  21200170.864    21200174.528    33108648.326 9 -42785408.993 8
  22611025.405    22611031.511    72425057.825 8 -99971887.822 8
  25606353.813    25606361.559   -12061497.761 9  10839627.228 9
 86  6 13  3 33  5.0800000  0  4G12G13G 9G 7
  20869063.836    20869069.882     5824817.611 8 -19833301.808 8
  21201648.075    21201652.053    33116416.953 9 -42779355.512 8
  22615339.486    22615346.017    72447734.618 7 -99954217.606 7
  25603004.058    25603011.313   -12079101.697 9  10825909.876 8
 86  6 13  3 33 11.0800000  0  4G12G13G 9G 7
  20869076.558    20869084.215     5824885.182 9 -19833249.164 7
  21203128.037    21203132.217    33124191.888 9 -42773297.116 9
  22619656.827    22619663.787    72470422.687 7 -99936538.608 7
  25599659.353    25599666.475   -12096681.874 9  10812211.044 9
 86  6 13  3 33 17.0800000  0  4G12G13G 9G 7
  20869094.012    20869100.929     5824978.966 8 -19833176.087 7
  21204609.145    21204612.158    33131973.198 9 -42767233.754 8
  22623977.154    22623984.500    72493121.971 8 -99918850.857 8
  25596317.676    25596323.647   -12114242.996 8  10798527.062 9
 86  6 13  3 33 23.0800000  0  4G12G13G 9G 7
  20869117.110    20869123.864     5825099.136 9 -19833082.450 7
  21206090.741    21206094.668    33139760.942 9 -42761165.396 9
  22628298.961    22628304.740    72515832.600 9 -99901154.274 9
  25592978.783    25592984.884   -12131789.120 9  10784854.760 9
 86  6 13  3 33 29.0800000  0  4G12G13G 9G 7
  20869145.369    20869150.827     5825245.683 9 -19832968.254 8
  21207572.385    21207577.320    33147555.047 9 -42755092.073 9
  22632623.529    22632629.293    72538554.498 9 -99883448.914 8
  25589641.509    25589649.068   -12149323.004 9  10771192.004 9
 86  6 13  3 33 35.0800000  0  4G12G13G 9G 7
  20869178.824    20869185.271     5825418.595 9 -19832833.524 8
  21209056.852    21209060.757    33155355.507 9 -42749013.782 7
  22636950.013    22636955.670    72561287.660 8 -99865734.734 8
  25586307.952    25586313.166   -12166846.736 9  10757537.147 9
 86  6 13  3 33 41.0800000  0  4G12G13G 9G 7
  20869216.474    20869223.100     5825617.887 8 -19832678.231 8
  21210543.125    21210547.891    33163162.392 9 -42742930.508 8
  22641278.058    22641284.753    72584032.171 9 -99848011.753 8
  25582975.257    25582980.613   -12184360.976 9  10743889.684 8
 86  6 13  3 33 47.0800000  0  4G12G13G 9G 7
  20869259.874    20869266.096     5825843.549 8 -19832502.388 8
  21212029.962    21212034.382    33170975.625 9 -42736842.273 9
  22645608.270    22645614.901    72606787.819 8 -99830280.094 8
  25579643.990    25579650.234   -12201863.183 9  10730251.606 9
 86  6 13  3 33 53.0800000  0  4G12G13G 9G 7
  20869307.802    20869313.574     5826095.536 9 -19832306.033 8
  21213517.043    21213521.955    33178795.195 9 -42730749.102 8
  22649940.358    22649946.657    72629554.695 9 -99812539.689 8
                  25576323.647                    10716628.025 9
 86  6 13  3 33 59.0800000  0  4G12G13G 9G 7
  20869360.255    20869366.171     5826373.823 8 -19832089.189 8
  21215006.235    21215011.837    33186621.021 9 -42724651.057 8
  22654275.555    22654280.876    72652332.608 8 -99794790.673 8
  25572994.760    25573001.295   -12255578.718 8  10703024.055 9
 86  6 13  3 34  5.0800000  0  4G12G13G 9G 7
  20869417.971    20869424.757     5826678.432 8 -19831851.839 8
  21216496.318    21216502.286    33194453.070 8 -42718548.154 9
  22658610.546    22658616.806    72675121.582 6 -99777033.029 6
  25569677.245    25569683.771   -12273010.281 9  10689441.033 8
 86  6 13  3 34 11.0800000  0  4G12G13G 9G 7
  20869481.020    20869488.584     5827009.365 9 -19831593.972 8
  21217986.390    21217993.391    33202291.328 9 -42712440.437 9
  22662950.195    22662955.469    72697921.703 7 -99759266.709 6
  25566365.195    25566370.719   -12290417.673 9  10675876.440 8
 86  6 13  3 34 17.0800000  0  4G12G13G 9G 7
  20869548.846    20869557.001     5827366.589 9 -19831315.617 8
  21219479.492    21219486.827    33210135.879 8 -42706327.803 9
  22667291.589    22667295.044    72720732.797 7 -99741491.823 6
  25563055.523    25563061.588   -12307806.541 9  10662326.686 9
 86  6 13  3 34 23.0800000  0  4G12G13G 9G 7
  20869622.468    20869629.631     5827750.116 9 -19831016.760 7
  21220971.889    21220980.363    33217986.610 8 -42700210.351 8
  22671634.615    22671637.628    72743554.840 7 -99723708.423 6
  25559749.620    25559756.094   -12325180.482 9  10648788.551 8
 86  6 13  3 34 29.0800000  0  4G12G13G 9G 7
  20869699.337    20869706.160     5828159.923 8 -19830697.428 7
  21222466.864    21222476.074    33225843.468 8 -42694088.136 9
  22675978.571    22675983.700    72766387.718 5 -99705916.560 5
  25556446.622    25556452.531   -12342542.226 9  10635259.931 8
 86  6 13  3 34 35.0800000  0  4G12G13G 9G 7
  20869784.219    20869789.505     5828595.950 8 -19830357.667 8
  21223964.821    21223972.216    33233706.457 9 -42687961.136 8
  22680324.545    22680331.292    72789231.547 7 -99688116.193 7
  25553144.832    25553150.256   -12359893.883 9  10621739.158 9
 86  6 13  3 34 41.0800000  0  4G12G13G 9G 7
  20869871.255    20869877.499     5829058.151 8 -19829997.509 9
  21225462.988    21225469.144    33241575.581 9 -42681829.365 9
  22684673.712    22684680.141    72812086.237 6 -99670307.344 5
  25549845.064    25549849.405   -12377235.886 9  10608225.902 9
 86  6 13  3 34 47.0800000  0  4G12G13G 9G 7
  20869964.042    20869970.724     5829546.606 9 -19829616.900 8
  21226963.092    21226967.903    33249450.721 9 -42675692.898 9
  22689026.552    22689030.365    72834951.741 5 -99652490.074 5
  25546546.927    25546552.414   -12394565.444 9  10594722.345 8
 86  6 13  3 34 53.0800000  0  4G12G13G 9G 7
  20870062.710    20870068.133     5830061.284 9 -19829215.847 7
  21228462.721    21228467.433    33257331.880 9 -42669551.730 8
  22693378.575    22693384.253    72857827.960 8 -99634664.463 8
                  25543258.096                    10581233.906 8
 86  6 13  3 34 59.0800000  0  4G12G13G 9G 7
  20870165.359    20870170.345     5830602.272 9 -19828794.305 7
  21229964.779    21229969.788    33265219.144 9 -42663405.820 8
  22697733.576    22697738.542    72880714.932 9 -99616830.450 8
  25539964.334    25539968.613   -12448085.588 8  10567765.489 9
 86  6 13  3 35  5.0800000  0  4G12G13G 9G 7
  20870272.876    20870278.522     5831169.602 9 -19828352.233 9
  21231466.958    21231470.062    33273112.431 9 -42657255.209 9
  22702091.944    22702097.597    72903612.800 9 -99598987.958 8
  25536679.088    25536684.426   -12465343.063 9  10554318.101 8
 86  6 13  3 35 11.0800000  0  4G12G13G 9G 7
  20870385.601    20870391.471     5831763.214 8 -19827889.677 8
  21232969.461    21232975.078    33281011.820 9 -42651099.843 9
  22706451.396    22706457.072    72926521.403 8 -99581137.110 8
  25533399.623    25533405.304   -12482577.623 9  10540888.964 8
 86  6 13  3 35 17.0800000  0  4G12G13G 9G 7
  20870504.568    20870508.670     5832383.102 8 -19827406.649 8
  21234474.553    21234480.028    33288917.258 9 -42644939.763 9
  22710811.358    22710818.449    72949440.637 8 -99563277.979 8
  25530122.846    25530129.242   -12499792.657 9  10527474.655 8
 86  6 13  3 35 23.0800000  0  4G12G13G 9G 7
  20870627.398    20870632.927     5833029.279 9 -19826903.135 8
  21235980.421    21235985.047    33296828.670 9 -42638775.026 9
  22715175.661    22715182.058    72972370.535 9 -99545410.522 8
  25526849.776    25526856.644   -12516993.001 9  10514071.788 9
 86  6 13  3 35 29.0800000  0  4G12G13G 9G 7
  20870754.557    20870761.771     5833701.790 9 -19826379.105 8
  21237487.204    21237491.706    33304746.121 9 -42632605.583 9
  22719540.716    22719547.421    72995311.079 9 -99527534.777 9
  25523579.537    25523585.792   -12534180.971 9  10500678.589 8
 86  6 13  3 35 35.0800000  0  4G12G13G 9G 7
  20870887.675    20870894.233     5834400.689 8 -19825834.500 9
  21238994.229    21238999.776    33312669.725 9 -42626431.355 8
  22723908.797    22723915.553    73018262.262 9 -99509650.741 8
  25520310.575    25520316.426   -12551358.609 9  10487293.410 9
 86  6 13  3 35 41.0800000  0  4G12G13G 9G 7
  20871027.164    20871031.122     5835125.973 8 -19825269.362 7
  21240503.372    21240508.160    33320599.332 9 -42620252.436 9
  22728277.804    22728284.175    73041224.130 3 -99491758.381 4
  25517044.913    25517049.613   -12568526.167 9  10473916.086 8
 86  6 13  3 35 47.0800000  0  4G12G13G 9G 7
  20871169.075    20871175.779     5835877.604 8 -19824683.675 8
  21242012.751    21242018.633    33328535.067 9 -42614068.757 9
  22732650.867    22732656.119    73064196.675 5 -99473857.691 4
                  25513786.084                    10460549.098 9
 86  6 13  3 35 53.0800000  0  4G12G13G 9G 7
  20871317.167    20871323.847     5836655.567 9 -19824077.474 8
  21243524.573    21243529.849    33336476.819 9 -42607880.376 9
  22737023.069    22737030.465    73087179.858 5 -99455948.738 6
                  25510525.088                    10447198.017 8
 86  6 13  3 35 59.0800000  0  4G12G13G 9G 7
  20871470.551    20871476.722     5837459.870 9 -19823450.745 8
  21245036.046    21245042.115    33344424.555 9 -42601687.337 8
  22741398.244    22741403.928    73110173.614 5 -99438031.522 5
  25507265.023    25507270.856   -12639039.991 9  10433867.396 8
 86  6 13  3 36  5.0800000  0  4G12G13G 9G 7
  20871628.941    20871632.779     5838290.448 9 -19822803.541 8
  21246550.223    21246554.904    33352378.237 9 -42595489.667 8
  22745776.588    22745780.824    73133177.832 5 -99420106.166 5
  25504013.718    25504019.476   -12656120.542 8  10420557.864 8
 86  6 13  3 36 11.0800000  0  4G12G13G 9G 7
  20871790.682    20871798.147     5839147.272 8 -19822135.885 8
  21248065.174    21248068.916    33360337.768 9 -42589287.437 9
  22750157.461    22750161.957    73156192.432 4 -99402172.695 3
  25500768.024    25500773.128   -12673177.620 9  10407266.638 8
 86  6 13  3 36 17.0800000  0  4G12G13G 9G 7
  20871959.130    20871964.914     5840030.342 9 -19821447.784 9
  21249580.918    21249585.606    33368303.172 9 -42583080.622 8
  22754538.994    22754543.057    73179217.515 4 -99384231.077 4
  25497524.800    25497531.593   -12690215.993 9  10393989.992 8
 86  6 13  3 36 23.0800000  0  4G12G13G 9G 7
  20872131.915    20872137.413     5840939.707 9 -19820739.194 8
  21251097.556    21251102.530    33376274.467 9 -42576869.223 9
  22758922.127    22758926.822    73202253.071 6 -99366281.303 5
  25494285.246    25494291.662   -12707239.399 9  10380724.999 9
 86  6 13  3 36 29.0800000  0  4G12G13G 9G 7
  20872309.715    20872316.255     5841875.452 9 -19820010.036 7
  21252615.997    21252620.806    33384251.625 9 -42570653.263 8
  22763307.197    22763312.146    73225299.022 8 -99348323.430 8
  25491048.866    25491054.458   -12724250.510 8  10367469.594 8
 86  6 13  3 36 35.0800000  0  4G12G13G 9G 7
  20872493.195    20872500.226     5842837.594 9 -19819260.316 7
  21254133.744    21254139.853    33392234.722 9 -42564432.668 8
  22767694.268    22767698.671    73248355.347 8 -99330357.465 9
  25487814.116    25487820.180   -12741251.053 9  10354222.419 8
 86  6 13  3 36 41.0800000  0  4G12G13G 9G 7
  20872681.400    20872686.952     5843826.074 8 -19818490.089 8
  21255654.080    21255660.740    33400223.756 9 -42558207.455 9
  22772083.613    22772089.655    73271421.980 8 -99312383.467 9
  25484580.740    25484586.475   -12758241.191 8  10340983.351 9
 86  6 13  3 36 47.0800000  0  4G12G13G 9G 7
  20872874.926    20872879.967     5844840.796 9 -19817699.377 8
  21257174.552    21257181.419    33408218.662 9 -42551977.661 9
  22776473.986    22776480.323    73294499.021 8 -99294401.369 8
  25481350.741    25481356.290   -12775217.407 9  10327755.133 9
 86  6 13  3 36 53.0800000  0  4G12G13G 9G 7
  20873073.964    20873079.580     5845881.860 8 -19816888.165 8
  21258697.114    21258703.939    33416219.448 9 -42545743.289 9
  22780868.649    22780875.134    73317586.356 8 -99276411.249 8
                  25478129.239                    10314543.356 8
 86  6 13  3 36 59.0800000  0  4G12G13G 9G 7
  20873276.371    20873281.639     5846949.161 8 -19816056.507 8
  21260219.612    21260227.520    33424226.099 9 -42539504.341 9
  22785262.823    22785269.466    73340683.866 8 -99258413.184 8
  25474902.773    25474907.439   -12828401.889 8  10301352.431 9
 86  6 13  3 37  5.0800000  0  4G12G13G 9G 7
  20873483.501    20873490.254     5848042.804 8 -19815204.312 8
  21261744.142    21261751.524    33432238.597 9 -42533260.849 9
  22789660.309    22789666.967    73363791.625 8 -99240407.145 8
  25471685.567    25471692.420   -12845303.177 9  10288182.593 8
 86  6 13  3 37 11.0800000  0  4G12G13G 9G 7
  20873696.078    20873702.446     5849162.778 8 -19814331.621 7
  21263269.747    21263276.936    33440256.896 9 -42527012.831 8
  22794058.416    22794065.361    73386909.645 7 -99222393.106 8
  25468474.083    25468480.608   -12862181.051 9  10275031.006 9
 86  6 13  3 37 17.0800000  0  4G12G13G 9G 7
  20873913.229    20873920.365     5850309.076 8 -19813438.403 8
  21264797.402    21264805.071    33448280.991 8 -42520760.294 8
  22798459.800    22798465.649    73410037.835 2 -99204371.149 2
  25465266.187    25465272.684   -12879040.206 9  10261894.003 9
 86  6 13  3 37 23.0800000  0  4G12G13G 9G 7
  20874137.543    20874145.207     5851481.737 9 -19812524.640 8
  21266325.571    21266330.529    33456310.863 8 -42514503.259 8
  22802863.622    22802872.224    73433176.156 3 -99186341.287 2
  25462060.030    25462067.962   -12895884.374 9  10248768.686 8
 86  6 13  3 37 29.0800000  0  4G12G13G 9G 7
  20874366.310    20874372.572     5852680.730 9 -19811590.357 8
  21267855.431    21267861.366    33464346.636 9 -42508241.625 8
  22807269.712    22807275.705    73456324.675 3 -99168303.474 2
  25458856.584    25458864.044   -12912716.057 8  10235653.088 8
 86  6 13  3 37 35.0800000  0  4G12G13G 9G 7
  20874598.923    20874605.399     5853906.072 9 -19810635.542 8
  21269385.371    21269391.118    33472388.274 9 -42501975.405 9
  22811674.514    22811680.845    73479483.320 3 -99150257.776 3
  25455657.208    25455663.428   -12929536.944 8  10222545.904 9
 86  6 13  3 37 41.0800000  0  4G12G13G 9G 7
  20874838.139    20874843.071     5855157.825 9 -19809660.146 8
  21270917.807    21270921.930    33480435.678 9 -42495704.705 8
  22816084.203    22816090.883    73502652.225 1 -99132204.104 1
  25452458.652    25452464.653   -12946346.949 9  10209447.210 9
 86  6 13  3 37 47.0800000  0  4G12G13G 9G 7
  20875080.823    20875086.301     5856435.913 9 -19808664.232 8
  21272449.806    21272454.487    33488488.877 9 -42489429.480 8
  22820494.641    22820500.459    73525831.134 1 -99114142.636 1
                  25449269.237                    10196359.908 8
 86  6 13  3 37 53.0800000  0  4G12G13G 9G 7
  20875329.470    20875334.798     5857740.377 7 -19807647.775 9
  21273984.332    21273988.755    33496547.930 9 -42483149.690 8
  22824907.540    22824915.733    73549020.148 2 -99096073.261 1
  25446053.745    25446075.670   -12999395.085 9  10183289.596 8
 86  6 13  3 37 59.0800000  0  4G12G13G 9G 7
  20875582.532    20875588.612     5859071.291 8 -19806610.711 8
  21275518.776    21275522.893    33504612.790 9 -42476865.370 9
  22829324.757    22829329.317    73572219.295 3 -99077996.022 1
  25442882.878    25442888.761   -13016141.398 8  10170240.766 8
 86  6 13  3 38  5.0800000  0  4G12G13G 9G 7
  20875840.164    20875846.819     5860428.620 8 -19805553.041 8
  21277054.742    21277059.069    33512683.434 9 -42470576.556 9
  22833739.547    22833746.215    73595428.437 8 -99059910.979 8
  25439701.387    25439709.106   -13032859.728 8  10157213.105 8
 86  6 13  3 38 11.0800000  0  4G12G13G 9G 7
  20876103.477    20876110.471     5861812.405 9 -19804474.764 7
  21278592.459    21278597.073    33520759.815 9 -42464283.260 9
  22838157.252    22838164.287    73618647.551 8 -99041818.163 8
  25436523.687    25436531.894   -13049555.146 8  10144203.700 9
 86  6 13  3 38 17.0800000  0  4G12G13G 9G 7
  20876371.555    20876378.139     5863222.605 8 -19803375.914 9
  21280130.249    21280134.653    33528842.021 9 -42457985.436 9
  22842578.672    22842584.065    73641876.697 8 -99023717.535 8
  25433350.580    25433358.316   -13066231.868 7  10131208.849 8
 86  6 13  3 38 23.0800000  0  4G12G13G 9G 7
  20876645.402    20876652.532     5864659.134 8 -19802256.548 8
  21281669.282    21281673.988    33536930.016 9 -42451683.106 8
  22847001.121    22847006.415    73665115.855 9 -99005609.088 8
  25430179.521    25430186.911   -13082893.618 8  10118225.687 8
 86  6 13  3 38 29.0800000  0  4G12G13G 9G 7
  20876922.899    20876929.696     5866121.963 9 -19801116.689 8
  21283209.866    21283214.140    33545023.724 9 -42445376.331 9
  22851424.794    22851430.681    73688364.845 8 -98987492.991 8
  25427012.368    25427018.801   -13099542.779 8  10105252.312 8
 86  6 13  3 38 35.0800000  0  4G12G13G 9G 7
  20877206.736    20877213.636     5867611.146 9 -19799956.287 7
  21284751.736    21284756.877    33553123.118 9 -42439065.115 9
  22855850.877    22855856.615    73711623.766 9 -98969369.156 8
  25423845.914    25423853.321   -13116181.029 8  10092287.444 8
 86  6 13  3 38 41.0800000  0  4G12G13G 9G 7
  20877495.298    20877501.054     5869126.680 8 -19798775.347 8
  21286293.974    21286298.320    33561228.178 9 -42432749.484 9
  22860278.548    22860284.549    73734892.533 8 -98951237.652 8
  25420683.383    25420689.816   -13132808.066 8  10079331.318 9
 86  6 13  3 38 47.0800000  0  4G12G13G 9G 7
  20877789.331    20877794.130     5870668.567 8 -19797573.875 8
  21287836.092    21287842.441    33569338.858 9 -42426429.479 9
  22864708.404    22864715.842    73758171.061 8 -98933098.547 8
                  25417527.511                    10066387.194 8
 86  6 13  3 38 53.0800000  0  4G12G13G 9G 7
  20878088.094    20878092.696     5872236.693 8 -19796351.965 7
  21289380.990    21289387.179    33577455.166 9 -42420105.091 9
  22869140.776    22869147.138    73781459.338 1 -98914951.850 1
  25414356.981    25414371.662   -13185691.153 9  10053460.586 8
 86  6 13  3 38 59.0800000  0  4G12G13G 9G 7
  20878391.752    20878396.520     5873831.107 8 -19795109.560 7
  21290926.349    21290932.071    33585576.979 9 -42413776.405 9
  22873572.574    22873579.811    73804757.213 1 -98896797.659 1
  25411213.199    25411219.710   -13202252.595 8  10040555.700 9
 86  6 13  3 39  5.0800000  0  4G12G13G 9G 7
  20878699.420    20878704.400     5875451.776 9 -19793846.699 8
  21292473.007    21292478.881    33593704.357 9 -42407443.385 9
  22878007.628    22878013.372    73828064.742 1 -98878635.955 1
  25408067.559    25408073.615   -13218786.807 8  10027671.904 9
 86  6 13  3 39 11.0800000  0  4G12G13G 9G 7
  20879012.393    20879017.744     5877098.619 8 -19792563.450 7
  21294021.713    21294026.256    33601837.154 9 -42401106.142 9
  22882444.697    22882451.600    73851381.842 1 -98860466.790 1
  25404924.355    25404931.211   -13235298.447 8  10014806.066 9
 86  6 13  3 39 17.0800000  0  4G12G13G 9G 7
  20879331.569    20879336.410     5878771.685 8 -19791259.773 8
  21295569.869    21295573.914    33609975.416 9 -42394764.633 9
  22886884.234    22886888.362    73874708.406 1 -98842290.248 1
  25401786.456    25401792.105   -13251791.181 8  10001954.602 8
 86  6 13  3 39 23.0800000  0  4G12G13G 9G 7
  20879653.354    20879659.899     5880470.991 8 -19789935.627 7
  21297119.633    21297123.166    33618119.179 9 -42388418.848 8
  22891326.151    22891329.677    73898044.479 5 -98824106.293 1
  25398651.514    25398657.972   -13268268.969 8   9989114.787 8
 86  6 13  3 39 29.0800000  0  4G12G13G 9G 7
  20879982.330    20879988.022     5882196.507 8 -19788591.073 8
  21298669.351    21298675.171    33626268.370 9 -42382068.821 9
  22895766.235    22895772.766    73921390.115 1 -98805914.900 1
  25395518.334    25395524.698   -13284734.239 8   9976284.707 9
 86  6 13  3 39 35.0800000  0  4G12G13G 9G 7
  20880315.589    20880321.711     5883948.250 8 -19787226.086 8
  21300222.046    21300226.000    33634423.083 9 -42375714.496 9
  22900209.816    22900215.309    73944745.304 1 -98787716.059 1
  25392388.368    25392394.108   -13301188.584 9   9963463.141 9
 86  6 13  3 39 41.0800000  0  4G12G13G 9G 7
  20880654.588    20880660.865     5885726.300 9 -19785840.595 8
  21301773.021    21301779.164    33642583.374 9 -42369355.826 8
  22904658.135    22904664.862    73968109.967 8 -98769509.837 8
  25389258.220    25389265.366   -13317631.422 9   9950650.550 9
 86  6 13  3 39 47.0800000  0  4G12G13G 9G 7
  20880998.058    20881004.176     5887530.640 8 -19784434.617 7
  21303326.383    21303333.458    33650749.195 9 -42362992.857 9
  22909106.691    22909113.057    73991484.164 9 -98751296.186 9
                  25386138.878                     9937850.662 9
 86  6 13  3 39 53.0800000  0  4G12G13G 9G 7
  20881346.169    20881352.253     5889361.391 8 -19783008.060 8
  21304881.187    21304888.661    33658920.574 8 -42356625.539 8
  22913557.292    22913562.825    74014867.924 9 -98733075.072 7
  25383010.003    25383017.315   -13370316.112 9   9925069.005 8
 86  6 13  3 39 59.0800000  0  4G12G13G 9G 7
  20881699.862    20881705.816     5891218.580 9 -19781560.892 8
  21306436.768    21306445.193    33667097.563 9 -42350253.873 9
  22918009.055    22918014.458    74038261.293 9 -98714846.468 9
  25379894.005    25379901.746   -13386690.735 8   9912309.531 9
 86  6 13  3 40  5.0800000  0  4G12G13G 9G 7
  20882056.699    20882064.168     5893102.214 9 -19780093.132 8
  21307994.467    21308001.813    33675280.153 8 -42343877.827 8
  22922462.140    22922468.187    74061664.152 9 -98696610.477 9
  25376783.116    25376790.642   -13403038.056 8   9899571.371 9
 86  6 13  3 40 11.0800000  0  4G12G13G 9G 7
  20882421.617    20882426.443     5895012.223 9 -19778604.822 8
  21309552.007    21309559.727    33683468.232 9 -42337497.506 8
  22926917.923    22926923.204    74085076.485 8 -98678367.118 9
  25373677.762    25373683.717   -13419362.162 9   9886851.293 9
 86  6 13  3 40 17.0800000  0  4G12G13G 9G 7
  20882789.504    20882795.081     5896948.549 8 -19777095.983 8
  21311110.599    21311120.006    33691661.779 9 -42331112.934 9
  22931372.833    22931379.400    74108498.241 8 -98660116.399 9
  25370574.601    25370580.597   -13435667.797 8   9874145.610 9
 86  6 13  3 40 23.0800000  0  4G12G13G 9G 7
  20883163.039    20883168.207     5898911.286 8 -19775566.588 8
  21312671.261    21312679.294    33699860.894 9 -42324724.019 9
  22935831.663    22935838.647    74131929.423 9 -98641858.329 8
  25367474.329    25367480.854   -13451958.397 8   9861451.637 9
 86  6 13  3 40 29.0800000  0  4G12G13G 9G 7
  20883542.502    20883547.250     5900900.306 8 -19774016.709 8
  21314231.642    21314239.889    33708065.550 9 -42318330.781 9
  22940294.080    22940300.589    74155369.918 1 -98623593.024 1
  25364376.735    25364383.054   -13468236.098 8   9848767.719 9
 86  6 13  3 40 35.0800000  0  4G12G13G 9G 7
  20883925.502    20883931.668     5902915.681 8 -19772446.278 8
  21315794.813    21315802.333    33716275.652 9 -42311933.306 9
  22944755.609    22944758.901    74178819.791 1 -98605320.399 1
  25361280.873    25361287.593   -13484502.639 7   9836092.505 9
 86  6 13  3 40 41.0800000  0  4G12G13G 9G 7
  20884315.458    20884320.783     5904957.422 9 -19770855.329 7
  21317359.044    21317365.828    33724491.145 9 -42305531.621 8
  22949219.127    22949226.321    74202278.971 1 -98587040.530 1
  25358187.397    25358194.261   -13500757.286 7   9823426.547 8
 86  6 13  3 40 47.0800000  0  4G12G13G 9G 7
  20884707.651    20884713.698     5907025.416 9 -19769243.887 8
  21318924.706    21318929.958    33732711.993 9 -42299125.768 9
  22953686.930    22953688.376    74225747.339 1 -98568753.492 1
                  25355104.634                     9810773.829 8
 86  6 13  3 40 53.0800000  0  4G12G13G 9G 7
  20885106.599    20885111.150     5909119.837 9 -19767611.882 8
  21320489.974    21320495.647    33740938.257 9 -42292715.688 9
  22958155.388    22958157.029    74249224.978 1 -98550459.239 1
  25352011.038    25352018.310   -13553250.025 8   9798139.887 9
 86  6 13  3 40 59.0800000  0  4G12G13G 9G 7
  20885509.853    20885515.208     5911240.651 8 -19765959.293 8
  21322057.297    21322061.854    33749169.922 9 -42286301.395 8
  22962623.547    22962627.055    74272711.851 1 -98532157.781 1
  25348933.355    25348938.257   -13569434.908 8   9785528.293 8
 86  6 13  3 41  5.0800000  0  4G12G13G 9G 7
  20885918.528    20885924.693     5913387.691 8 -19764286.292 8
  21323625.219    21323628.217    33757406.990 9 -42279882.891 9
  22967093.773    22967096.581    74296207.819 1 -98513849.225 1
  25345859.717    25345863.348   -13585592.078 9   9772937.891 8
 86  6 13  3 41 11.0800000  0  4G12G13G 9G 7
  20886331.263    20886338.988     5915560.915 9 -19762592.876 8
  21325194.308    21325196.583    33765649.348 9 -42273460.274 8
  22971565.198    22971572.101    74319712.861 1 -98495533.595 1
  25342788.621    25342792.986   -13601726.875 8   9760365.324 8
 86  6 13  3 41 17.0800000  0  4G12G13G 9G 7
  20886750.608    20886755.430     5917760.314 9 -19760879.051 8
  21326763.454    21326765.747    33773896.844 9 -42267033.638 8
  22976040.296    22976046.900    74343226.874 7 -98477211.020 8
  25339721.096    25339726.560   -13617843.339 9   9747807.006 8
 86  6 13  3 41 23.0800000  0  4G12G13G 9G 7
  20887174.841    20887179.680     5919985.865 8 -19759144.862 9
  21328333.828    21328336.065    33782149.549 9 -42260602.947 8
  22980517.093    22980522.988    74366749.768 9 -98458881.507 9
  25336657.296    25336661.963   -13633944.851 9   9735260.377 8
 86  6 13  3 41 29.0800000  0  4G12G13G 9G 7
  20887603.100    20887608.653     5922237.552 8 -19757390.293 8
  21329904.386    21329907.394    33790407.403 9 -42254168.249 9
  22984995.153    22985001.578    74390281.675 9 -98440544.958 8
  25333596.003    25333600.081   -13650033.649 9   9722723.646 8
 86  6 13  3 41 35.0800000  0  4G12G13G 9G 7
  20888035.300    20888042.475     5924515.458 9 -19755615.305 8
  21331477.156    21331481.180    33798670.463 9 -42247729.496 8
  22989475.455    22989481.359    74413822.434 9 -98422201.515 8
  25330536.411    25330541.118   -13666111.020 9   9710195.822 8
 86  6 13  3 41 41.0800000  0  4G12G13G 9G 7
  20888473.801    20888480.537     5926819.656 8 -19753819.812 8
  21333049.940    21333054.545    33806938.866 9 -42241286.580 8
  22993956.813    22993962.397    74437372.234 9 -98403851.024 9
  25327479.382    25327484.534   -13682175.920 9   9697677.714 9
 86  6 13  3 41 47.0800000  0  4G12G13G 9G 7
  20888917.501    20888922.588     5929150.223 8 -19752003.801 7
  21334624.276    21334628.905    33815212.652 9 -42234839.467 9
  22998440.186    22998445.194    74460931.071 8 -98385493.484 8
                  25324431.110                     9685173.536 8
 86  6 13  3 41 53.0800000  0  4G12G13G 9G 7
  20889365.912    20889372.515     5931507.227 9 -19750167.156 8
  21336200.691    21336205.241    33823491.857 9 -42228388.141 9
  23002924.515    23002930.534    74484499.012 8 -98367128.851 8
  25321287.576    25321382.822   -13734481.709 9   9672688.772 8
 86  6 13  3 41 59.0800000  0  4G12G13G 9G 7
  20889820.497    20889825.890     5933890.622 8 -19748309.959 8
  21337776.578    21337781.701    33831776.466 9 -42221932.603 8
  23007410.853    23007416.607    74508075.996 9 -98348757.185 8
  25318334.190    25318338.829   -13750474.575 9   9660226.685 9
 86  6 13  3 42  5.0800000  0  4G12G13G 9G 7
  20890279.152    20890285.082     5936300.414 8 -19746432.218 8
  21339354.753    21339360.484    33840066.457 9 -42215472.866 8
  23011896.855    23011901.827    74531662.080 1 -98330378.444 1
  25315294.943    25315301.370   -13766440.768 9   9647785.882 8
 86  6 13  3 42 11.0800000  0  4G12G13G 9G 7
  20890742.094    20890748.532     5938736.597 9 -19744533.889 8
  21340932.339    21340938.065    33848361.865 9 -42209008.913 9
  23016389.471    23016391.862    74555257.117 1 -98311992.684 1
  25312261.474    25312266.479   -13782383.398 9   9635363.064 9
 86  6 13  3 42 17.0800000  0  4G12G13G 9G 7
  20891210.733    20891218.425     5941199.128 8 -19742615.036 8
  21342511.616    21342518.300    33856662.586 9 -42202540.830 9
  23020880.705    23020885.685    74578860.997 1 -98293600.055 1
  25309231.777    25309236.813   -13798307.584 9   9622954.606 9
 86  6 13  3 42 23.0800000  0  4G12G13G 9G 7
  20891684.284    20891690.535     5943687.953 8 -19740675.704 7
  21344092.354    21344098.214    33864968.478 9 -42196068.724 9
  23025374.245    23025381.057    74602473.816 1 -98275200.445 1
  25306203.391    25306208.997   -13814216.576 9   9610557.988 9
 86  6 13  3 42 29.0800000  0  4G12G13G 9G 7
  20892162.924    20892170.337     5946203.075 8 -19738715.860 8
  21345672.503    21345681.133    33873279.633 8 -42189592.498 9
                  23029873.449    74626095.494 1
  25303178.657    25303185.255   -13830112.579 8   9598171.489 9
 86  6 13  3 42 35.0800000  0  4G12G13G 9G 7
  20892647.033    20892652.181     5948744.528 8 -19736735.511 8
  21347254.657    21347263.266    33881596.002 8 -42183112.212 9
                  23034365.091    74649725.892 1
  25300156.846    25300161.698   -13845996.827 9   9585794.161 9
 86  6 13  3 42 41.0800000  0  4G12G13G 9G 7
  20893135.366    20893141.327     5951312.310 8 -19734734.643 8
  21348838.161    21348846.856    33889917.679 9 -42176627.801 9
  23038866.930    23038859.718    74673365.107 1 -98165318.770 1
  25297136.405    25297142.429   -13861868.038 9   9573426.996 8
 86  6 13  3 42 47.0800000  0  4G12G13G 9G 7
  20893628.306    20893634.098     5953906.504 9 -19732713.185 8
  21350423.148    21350430.941    33898244.639 9 -42170139.258 9
                  23043363.165    74697013.180 1
                  25294125.110                     9561074.268 9
 86  6 13  3 42 53.0800000  0  4G12G13G 9G 7
  20894127.034    20894133.259     5956527.150 8 -19730671.129 8
  21352008.695    21352016.624    33906576.835 9 -42163646.655 9
  23047863.600    23047870.029    74720669.965 1 -98100922.968 1
  25291108.080    25291113.438   -13913996.674 8   9548741.562 9
 86  6 13  3 42 59.0800000  0  4G12G13G 9G 7
  20894630.658    20894638.120     5959174.150 9 -19728608.532 7
  21353594.967    21353603.250    33914914.214 9 -42157149.992 9
  23052375.883    23052377.642    74744335.615 1 -98082482.342 1
  25288101.874    25288107.570   -13929794.269 9   9536431.757 9
 86  6 13  3 43  5.0800000  0  4G12G13G 9G 7
  20895139.264    20895146.103     5961847.474 9 -19726525.422 8
  21355182.414    21355189.659    33923256.794 9 -42150649.277 8
  23056879.904    23056881.343    74768009.943 1 -98064034.298 1
  25285100.110    25285107.148   -13945564.581 9   9524143.207 9
 86  6 13  3 43 11.0800000  0  4G12G13G 9G 7
  20895653.573    20895660.552     5964546.999 9 -19724421.905 8
  21356770.508    21356778.094    33931604.566 9 -42144144.527 8
  23061383.087    23061386.834    74791692.878 1 -98045580.062 1
  25282103.662    25282109.652   -13961312.083 9   9511872.443 9
 86  6 13  3 43 17.0800000  0  4G12G13G 9G 7
  20896172.026    20896179.444     5967272.701 8 -19722297.976 8
  21358361.563    21358367.358    33939957.392 8 -42137635.835 8
  23065891.576    23065895.021    74815384.338 1 -98027119.179 1
  25279111.046    25279117.093   -13977041.265 9   9499615.936 9
 86  6 13  3 43 23.0800000  0  4G12G13G 9G 7
  20896696.742    20896701.811     5970024.590 9 -19720153.654 8
  21359951.715    21359958.426    33948315.273 9 -42131123.200 8
  23070398.517    23070414.460    74839084.221 1 -98008651.775 1
  25276120.531    25276126.061   -13992755.150 9   9487371.362 8
 86  6 13  3 43 29.0800000  0  4G12G13G 9G 7
  20897224.215    20897231.205     5972802.570 9 -19717988.993 7
  21361544.106    21361549.063    33956678.121 9 -42124606.692 9
                  23074945.806                   -97989907.497 5
  25273132.079    25273138.104   -14008456.206 9   9475136.784 9
 86  6 13  3 43 35.0800000  0  4G12G13G 9G 7
  20897757.667    20897764.541     5975606.716 8 -19715803.945 8
  21363136.516    21363140.367    33965046.012 9 -42118086.258 8
                  22705245.321                   -17962811.128 8
  25270147.302    25270153.488   -14024145.409 8   9462911.441 9
 86  6 13  3 43 41.0800000  0  4G12G13G 9G 7
  20898296.536    20898303.539     5978437.051 8 -19713598.485 7
  21364730.424    21364734.305    33973418.920 9 -42111561.907 8
                  22709822.527                   -17984289.136 8
  25267163.494    25267170.934   -14039821.219 9   9450696.533 9
 86  6 13  3 43 47.0800000  0  4G12G13G 9G 7
  20898840.114    20898845.785     5981293.640 5 -19711372.582 8
  21366324.702    21366327.528    33981796.904 9 -42105033.596 8
                  22788868.299                   -17960261.587 8
                  25264185.411   -14055477.741 8
 86  6 13  3 43 53.0800000  0  4G12G13G 9G 7
  20899389.723    20899393.567     5984176.410 5 -19709126.264 7
  21367920.526    21367923.951    33990179.884 7 -42098501.417 6
                  22793182.211                   -17936521.967 8
  25261209.681    25261214.905   -14071108.190 7   9484824.075 1
 86  6 13  3 43 59.0800000  0  4G12G13G 9G 7
  20899943.003    20899948.008     5987085.454 9 -19706859.486 7
  21369516.711    21369519.690    33998567.784 9 -42091965.380 8
                  22797700.735                   -17912771.701 9
  25258241.887    25258247.143   -14086709.259 9   9472667.392 8
 86  6 13  3 44  5.0800000  0  4G12G13G 9G 7
  20900501.356    20900507.172     5990020.607 9 -19704572.345 7
  21371113.600    21371116.905    34006960.538 9 -42085425.564 9
                  23102019.517                   -17889013.232 9
  25255277.947    25255283.627   -14102283.213 9   9460531.831 7
 86  6 13  3 44 11.0800000  0  4G12G13G 9G 7
  20901065.344    20901071.363     5992981.928 9 -19702264.819 8
  21372711.896    21372714.955    34015358.224 9 -42078881.898 9
                  23106541.146                   -17865246.577 9
  25252318.713    25252323.593   -14117834.472 9   9448413.966 9
 86  6 13  3 44 17.0800000  0  4G12G13G 9G 7
  20901634.486    20901640.026     5995969.374 8 -19699936.948 7
  21374311.232    21374312.949    34023760.903 9 -42072334.356 9
                  23111059.939                   -17841471.877 7
  25249362.762    25249368.737   -14133367.532 9   9436310.272 9
 86  6 13  3 44 23.0800000  0  4G12G13G 9G 7
  20902207.121    20902213.498     5998983.008 9 -19697588.665 7
  21375911.688    21375913.604    34032168.582 9 -42065782.913 9
  23115585.010    23115590.993   -17817688.600 8  23108263.318 2
  25246409.875    25246415.786   -14148885.284 9   9424218.504 9
 86  6 13  3 44 29.0800000  0  4G12G13G 9G 7
  20902786.068    20902791.822     6002022.943 9 -19695219.878 8
  21377511.540    21377514.573    34040581.310 9 -42059227.527 9
  23120113.904    23120118.704   -17793897.027 8  23126802.206 8
  25243458.811    25243464.850   -14164389.703 9   9412137.146 8
 86  6 13  3 44 35.0800000  0  4G12G13G 9G 7
  20903369.121    20903375.792     6005089.308 9 -19692830.510 7
  21379113.497    21379116.603    34048999.173 9 -42052668.160 8
  23124642.586    23124648.044   -17770097.106 8  23145347.578 7
  25240510.552    25240518.067   -14179881.803 9   9400065.393 9
 86  6 13  3 44 41.0800000  0  4G12G13G 9G 7
  20903957.440    20903963.954     6008182.095 9 -19690420.548 7
  21380715.384    21380719.575    34057422.217 9 -42046104.741 8
  23129173.744    23129177.498   -17746288.847 8  23163899.461 7
  25237564.970    25237571.901   -14195359.872 9   9388004.557 9
 86  6 13  3 44 47.0800000  0  4G12G13G 9G 7
  20904551.422    20904557.098     6011301.270 9 -19687990.018 8
  21382318.385    21382322.805    34065850.406 9 -42039537.326 9
  23133706.047    23133710.672   -17722472.154 8  23182457.920 7
                  25234630.234                     9375959.357 9
 86  6 13  3 44 53.0800000  0  4G12G13G 9G 7
  20905149.607    20905155.743     6014446.715 8 -19685539.011 8
  21383923.451    21383928.336    34074283.646 9 -42032965.973 8
  23138238.679    23138244.811   -17698647.247 8  23201022.781 8
  25231687.841    25231693.666   -14247050.369 9   9363935.233 8
 86  6 13  3 44 59.0800000  0  4G12G13G 9G 7
  20905752.652    20905758.479     6017618.490 8 -19683067.507 8
  21385529.381    21385533.934    34082721.957 9 -42026390.665 9
  23142774.300    23142779.382   -17674814.168 8  23219594.023 6
  25228756.873    25228763.312   -14262451.499 8   9351934.363 9
 86  6 13  3 45  5.0800000  0  4G12G13G 9G 7
  20906362.450    20906367.535     6020816.499 8 -19680575.546 7
  21387134.879    21387140.557    34091165.242 9 -42019811.483 8
  23147310.653    23147316.528   -17650972.799 8  23238171.705 7
  25225830.286    25225837.912   -14277824.889 8   9339954.712 9
 86  6 13  3 45 11.0800000  0  4G12G13G 9G 7
  20906974.857    20906980.541     6024040.754 9 -19678063.151 9
  21388743.161    21388749.281    34099613.423 9 -42013228.485 9
  23151850.988    23151854.472   -17627123.446 7  23256755.616 7
  25222909.908    25222916.722   -14293176.081 9   9327992.761 9
 86  6 13  3 45 17.0800000  0  4G12G13G 9G 7
  20907593.035    20907599.189     6027291.230 9 -19675530.310 8
  21390351.693    21390358.027    34108066.606 9 -42006641.602 8
  23156390.087    23156395.281   -17603266.062 8  23275345.789 7
  25219992.036    25219999.361   -14308508.820 8   9316045.176 9
 86  6 13  3 45 23.0800000  0  4G12G13G 9G 7
  20908217.072    20908222.702     6030567.944 8 -19672977.026 8
  21391961.640    21391968.154    34116524.673 9 -42000050.904 9
  23160930.342    23160935.543   -17579400.567 9  23293942.275 7
  25217077.840    25217084.380   -14323826.264 9   9304109.527 8
 86  6 13  3 45 29.0800000  0  4G12G13G 9G 7
  20908844.574    20908850.911     6033870.835 8 -19670403.339 9
  21393571.970    21393578.577    34124987.580 8 -41993456.422 8
  23165474.636    23165479.434   -17555527.129 8  23312544.953 8
  25214165.086    25214172.086   -14339130.464 8   9292184.201 9
 86  6 13  3 45 35.0800000  0  4G12G13G 9G 7
  20909478.092    20909484.228     6037199.949 8 -19667809.228 7
  21395183.028    21395188.961    34133455.385 9 -41986858.133 9
  23170019.116    23170022.898   -17531645.768 9  23331153.801 7
  25211254.944    25211262.401   -14354422.279 9   9280268.509 9
 86  6 13  3 45 41.0800000  0  4G12G13G 9G 7
  20910116.829    20910123.365     6040555.252 9 -19665194.705 7
  21396794.522    21396802.332    34141928.116 9 -41980256.014 8
  23174565.067    23174569.908   -17507756.376 8  23349768.895 7
  25208348.611    25208355.485   -14369699.579 9   9268364.131 9
 86  6 13  3 45 47.0800000  0  4G12G13G 9G 7
  20910760.093    20910767.598     6043936.669 8 -19662559.840 9
  21398408.144    21398414.433    34150405.727 9 -41973650.079 8
  23179111.155    23179117.470   -17483859.175 9  23368390.100 6
                  25205445.147   -14384956.223 9
 86  6 13  3 45 53.0800000  0  4G12G13G 9G 7
  20911409.403    20911415.638     6047344.268 8 -19659904.568 7
  21400022.592    21400029.227    34158888.144 9 -41967040.409 9
  23183661.557    23183665.953   -17459954.050 8  23387017.452 8
  25202547.217    25202552.628   -14400185.142 9   9302855.134 9
 86  6 13  3 45 59.0800000  0  4G12G13G 9G 7
  20912063.782    20912069.074     6050778.122 9 -19657228.839 8
  21401637.758    21401644.678    34167375.470 9 -41960426.907 8
  23188211.489    23188215.719   -17436040.947 9  23405651.047 7
  25199654.018    25199660.850   -14415384.128 9   9291011.800 9
 86  6 13  3 46  5.0800000  0  4G12G13G 9G 7
  20912722.160    20912727.830     6054238.236 9 -19654532.657 8
  21403253.408    21403260.458    34175867.666 9 -41953809.622 9
  23192764.978    23192768.218   -17412119.986 9  23424290.748 8
  25196766.874    25196774.280   -14430556.014 9   9279189.579 8
 86  6 13  3 46 11.0800000  0  4G12G13G 9G 7
  20913385.415    20913390.942     6057724.592 9 -19651816.012 7
  21404870.546    21404878.080    34184364.772 9 -41947188.501 9
  23197317.819    23197322.719   -17388191.208 7  23442936.545 7
  25193884.287    25193890.060   -14445705.208 9   9267385.023 8
 86  6 13  3 46 17.0800000  0  4G12G13G 9G 7
  20914053.762    20914058.957     6061237.176 8 -19649078.929 7
  21406487.858    21406495.594    34192866.654 9 -41940563.669 8
  23201871.612    23201876.759   -17364254.556 9  23461588.480 7
  25191005.251    25191010.650   -14460836.151 9   9255594.693 9
 86  6 13  3 46 23.0800000  0  4G12G13G 9G 7
  20914725.917    20914731.898     6064775.997 9 -19646321.404 7
  21408108.116    21408114.693    34201373.401 9 -41933935.044 8
  23206429.904    23206433.840   -17340309.941 9  23480246.634 7
  25188127.958    25188134.885   -14475951.450 9   9243816.558 8
 86  6 13  3 46 29.0800000  0  4G12G13G 9G 7
  20915403.635    20915411.141     6068341.019 8 -19643543.473 8
  21409726.454    21409734.675    34209885.037 8 -41927302.608 8
  23210987.438    23210991.460   -17316357.684 8  23498910.731 8
  25185254.477    25185260.795   -14491053.412 9   9232048.811 8
 86  6 13  3 46 35.0800000  0  4G12G13G 9G 7
  20916088.374    20916095.026     6071932.149 8 -19640745.190 8
  21411348.044    21411354.971    34218401.394 9 -41920666.497 9
  23215546.356    23215550.369   -17292397.788 8  23517580.769 7
  25182384.798    25182389.512   -14506142.726 9   9220290.902 9
 86  6 13  3 46 41.0800000  0  4G12G13G 9G 7
  20916776.561    20916782.487     6075549.386 9 -19637926.557 8
  21412970.192    21412975.680    34226922.394 9 -41914026.738 8
  23220106.931    23220112.762   -17268430.187 8  23536256.817 8
  25179516.692    25179520.203   -14521217.096 9   9208544.649 8
 86  6 13  3 46 47.0800000  0  4G12G13G 9G 7
  20917470.589    20917475.757     6079192.752 8 -19635087.579 8
  21414593.125    21414598.063    34235448.123 9 -41907383.316 9
  23224669.344    23224674.489   -17244455.010 8  23554938.762 7
                  25176651.592   -14536268.384 9
 86  6 13  3 46 53.0800000  0  4G12G13G 9G 7
  20918168.047    20918173.910     6082862.166 8 -19632228.294 7
  21416216.848    21416221.777    34243978.443 9 -41900736.313 9
  23229232.774    23229236.321   -17220472.391 8  23573626.512 7
  25173792.486    25173755.883   -14551293.690 9   9272616.907 8
 86  6 13  3 46 59.0800000  0  4G12G13G 9G 7
  20918871.495    20918877.821     6086557.557 8 -19629348.775 8
  21417841.134    21417845.655    34252513.361 8 -41894085.719 9
  23233798.558    23233802.912   -17196482.297 8  23592320.102 7
  25170939.492    25170943.813   -14566288.442 8   9260932.851 9
 86  6 13  3 47  5.0800000  0  4G12G13G 9G 7
  20919579.596    20919585.481     6090278.873 8 -19626449.046 8
  21419465.950    21419469.721    34261052.896 9 -41887431.537 9
  23238364.099    23238369.443   -17172484.751 9  23611019.479 8
  25168089.931    25168095.096   -14581256.247 9   9249269.116 8
 86  6 13  3 47 11.0800000  0  4G12G13G 9G 7
  20920292.635    20920299.013     6094026.147 8 -19623529.094 8
  21421091.145    21421096.776    34269596.964 9 -41880773.811 9
  23242932.760    23242938.350   -17148479.893 9  23629724.559 8
  25165245.780    25165250.716   -14596201.863 9   9237623.191 9
 86  6 13  3 47 17.0800000  0  4G12G13G 9G 7
  20921010.192    20921017.188     6097799.441 9 -19620588.871 8
  21422719.021    21422723.420    34278145.614 9 -41874112.530 8
  23247502.093    23247508.017   -17124467.657 8  23648435.392 7
  25162405.262    25162410.414   -14611129.231 8   9225991.480 7
 86  6 13  3 47 23.0800000  0  4G12G13G 9G 7
  20921733.625    20921739.992     6101598.715 9 -19617628.393 7
  21424345.575    21424350.461    34286698.706 9 -41867447.783 9
  23252074.015    23252079.038   -17100448.054 9  23667151.965 7
  25159567.756    25159572.465   -14626041.052 9   9214371.889 8
 86  6 13  3 47 29.0800000  0  4G12G13G 9G 7
  20922461.290    20922468.025     6105424.011 9 -19614647.654 8
  21425974.820    21425978.218    34295256.388 9 -41860779.442 8
  23256647.147    23256650.642   -17076420.999 9  23685874.341 8
  25156731.445    25156738.365   -14640939.444 9   9202762.756 9
 86  6 13  3 47 35.0800000  0  4G12G13G 9G 7
  20923194.707    20923200.478     6109275.366 9 -19611646.603 7
  21427604.279    21427607.720    34303818.702 9 -41854107.501 8
  23261218.816    23261223.818   -17052386.671 9  23704602.391 8
  25153899.306    25153905.373   -14655824.983 9   9191163.655 9
 86  6 13  3 47 41.0800000  0  4G12G13G 9G 7
  20923932.107    20923937.107     6113152.831 9 -19608625.188 7
  21429234.311    21429236.162    34312385.631 9 -41847431.972 8
  23265793.816    23265798.334   -17028344.881 8  23723336.245 6
  25151068.704    25151075.816   -14670694.969 9   9179576.679 8
 86  6 13  3 47 47.0800000  0  4G12G13G 9G 7
  20924675.140    20924681.640     6117056.423 9 -19605583.427 8
  21430864.400    21430868.127    34320957.267 9 -41840752.759 8
  23270370.689    23270375.186   -17004295.671 9  23742075.896 8
                  25148249.901                     9168007.185 8
 86  6 13  3 47 53.0800000  0  4G12G13G 9G 7
  20925422.766    20925429.666     6120986.191 9 -19602521.279 7
  21432495.276    21432500.118    34329533.666 9 -41834069.861 9
  23274948.053    23274953.687   -16980239.054 9  23760821.303 7
  25145423.571    25145430.532   -14721797.230 9   9156460.129 8
 86  6 13  3 47 59.0800000  0  4G12G13G 9G 7
  20926175.716    20926182.441     6124942.109 9 -19599438.745 7
  21434127.596    21434134.028    34338114.798 9 -41827383.270 8
  23279527.789    23279533.574   -16956175.094 9  23779572.441 7
  25142609.460    25142616.480   -14736585.552 9   9144936.790 8
 86  6 13  3 48  5.0800000  0  4G12G13G 9G 7
  20926934.278    20926939.680     6128924.185 9 -19596335.823 9
  21435762.093    21435767.336    34346700.613 9 -41820693.017 9
  23284108.322    23284113.058   -16932103.797 9  23798329.296 8
  25139801.289    25139807.414   -14751346.885 8   9133434.461 8
 86  6 13  3 48 11.0800000  0  4G12G13G 9G 7
  20927697.441    20927703.021     6132932.298 9 -19593212.619 7
  21437396.145    21437402.332    34355290.928 9 -41813999.270 8
  23288690.848    23288695.374   -16908025.259 9  23817091.793 8
  25136997.618    25137003.334   -14766085.909 9   9121949.525 9
 86  6 13  3 48 17.0800000  0  4G12G13G 9G 7
  20928465.409    20928470.545     6136966.526 9 -19590069.080 7
  21439031.471    21439037.701    34363885.802 8 -41807301.960 8
  23293273.542    23293279.102   -16883939.416 9  23835859.971 8
  25134196.085    25134202.324   -14780806.519 9   9110478.933 8
 86  6 13  3 48 23.0800000  0  4G12G13G 9G 7
  20929237.904    20929242.701     6141026.812 8 -19586905.217 7
  21440668.614    21440673.757    34372485.327 9 -41800601.036 8
  23297858.576    23297864.264   -16859846.264 9  23854633.856 7
  25131397.429    25131403.825   -14795511.404 9   9099020.589 9
 86  6 13  3 48 29.0800000  0  4G12G13G 9G 7
  20930014.743    20930019.894     6145113.269 8 -19583720.957 7
  21442305.758    21442312.103    34381089.464 8 -41793896.515 8
  23302443.942    23302449.999   -16835745.984 9  23873413.288 8
  25128601.670    25128608.317   -14810202.555 9   9087572.957 9
 86  6 13  3 48 35.0800000  0  4G12G13G 9G 7
  20930797.849    20930802.482     6149225.941 8 -19580516.292 7
  21443943.774    21443950.277    34389698.237 9 -41787188.376 8
  23307031.519    23307038.138   -16811638.469 9  23892198.362 8
  25125808.752    25125815.312   -14824880.524 9   9076135.590 8
 86  6 13  3 48 41.0800000  0  4G12G13G 9G 7
  20931583.567    20931589.319     6153364.702 9 -19577291.277 7
  21445582.763    21445589.852    34398311.556 9 -41780476.700 8
  23311621.042    23311626.044   -16787523.688 9  23910989.091 8
  25123018.788    25123025.850   -14839542.241 9   9064710.889 9
 86  6 13  3 48 47.0800000  0  4G12G13G 9G 7
  20932376.139    20932383.043     6157529.549 7 -19574045.951 9
  21447222.654    21447228.627    34406929.585 9 -41773761.356 9
  23316211.463    23316215.996   -16763401.751 9  23929785.399 8
                  25120239.442                     9053304.265 9
 86  6 13  3 48 53.0800000  0  4G12G13G 9G 7
  20933175.039    20933180.758     6161720.507 9 -19570780.266 8
  21448863.718    21448869.920    34415552.272 8 -41767042.377 9
  23320803.258    23320808.088   -16739272.697 9  23948587.259 8
  25117452.470    25117460.267   -14890441.059 9   9041920.413 9
 86  6 13  3 48 59.0800000  0  4G12G13G 9G 7
  20933977.734    20933984.373     6165937.587 9 -19567494.230 7
  21450506.542    21450512.844    34424179.537 8 -41760319.838 8
  23325396.591    23325401.188   -16715136.563 8  23967394.632 8
  25114679.090    25114684.728   -14905019.841 8   9030560.344 8
 86  6 13  3 49  5.0800000  0  4G12G13G 9G 7
  20934784.887    20934791.112     6170180.664 9 -19564187.928 7
  21452149.509    21452154.480    34432811.270 9 -41753593.807 9
  23329989.949    23329994.789   -16690993.391 9  23986207.492 8
  25111910.641    25111915.162   -14919571.669 9   9019221.266 8
 86  6 13  3 49 11.0800000  0  4G12G13G 9G 7
  20935597.621    20935602.861     6174449.846 9 -19560861.297 8
  21453792.762    21453796.718    34441447.532 9 -41746864.268 9
  23334585.060    23334590.931   -16666843.229 9  24005025.805 8
  25109146.005    25109150.319   -14934101.213 9   9007899.550 9
 86  6 13  3 49 17.0800000  0  4G12G13G 9G 7
  20936413.939    20936421.010     6178745.059 9 -19557514.394 8
  21455436.130    21455442.275    34450088.236 9 -41740131.233 8
  23339182.006    23339188.320   -16642685.966 8  24023849.622 8
  25106384.924    25106389.110   -14948612.302 9   8996592.199 9
 86  6 13  3 49 23.0800000  0  4G12G13G 9G 7
  20937237.060    20937241.553     6183066.289 9 -19554147.192 8
  21457081.430    21457087.088    34458733.371 9 -41733394.762 8
  23343780.866    23343786.514   -16618521.773 9  24042678.855 8
  25103625.611    25103630.856   -14963107.670 9   8985297.115 8
 86  6 13  3 49 29.0800000  0  4G12G13G 9G 7
  20938064.429    20938069.840     6187413.550 9 -19550759.724 7
  21458727.530    21458732.330    34467383.110 8 -41726654.702 8
  23348381.468    23348387.181   -16594350.667 9  24061513.487 8
  25100869.596    25100875.205   -14977589.178 9   8974012.833 8
 86  6 13  3 49 35.0800000  0  4G12G13G 9G 7
  20938897.091    20938901.941     6191786.888 9 -19547351.929 7
  21460374.061    21460379.547    34476037.381 9 -41719911.106 8
  23352981.054    23352986.306   -16570172.658 8  24080353.486 8
  25098115.850    25098121.509   -14992057.167 9   8962739.089 8
 86  6 13  3 49 41.0800000  0  4G12G13G 9G 7
  20939734.694    20939739.029     6196186.259 9 -19543923.856 7
  21462022.007    21462027.021    34484696.073 9 -41713164.087 8
  23357584.238    23357589.787   -16545987.657 8  24099198.941 8
  25095366.481    25095371.797   -15006508.401 9   8951478.387 8
 86  6 13  3 49 47.0800000  0  4G12G13G 9G 7
  20940575.687    20940581.322     6200611.535 9 -19540475.585 8
  21463669.940    21463675.956    34493359.146 9 -41706413.631 9
  23362186.851    23362192.797   -16521795.877 8  24118049.672 9
                  25092626.314                     8940236.169 8
 86  6 13  3 49 53.0800000  0  4G12G13G 9G 7
  20941422.048    20941428.218     6205062.797 9 -19537007.066 8
  21465319.617    21465325.719    34502026.636 9 -41699659.744 8
  23366792.276    23366797.538   -16497597.340 9  24136905.667 8
  25089881.474    25089885.853   -15057196.362 9   8929016.992 9
 86  6 13  3 49 59.0800000  0  4G12G13G 9G 7
  20942273.638    20942281.186     6209540.074 9 -19533518.278 7
  21466969.982    21466976.514    34510698.530 9 -41692902.413 8
  23371398.379    23371404.676   -16473392.016 9  24155766.957 9
  25087147.260    25087152.468   -15071563.880 9   8917821.553 9
 86  6 13  3 50  5.0800000  0  4G12G13G 9G 7
  20943130.966    20943136.367     6214043.342 9 -19530009.254 8
  21468621.063    21468628.166    34519375.002 9 -41686141.537 9
  23376007.330    23376011.896   -16449179.924 9  24174633.523 9
  25084417.509    25084422.825   -15085903.914 9   8906647.111 8
 86  6 13  3 50 11.0800000  0  4G12G13G 9G 7
  20943992.597    20943998.106     6218572.611 8 -19526479.948 8
  21470272.873    21470280.163    34528055.897 9 -41679377.187 9
  23380615.473    23380620.296   -16424961.046 9  24193505.370 8
  25081693.783    25081698.748   -15100222.157 9   8895490.045 8
 86  6 13  3 50 17.0800000  0  4G12G13G 9G 7
  20944860.046    20944865.945     6223127.827 9 -19522930.427 7
  21471925.428    21471932.159    34536741.153 9 -41672609.465 8
  23385224.829    23385229.828   -16400735.411 9  24212382.488 9
  25078972.254    25078978.034   -15114521.922 9   8884347.375 7
 86  6 13  3 50 23.0800000  0  4G12G13G 9G 7
  20945732.345    20945738.021     6227708.943 9 -19519360.725 7
  21473580.429    21473585.901    34545430.721 9 -41665838.377 9
  23389836.067    23389841.755   -16376503.192 9  24231264.743 8
  25076254.044    25076259.517   -15128805.801 9   8873217.087 7
 86  6 13  3 50 29.0800000  0  4G12G13G 9G 7
  20946608.504    20946615.293     6232316.029 9 -19515770.796 8
  21475233.942    21475240.759    34554124.621 8 -41659063.910 9
  23394449.371    23394453.085   -16352264.407 8  24250152.098 8
  25073538.867    25073542.266   -15143075.742 9   8862097.664 8
 86  6 13  3 50 35.0800000  0  4G12G13G 9G 7
  20947490.329    20947496.692     6236949.060 9 -19512160.630 7
  21476889.658    21476896.733    34562822.912 9 -41652286.024 9
  23399062.737    23399067.875   -16328018.889 8  24269044.711 8
  25070825.973    25070829.436   -15157331.737 9   8850989.092 8
 86  6 13  3 50 41.0800000  0  4G12G13G 9G 7
  20948376.587    20948383.007     6241608.088 8 -19508530.233 8
  21478545.132    21478552.364    34571525.581 9 -41645504.732 8
  23403678.825    23403682.722   -16303766.639 8  24287942.584 8
                  25068120.219                     8839894.254 8
 86  6 13  3 50 47.0800000  0  3G12G13G 9
  20949267.595    20949275.307     6246293.093 9 -19504879.574 8
  21480202.064    21480209.197    34580232.672 9 -41638719.986 9
  23408294.044    23408299.693   -16279507.815 9  24306845.534 7
 86  6 13  3 50 53.0800000  0  4G12G13G 9G 7
  20950164.570    20950170.952     6251003.994 9 -19501208.754 8
  21481860.257    21481867.002    34588944.065 9 -41631931.898 8
  23412912.146    23412916.736   -16255242.494 8  24325753.576 9
  25062712.031    25062717.168   -15222044.460 9   8817765.701 9
 86  6 13  3 50 59.0800000  0  4G12G13G 9G 7
  20951066.604    20951072.659     6255740.669 9 -19497517.842 9
  21483518.291    21483524.980    34597659.741 9 -41625140.455 9
  23417529.179    23417535.840   -16230970.822 7  24344666.547 8
  25060017.560    25060024.565   -15236197.942 9   8806737.017 8
 86  6 13  3 51  5.0800000  0  4G12G13G 9G 7
  20951972.258    20951978.102     6260503.197 9 -19493806.772 8
  21485179.060    21485184.188    34606379.574 9 -41618345.785 9
  23422150.179    23422155.402   -16206692.639 7  24363584.594 9
  25057329.528    25057335.409   -15250324.605 8   8795729.253 9
 86  6 13  3 51 11.0800000  0  4G12G13G 9G 7
  20952883.020    20952889.369     6265291.558 8 -19490075.580 8
  21486837.852    21486843.682    34615103.654 8 -41611547.806 8
  23426770.453    23426776.040   -16182408.043 8  24382507.658 9
  25054646.125    25054652.378   -15264429.131 9   8784738.730 8
 86  6 13  3 51 17.0800000  0  4G12G13G 9G 7
  20953799.097    20953805.379     6270105.813 9 -19486324.234 7
  21488497.876    21488505.123    34623832.016 9 -41604746.475 8
  23431393.148    23431398.743   -16158117.033 7  24401435.714 9
  25051965.949    25051971.323   -15278515.319 9   8773762.490 9
 86  6 13  3 51 23.0800000  0  4G12G13G 9G 7
  20954719.597    20954726.744     6274945.900 9 -19482552.732 7
  21490160.590    21490164.617    34632564.618 9 -41597941.858 8
  23436015.027    23436022.025   -16133819.712 7  24420368.657 8
  25049288.434    25049293.872   -15292585.450 9   8762798.761 8
 86  6 13  3 51 29.0800000  0  4G12G13G 9G 7
  20955647.158    20955652.402     6279811.864 9 -19478761.077 7
  21491823.890    21491828.576    34641301.443 9 -41591133.928 8
  23440640.220    23440648.928   -16109516.066 8  24439306.561 9
  25046614.253    25046619.441   -15306641.610 9   8751845.922 8
 86  6 13  3 51 35.0800000  0  4G12G13G 9G 7
  20956577.581    20956583.311     6284703.637 9 -19474949.301 7
  21493487.176    21493490.331    34650042.480 9 -41584322.735 8
  23445267.705    23445272.728   -16085206.057 8  24458249.408 9
  25043942.134    25043947.872   -15320683.467 9   8740904.211 8
 86  6 13  3 51 41.0800000  0  4G12G13G 9G 7
  20957513.620    20957519.515     6289621.253 9 -19471117.392 7
  21495151.564    21495154.919    34658787.755 9 -41577508.230 8
  23449894.805    23449900.300   -16060889.672 8  24477197.242 7
                  25041278.327                     8729976.757 9
 86  6 13  3 51 47.0800000  0  3G12G13G 9
  20958455.122    20958461.057     6294564.854 7 -19467265.230 9
  21496816.710    21496820.194    34667537.332 9 -41570690.366 8
  23454523.960    23454529.352   -16036567.029 8  24496149.947 9
 86  6 13  3 51 53.0800000  0  4G12G13G 9G 7
  20959399.940    20959406.160     6299534.347 9 -19463392.916 7
  21498481.700    21498486.414    34676291.185 9 -41563869.177 8
  23459153.081    23459158.405   -16012237.993 8  24515107.633 8
  25035950.049    25035958.570   -15384968.272 9   8708184.499 8
 86  6 13  3 51 59.0800000  0  4G12G13G 9G 7
  20960350.804    20960356.327     6304529.708 9 -19459500.410 8
  21500148.034    21500153.578    34685049.306 9 -41557044.672 8
  23463783.042    23463789.820   -15987902.634 9  24534070.244 8
  25033297.568    25033305.660   -15398905.438 9   8697324.396 8
 86  6 13  3 52  5.0800000  0  4G12G13G 9G 7
  20961305.470    20961312.703     6309551.078 9 -19455587.680 7
  21501816.171    21501819.683    34693811.662 9 -41550216.858 8
  23468416.072    23468422.214   -15963561.064 8  24553037.704 7
  25030651.076    25030657.479   -15412816.498 9   8686485.006 9
 86  6 13  3 52 11.0800000  0  4G12G13G 9G 7
  20962265.566    20962272.327     6314598.329 8 -19451654.759 8
  21503484.794    21503489.508    34702578.173 9 -41543385.795 8
  23473049.249    23473055.509   -15939213.309 8  24572009.970 8
  25028008.526    25028015.423   -15426705.036 9   8675662.791 8
 86  6 13  3 52 17.0800000  0  4G12G13G 9G 7
  20963232.214    20963238.155     6319671.451 9 -19447701.671 7
  21505153.446    21505157.932    34711348.928 9 -41536551.445 8
  23477684.139    23477688.937   -15914859.451 8  24590987.007 8
  25025369.031    25025375.799   -15440575.084 9   8664854.971 7
 86  6 13  3 52 23.0800000  0  4G12G13G 9G 7
  20964202.784    20964207.878     6324770.407 9 -19443728.466 7
  21506824.016    21506827.986    34720123.951 9 -41529713.760 9
  23482317.992    23482325.130   -15890499.348 9  24609968.895 9
  25022732.405    25022737.971   -15454428.961 9   8654059.754 9
 86  6 13  3 52 29.0800000  0  4G12G13G 9G 7
  20965177.469    20965183.368     6329895.152 9 -19439735.148 8
  21508494.214    21508499.500    34728903.179 9 -41522872.800 8
  23486954.464    23486961.740   -15866132.993 8  24628955.653 8
  25020099.191    25020104.193   -15468268.537 9   8643275.667 9
 86  6 13  3 52 35.0800000  0  4G12G13G 9G 7
  20966158.343    20966163.841     6335045.801 8 -19435721.655 8
  21510166.486    21510169.383    34737686.594 9 -41516028.570 8
  23491592.760    23491599.114   -15841760.556 8  24647947.153 8
  25017468.060    25017473.540   -15482093.576 9   8632502.913 8
 86  6 13  3 52 41.0800000  0  4G12G13G 9G 7
  20967143.952    20967148.388     6340222.342 9 -19431688.002 7
  21511837.828    21511842.241    34746474.195 9 -41509181.088 9
  23496231.621    23496239.373   -15817381.991 7  24666943.419 9
  25014841.872    25014847.202   -15495900.008 9   8621744.670 8
 86  6 13  3 52 47.0800000  0  4G12G13G 9G 7
  20968133.530    20968140.341     6345424.714 8 -19427634.200 9
  21513509.600    21513515.444    34755266.008 9 -41502330.321 9
  23500873.358    23500879.465   -15792997.437 8  24685944.355 8
                  25012223.963                     8611006.626 8
 86  6 13  3 52 53.0800000  0  4G12G13G 9G 7
  20969127.893    20969133.026     6350652.879 9 -19423560.306 8
  21515182.731    21515190.106    34764061.879 9 -41495476.404 9
  23505514.931    23505520.183   -15768606.811 8  24704950.028 8
  25009603.213    25009608.678   -15545946.415 9   8600292.807 8
 86  6 13  3 52 59.0800000  0  4G12G13G 9G 7
  20970128.192    20970134.033     6355906.794 9 -19419466.342 8
  21516857.593    21516864.825    34772861.777 9 -41488619.346 9
  23510156.082    23510162.200   -15744210.341 9  24723960.274 8
  25006992.028    25006997.788   -15559665.299 9   8589602.766 8
 86  6 13  3 53  5.0800000  0  4G12G13G 9G 7
  20971132.654    20971138.377     6361186.423 9 -19415352.363 7
  21518532.898    21518540.775    34781665.731 9 -41481759.130 9
  23514800.266    23514805.697   -15719807.956 8  24742975.107 8
  25004386.596    25004391.798   -15573356.986 9   8578933.537 8
 86  6 13  3 53 11.0800000  0  4G12G13G 9G 7
  20972141.491    20972146.885     6366491.801 9 -19411218.301 8
  21520209.120    21520216.353    34790473.833 8 -41474895.679 8
  23519446.035    23519451.043   -15695399.662 8  24761994.557 8
  25001785.021    25001789.993   -15587027.160 9   8568281.465 8
 86  6 13  3 53 17.0800000  0  4G12G13G 9G 7
  20973156.299    20973162.845     6371822.927 9 -19407064.178 8
  21521885.757    21521893.047    34799286.065 9 -41468029.007 8
  23524091.918    23524096.798   -15670985.431 9  24781018.625 9
  24999188.088    24999192.137   -15600678.866 9   8557643.775 8
 86  6 13  3 53 23.0800000  0  4G12G13G 9G 7
  20974176.494    20974181.298     6377179.803 9 -19402889.977 9
  21523564.025    21523570.256    34808102.414 9 -41461159.120 8
  23528737.448    23528745.103   -15646565.295 9  24800047.315 8
  24996592.887    24996597.981   -15614314.494 9   8547018.622 8
 86  6 13  3 53 29.0800000  0  4G12G13G 9G 7
  20975198.829    20975206.748     6382562.412 9 -19398695.741 8
  21525242.465    21525249.382    34816922.840 9 -41454286.064 9
  23533386.465    23533391.842   -15622139.399 8  24819080.469 9
  24994001.349    24994007.137   -15627935.613 9   8536404.768 9
 86  6 13  3 53 35.0800000  0  4G12G13G 9G 7
  20976228.600    20976233.705     6387970.702 9 -19394481.495 8
  21526920.819    21526927.965    34825747.225 9 -41447409.926 9
  23538033.758    23538041.196   -15597707.694 8  24838118.158 8
  24991411.578    24991417.789   -15641541.956 9   8525802.434 9
 86  6 13  3 53 41.0800000  0  4G12G13G 9G 7
  20977263.087    20977269.590     6393404.719 9 -19390247.207 8
  21528601.891    21528608.036    34834575.550 8 -41440530.706 9
  23542685.250    23542691.593   -15573270.256 7  24857160.282 8
                  24988832.225                     8515215.107 8
 86  6 13  3 53 47.0800000  0  4G12G13G 9G 7
  20978302.736    20978307.954     6398864.447 8 -19385992.873 9
  21530282.477    21530289.366    34843407.828 9 -41433648.415 9
  23547335.334    23547342.604   -15548827.091 7  24876206.898 8
  24986199.512    24986250.739   -15691422.139 9   8504648.248 9
 86  6 13  3 53 53.0800000  0  4G12G13G 9G 7
  20979346.133    20979352.651     6404349.877 9 -19381718.514 8
  21531963.521    21531970.582    34852244.159 9 -41426762.958 9
  23551989.839    23551995.763   -15524378.196 8  24895257.970 8
  24983670.849    24983676.172   -15704951.546 9   8494106.024 8
 86  6 13  3 53 59.0800000  0  4G12G13G 9G 7
  20980394.460    20980401.196     6409860.948 8 -19377424.169 8
  21533645.037    21533652.913    34861084.531 9 -41419874.354 8
  23556642.673    23556649.119   -15499923.592 9  24914313.496 7
  24981101.640    24981108.008   -15718450.740 9   8483587.565 8
 86  6 13  3 54  5.0800000  0  4G12G13G 9G 7
  20981447.559    20981454.767     6415397.814 9 -19373109.727 8
  21535327.612    21535334.844    34869928.927 9 -41412982.616 8
  23561297.932    23561304.164   -15475463.304 8  24933373.467 8
  24978538.270    24978544.473   -15731922.712 9   8473089.935 8
 86  6 13  3 54 11.0800000  0  4G12G13G 9G 7
  20982505.703    20982513.412     6420960.431 8 -19368775.232 8
  21537012.176    21537019.036    34878777.326 9 -41406087.764 7
  23565953.743    23565959.789   -15450997.286 9  24952437.889 9
  24975978.799    24975984.151   -15745372.691 9   8462609.431 8
 86  6 13  3 54 17.0800000  0  4G12G13G 9G 7
  20983569.029    20983576.749     6426548.703 8 -19364420.722 9
  21538696.754    21538704.229    34887629.741 9 -41399189.771 9
  23570610.738    23570616.798   -15426525.563 9  24971506.765 8
  24973422.770    24973428.393   -15758804.072 9   8452143.427 8
 86  6 13  3 54 23.0800000  0  4G12G13G 9G 7
  20984636.900    20984644.572     6432162.743 9 -19360046.155 8
  21540382.921    21540388.565    34896486.285 8 -41392288.576 9
  23575268.537    23575274.951   -15402048.208 9  24990580.031 8
  24970869.280    24970875.991   -15772219.203 9   8441690.071 7
 86  6 13  3 54 29.0800000  0  4G12G13G 9G 7
  20985710.192    20985718.112     6437802.491 8 -19355651.529 8
  21542069.030    21542075.275    34905346.796 9 -41385384.285 8
  23579927.306    23579934.808   -15377565.185 9  25009657.710 8
  24968319.525    24968325.979   -15785619.560 9   8431248.257 9
 86  6 13  3 54 35.0800000  0  4G12G13G 9G 7
  20986788.780    20986796.245     6443467.955 8 -19351236.895 7
  21543755.511    21543761.127    34914211.272 8 -41378476.903 8
  23584588.142    23584593.845   -15353076.618 9  25028739.704 7
  24965772.252    24965778.033   -15799004.599 9   8420818.356 9
 86  6 13  3 54 41.0800000  0  4G12G13G 9G 7
  20987872.133    20987879.397     6449159.132 8 -19346802.204 9
  21545443.853    21545449.010    34923079.798 9 -41371566.353 8
  23589248.957    23589255.201   -15328582.460 9  25047826.064 8
                  24963235.776                     8410404.092 8
 86  6 13  3 54 47.0800000  0  4G12G13G 9G 7
  20988959.877    20988966.656     6454875.953 8 -19342347.535 8
  21547132.423    21547137.466    34931952.341 9 -41364652.680 8
  23593911.218    23593915.543   -15304082.657 9  25066916.826 7
  24960682.051    24960696.718   -15848667.465 9   8400010.760 8
 86  6 13  3 54 53.0800000  0  4G12G13G 9G 7
  20990053.740    20990059.353     6460618.485 8 -19337872.839 7
  21548822.267    21548825.579    34940828.890 9 -41357735.879 8
  23598574.376    23598579.825   -15279577.437 8  25086011.803 8
  24958159.269    24958166.058   -15861973.760 9   8389642.415 7
 86  6 13  3 54 59.0800000  0  4G12G13G 9G 7
  20991149.492    20991157.354     6466386.753 9 -19333378.097 8
  21550512.612    21550515.666    34949709.455 9 -41350815.947 8
  23603238.289    23603243.927   -15255066.596 9  25105111.158 7
  24955632.715    24955639.333   -15875249.076 9   8379298.027 9
 86  6 13  3 55  5.0800000  0  4G12G13G 9G 7
  20992252.684    20992258.872     6472180.686 9 -19328863.336 7
  21552203.100    21552206.155    34958594.045 9 -41343892.883 9
  23607903.690    23607909.003   -15230550.283 9  25124214.783 8
  24953112.259    24953117.654   -15888497.704 9   8368974.431 9
 86  6 13  3 55 11.0800000  0  4G12G13G 9G 7
  20993360.043    20993367.308     6478000.329 9 -19324328.547 7
  21553894.404    21553898.503    34967482.710 9 -41336966.645 8
  23612569.911    23612575.302   -15206028.503 9  25143322.656 7
  24950595.486    24950601.603   -15901724.338 9   8358667.980 8
 86  6 13  3 55 17.0800000  0  4G12G13G 9G 7
  20994472.737    20994480.316     6483845.575 9 -19319773.815 8
  21555586.881    21555590.135    34976375.331 9 -41330037.325 8
  23617236.059    23617243.240   -15181501.320 9  25162434.756 8
  24948081.862    24948086.871   -15914932.395 9   8348375.989 8
 86  6 13  3 55 23.0800000  0  4G12G13G 9G 7
  20995588.811    20995595.028     6489716.421 9 -19315199.130 8
  21557279.558    21557283.399    34985271.855 9 -41323104.948 8
  23621905.596    23621911.474   -15156968.737 8  25181551.033 8
  24945571.407    24945576.687   -15928124.115 9   8338096.741 9
 86  6 13  3 55 29.0800000  0  4G12G13G 9G 7
  20996710.830    20996718.164     6495612.810 8 -19310604.540 8
  21558974.024    21558976.749    34994172.168 9 -41316169.628 9
  23626574.757    23626580.599   -15132430.984 9  25200671.375 7
  24943063.936    24943069.352   -15941301.087 9   8327828.976 8
 86  6 13  3 55 35.0800000  0  4G12G13G 9G 7
  20997837.583    20997845.098     6501534.753 8 -19305990.048 7
  21560667.803    21560671.615    35003076.322 9 -41309231.316 8
  23631244.583    23631250.529   -15107887.982 9  25219795.780 7
  24940559.584    24940564.120   -15954462.498 9   8317573.329 8
 86  6 13  3 55 41.0800000  0  4G12G13G 9G 7
  20998970.534    20998977.857     6507482.165 9 -19301355.702 8
  21562362.655    21562366.969    35011984.265 9 -41302290.054 8
  23635915.830    23635922.252   -15083339.851 9  25238924.183 8
                  24938062.866                     8307333.654 8
 86  6 13  3 55 47.0800000  0  4G12G13G 9G 7
  21000107.138    21000113.384     6513455.055 7 -19296701.497 9
  21564058.537    21564062.551    35020895.950 9 -41295345.879 9
  23640589.133    23640595.420   -15058786.528 8  25258056.643 7
  24935531.584    24935568.216   -16003903.005 9   8297115.402 8
 86  6 13  3 55 53.0800000  0  4G12G13G 9G 7
  21001248.221    21001254.810     6519453.459 8 -19292027.410 7
  21565754.763    21565759.248    35029811.462 9 -41288398.707 8
  23645260.788    23645267.649   -15034228.043 8  25277193.128 7
  24933073.959    24933079.282   -16016984.478 9   8286922.296 8
 86  6 13  3 55 59.0800000  0  4G12G13G 9G 7
  21002394.992    21002400.833     6525477.336 8 -19287333.496 7
  21567452.163    21567457.407    35038730.811 9 -41281448.557 9
  23649935.408    23649942.956   -15009664.345 9  25296333.642 8
  24930590.963    24930596.458   -16030034.527 9   8276753.056 9
 86  6 13  3 56  5.0800000  0  4G12G13G 9G 7
  21003546.868    21003552.834     6531526.719 9 -19282619.691 7
  21569149.620    21569155.020    35047653.844 9 -41274495.548 8
  23654610.879    23654618.230   -14985095.654 9  25315478.081 8
  24928112.754    24928117.283   -16043058.731 9   8266604.336 8
 86  6 13  3 56 11.0800000  0  4G12G13G 9G 7
  21004702.431    21004708.377     6537601.505 9 -19277886.082 7
  21570848.292    21570852.921    35056580.566 9 -41267539.658 7
  23659286.311    23659294.696   -14960521.805 8  25334626.525 9
  24925637.958    24925643.031   -16056061.055 9   8256472.657 9
 86  6 13  3 56 17.0800000  0  4G12G13G 9G 7
  21005862.846    21005869.327     6543701.658 9 -19273132.723 8
  21572547.910    21572552.595    35065511.080 8 -41260580.808 9
  23663965.009    23663972.515   -14935943.036 9  25353778.797 7
  24923167.776    24923172.935   -16069044.740 9   8246355.494 7
 86  6 13  3 56 23.0800000  0  4G12G13G 9G 7
  21007029.163    21007035.155     6549827.248 9 -19268359.540 7
  21574246.311    21574252.727    35074445.330 8 -41253619.057 8
  23668643.442    23668649.867   -14911359.111 8  25372935.099 9
  24920700.285    24920705.508   -16082012.094 9   8236251.071 8
 86  6 13  3 56 29.0800000  0  4G12G13G 9G 7
  21008199.930    21008205.257     6555978.327 9 -19263566.493 8
  21575947.044    21575954.491    35083383.343 9 -41246654.364 9
  23673322.902    23673330.365   -14886770.194 8  25392095.285 8
  24918235.276    24918240.606   -16094964.502 9   8226158.282 8
 86  6 13  3 56 35.0800000  0  4G12G13G 9G 7
  21009374.962    21009380.807     6562154.896 9 -19258753.582 7
  21577648.492    21577656.970    35092325.103 9 -41239686.769 9
  23678002.652    23678008.984   -14862176.325 9  25411259.346 6
  24915773.000    24915778.602   -16107900.939 9   8216077.943 8
 86  6 13  3 56 41.0800000  0  4G12G13G 9G 7
  21010554.605    21010561.991     6568356.933 9 -19253920.846 8
  21579349.884    21579358.619    35101270.620 8 -41232716.238 8
  23682683.382    23682690.551   -14837577.469 8  25430427.283 7
                  24913321.141                     8206014.234 8
 86  6 13  3 56 47.0800000  0  4G12G13G 9G 7
  21011740.024    21011746.853     6574584.445 8 -19249068.231 8
  21581052.106    21581061.956    35110219.928 9 -41225742.755 9
  23687365.249    23687373.094   -14812973.687 8  25449599.056 8
  24910864.152    24910869.054   -16157113.239 9   8195972.726 8
 86  6 13  3 56 53.0800000  0  4G12G13G 9G 7
  21012929.790    21012937.391     6580837.536 9 -19244195.703 8
  21582755.858    21582765.380    35119173.081 9 -41218766.276 9
  23692048.931    23692054.776   -14788364.822 8  25468774.787 8
  24908417.017    24908423.456   -16169967.452 9   8185956.388 9
 86  6 13  3 56 59.0800000  0  4G12G13G 9G 7
  21014123.943    21014132.417     6587116.207 9 -19239303.224 8
  21584461.671    21584469.891    35128130.096 9 -41211786.786 8
  23696732.547    23696738.167   -14763750.908 9  25487954.453 7
  24905977.778    24905982.744   -16182791.400 9   8175964.096 9
 86  6 13  3 57  5.0800000  0  4G12G13G 9G 7
  21015324.577    21015331.165     6593420.440 9 -19234390.837 8
  21586166.654    21586175.661    35137090.932 8 -41204804.318 9
  23701417.512    23701423.501   -14739131.999 9  25507138.016 8
  24903542.597    24903546.969   -16195588.369 9   8165992.437 8
 86  6 13  3 57 11.0800000  0  4G12G13G 9G 7
  21016529.114    21016536.085     6599750.100 9 -19229458.640 9
  21587873.183    21587880.917    35146055.558 9 -41197818.898 9
  23706102.356    23706108.449   -14714508.321 9  25526325.297 7
  24901111.265    24901116.702   -16208363.525 9   8156037.773 9
 86  6 13  3 57 17.0800000  0  4G12G13G 9G 7
  21017738.248    21017745.759     6606105.131 8 -19224506.663 7
  21589580.499    21589588.146    35155023.861 9 -41190830.614 9
  23710790.470    23710795.282   -14689879.771 9  25545516.390 7
  24898683.245    24898689.298   -16221119.873 9   8146097.767 9
 86  6 13  3 57 23.0800000  0  4G12G13G 9G 7
  21018951.853    21018958.860     6612485.623 8 -19219534.877 8
  21591288.000    21591294.374    35163995.911 9 -41183839.399 9
  23715477.710    23715482.948   -14665246.331 8  25564711.265 7
  24896258.703    24896265.686   -16233859.801 9   8136170.561 9
 86  6 13  3 57 29.0800000  0  4G12G13G 9G 7
  21020170.177    21020177.986     6618891.530 9 -19214543.254 8
  21592996.747    21593002.634    35172971.665 9 -41176845.309 8
  23720165.051    23720171.530   -14640608.068 9  25583909.916 7
  24893837.480    24893843.547   -16246584.667 9   8126255.090 9
 86  6 13  3 57 35.0800000  0  4G12G13G 9G 7
  21021394.328    21021402.026     6625322.856 9 -19209531.825 8
  21594706.366    21594712.467    35181951.151 9 -41169848.300 8
  23724854.692    23724860.989   -14615965.157 8  25603112.177 8
  24891418.390    24891424.278   -16259293.051 9   8116352.469 8
 86  6 13  3 57 41.0800000  0  4G12G13G 9G 7
  21022623.227    21022629.583     6631779.612 8 -19204500.593 8
  21596415.499    21596421.214    35190934.308 9 -41162848.434 8
  23729545.800    23729551.739   -14591317.466 8  25622318.179 8
                  24889010.410                     8106466.922 8
 86  6 13  3 57 47.0800000  0  4G12G13G 9G 7
  21023857.645    21023863.830     6638261.722 8 -19199449.594 8
  21598125.319    21598130.333    35199921.218 9 -41155845.632 9
  23734236.736    23734241.548   -14566665.012 8  25641527.882 9
  24886521.068    24886601.794   -16308282.672 9   8096603.940 9
 86  6 13  3 57 53.0800000  0  4G12G13G 9G 7
  21025096.485    21025102.941     6644769.172 8 -19194378.854 9
  21599837.327    21599841.541    35208911.825 9 -41148839.961 8
  23738928.205    23738934.480   -14542007.830 7  25660741.247 8
  24884195.152    24884199.509   -16320907.055 9   8086766.647 9
 86  6 13  3 57 59.0800000  0  4G12G13G 9G 7
  21026339.331    21026345.655     6651302.046 9 -19189288.300 9
  21601548.049    21601553.721    35217906.243 9 -41141831.313 8
  23743621.072    23743626.425   -14517346.032 8  25679958.242 9
  24881798.977    24881802.662   -16333500.345 9   8076953.294 9
 86  6 13  3 58  5.0800000  0  4G12G13G 9G 7
  21027587.440    21027593.760     6657860.353 9 -19184177.942 9
  21603260.887    21603265.358    35226904.429 9 -41134819.740 8
  23748315.622    23748322.143   -14492679.512 7  25699178.883 9
  24879407.175    24879411.174   -16346067.859 9   8067160.428 8
 86  6 13  3 58 11.0800000  0  4G12G13G 9G 7
  21028840.044    21028847.292     6664443.987 8 -19179047.840 8
  21604974.127    21604978.341    35235906.259 9 -41127805.312 8
  23753010.231    23753016.439   -14468008.488 7  25718403.036 8
  24877019.586    24877024.529   -16358613.584 9   8057384.533 9
 86  6 13  3 58 17.0800000  0  4G12G13G 9G 7
  21030097.339    21030103.921     6671052.904 8 -19173898.033 9
  21606687.767    21606691.466    35244911.642 9 -41120788.128 8
  23757705.464    23757711.885   -14443332.864 7  25737630.778 7
  24874635.037    24874640.525   -16371140.556 9   8047623.268 9
 86  6 13  3 58 23.0800000  0  4G12G13G 9G 7
  21031359.893    21031365.967     6677687.173 8 -19168728.485 9
  21608401.436    21608405.106    35253920.597 9 -41113768.174 9
  23762401.301    23762408.885   -14418652.624 6  25756862.135 8
  24872253.351    24872260.577   -16383650.914 8   8037874.943 9
 86  6 13  3 58 29.0800000  0  4G12G13G 9G 7
  21032627.215    21032633.218     6684346.701 9 -19163539.244 8
  21610116.407    21610119.805    35262933.070 9 -41106745.445 9
  23767100.275    23767105.254   -14393968.075 8  25776096.840 8
  24869876.229    24869882.096   -16396145.931 9   8028138.575 8
 86  6 13  3 58 35.0800000  0  4G12G13G 9G 7
  21033899.421    21033905.351     6691031.428 9 -19158330.370 9
  21611832.022    21611835.535    35271949.056 9 -41099719.999 9
  23771798.444    23771802.136   -14369278.976 6  25795335.099 8
  24867501.590    24867507.199   -16408624.066 9   8018415.359 9
 86  6 13  3 58 41.0800000  0  4G12G13G 9G 7
  21035175.797    21035181.638     6697741.358 8 -19153101.852 7
  21613548.639    21613551.864    35280968.503 9 -41092691.847 8
  23776495.959    23776503.089   -14344585.435 8  25814576.797 8
                  24865136.725                     8008709.617 8
 86  6 13  3 58 47.0800000  0  4G12G13G 9G 7
  21036458.655    21036463.848     6704476.538 8 -19147853.670 8
  21615264.955    21615269.282    35289991.526 9 -41085660.917 8
  23781196.750    23781202.374   -14319887.541 7  25833821.896 8
  24862765.783    24862772.316   -16457380.077 8   7999026.760 9
 86  6 13  3 58 53.0800000  0  4G12G13G 9G 7
  21037744.754    21037750.524     6711236.905 9 -19142585.851 9
  21616983.331    21616987.244    35299018.231 9 -41078627.121 9
  23785896.425    23785904.024   -14295185.299 7  25853070.398 8
  24860408.888    24860414.625   -16469773.497 9   7989369.580 9
 86  6 13  3 58 59.0800000  0  4G12G13G 9G 7
  21039036.753    21039041.367     6718022.449 8 -19137298.410 8
  21618701.965    21618704.805    35308048.417 9 -41071590.601 9
  23790598.644    23790604.536   -14270478.729 7  25872322.266 8
  24858056.686    24858061.515   -16482136.200 9   7979736.292 9
 86  6 13  3 59  5.0800000  0  4G12G13G 9G 7
  21040331.678    21040337.086     6724833.243 9 -19131991.306 8
  21620421.401    21620424.369    35317082.165 9 -41064551.310 9
  23795302.258    23795307.074   -14245767.760 7  25891577.562 8
  24855707.402    24855714.507   -16494472.724 9   7970123.429 9
 86  6 13  3 59 11.0800000  0  4G12G13G 9G 7
  21041632.736    21041638.331     6731669.318 8 -19126664.503 8
  21622141.194    21622144.706    35326119.474 9 -41057509.244 8
  23800005.489    23800010.247   -14221052.419 8  25910836.257 8
  24853364.058    24853370.933   -16506787.389 8   7960527.592 8
 86  6 13  3 59 17.0800000  0  4G12G13G 9G 7
  21042938.204    21042944.124     6738530.687 9 -19121317.977 7
  21623860.944    21623864.814    35335160.336 9 -41050464.409 9
  23804708.209    23804713.997   -14196332.813 7  25930098.286 9
  24851023.331    24851030.930   -16519083.165 9   7950946.475 8
 86  6 13  3 59 23.0800000  0  4G12G13G 9G 7
  21044248.260    21044254.234     6745417.420 9 -19115951.705 9
  21625582.368    21625584.893    35344204.751 8 -41043416.811 7
  23809412.692    23809419.371   -14171608.830 6  25949363.716 9
  24848687.541    24848694.782   -16531362.217 8   7941378.387 9
 86  6 13  3 59 29.0800000  0  4G12G13G 9G 7
  21045564.449    21045570.364     6752329.458 9 -19110565.719 8
  21627303.092    21627307.949    35353252.814 9 -41036366.365 8
  23814118.180    23814125.082   -14146880.469 8  25968632.558 8
  24846354.456    24846359.922   -16543625.599 9   7931822.511 9
 86  6 13  3 59 35.0800000  0  4G12G13G 9G 7
  21046884.064    21046890.101     6759266.848 8 -19105159.952 8
  21629024.245    21629031.148    35362304.609 9 -41029313.022 9
  23818825.554    23818831.511   -14122147.702 7  25987904.828 9
  24844024.412    24844031.402   -16555871.489 8   7922280.263 8
 86  6 13  3 59 41.0800000  0  4G12G13G 9G 7
  21048209.170    21048214.364     6766229.469 9 -19099734.540 8
  21630747.229    21630754.261    35371360.130 8 -41022256.781 8
  23823532.509    23823539.553   -14097410.610 8  26007180.481 8
                  24841704.706                     7912756.179 8
 86  6 13  3 59 47.0800000  0  4G12G13G 9G 7
  21049538.805    21049544.943     6773217.409 9 -19094289.400 7
  21632470.041    21632478.490    35380419.242 9 -41015197.741 9
  23828240.287    23828247.113   -14072669.224 8  26026459.471 9
  24839379.648    24839384.456   -16604398.972 8   7903255.566 9
 86  6 13  3 59 53.0800000  0  4G12G13G 9G 7
  21050873.995    21050880.674     6780230.612 8 -19088824.556 9
  21634194.327    21634203.434    35389481.893 8 -41008135.948 9
  23832948.859    23832956.060   -14047923.584 8  26045741.778 9
  24837064.599    24837070.073   -16616558.275 8   7893780.837 9
 86  6 13  3 59 59.0800000  0  4G12G13G 9G 7
  21052213.053    21052218.164     6787268.905 9 -19083340.175 8
  21635919.186    21635928.407    35398547.970 8 -41001071.475 8
  23837658.300    23837665.202   -14023173.884 7  26065027.249 8
  24834757.307    24834762.915   -16628687.462 9   7884329.917 9
 86  6 13  4  0  5.0800000  0  4G12G13G 9G 7
  21053557.584    21053562.102     6794332.258 8 -19077836.265 8
  21637645.490    21637655.040    35407617.465 8 -40994004.347 9
  23842368.790    23842376.857   -13998420.155 7  26084315.854 9
  24832454.743    24832460.416   -16640790.118 9   7874899.276 9
 86  6 13  4  0 11.0800000  0  4G12G13G 9G 7
  21054906.236    21054911.563     6801420.708 9 -19072312.801 7
  21639372.523    21639381.359    35416690.344 9 -40986934.597 9
  23847080.589    23847087.386   -13973662.349 7  26103607.647 9
  24830155.942    24830159.763   -16652870.967 9   7865485.618 9
 86  6 13  4  0 17.0800000  0  4G12G13G 9G 7
  21056258.630    21056266.564     6808534.210 8 -19066769.822 7
  21641101.589    21641109.308    35425766.584 8 -40979862.203 9
  23851794.362    23851799.549   -13948900.556 8  26122902.540 8
  24827860.383    24827864.382   -16664932.841 9   7856086.756 9
 86  6 13  4  0 23.0800000  0  4G12G13G 9G 7
  21057617.227    21057624.131     6815672.786 9 -19061207.296 9
  21642829.438    21642836.771    35434846.224 9 -40972787.165 9
  23856506.343    23856513.169   -13924134.843 7  26142200.494 8
  24825567.549    24825573.280   -16676978.122 9   7846700.836 9
 86  6 13  4  0 29.0800000  0  4G12G13G 9G 7
  21058980.668    21058986.906     6822836.375 9 -19055625.287 7
  21644558.332    21644564.835    35443929.248 9 -40965709.492 8
  23861218.249    23861225.669   -13899365.224 7  26161501.483 8
  24823278.994    24823284.654   -16689007.782 9   7837327.079 9
 86  6 13  4  0 35.0800000  0  4G12G13G 9G 7
  21060349.410    21060354.639     6830025.018 9 -19050023.747 9
  21646287.512    21646293.443    35453015.617 9 -40958629.206 9
  23865934.322    23865940.276   -13874591.730 6  26180805.479 8
  24820993.487    24820997.887   -16701019.830 9   7827967.035 9
 86  6 13  4  0 41.0800000  0  4G12G13G 9G 7
  21061721.951    21061727.391     6837238.714 9 -19044402.692 8
  21648018.624    21648022.336    35462105.364 9 -40951546.288 9
  23870647.069    23870654.886   -13849814.386 7  26200112.495 9
                  24818716.086                     7818625.636 9
 86  6 13  4  0 47.0800000  0  4G12G13G 9G 7
  21063098.792    21063104.723     6844477.460 9 -19038762.113 8
  21649749.006    21649753.748    35471198.570 9 -40944460.679 9
  23875364.581    23875371.328   -13825033.090 7  26219422.596 9
  24816435.695    24816440.831   -16749307.419 8   7809308.140 9
 86  6 13  4  0 53.0800000  0  4G12G13G 9G 7
  21064481.922    21064487.713     6851741.228 9 -19033102.041 8
  21651480.032    21651484.159    35480295.157 9 -40937372.427 9
  23880081.156    23880085.718   -13800247.873 7  26238735.728 8
  24814165.770    24814170.871   -16761231.582 9   7800016.590 9
 86  6 13  4  0 59.0800000  0  4G12G13G 9G 7
  21065868.297    21065873.905     6859029.998 9 -19027422.479 7
  21653211.187    21653215.715    35489395.125 9 -40930281.539 9
  23884797.462    23884804.591   -13775458.793 7  26258051.890 9
  24811902.049    24811908.595   -16773125.306 9   7790748.751 9
 86  6 13  4  1  5.0800000  0  4G12G13G 9G 7
  21067259.819    21067265.377     6866343.838 8 -19021723.369 7
  21654944.144    21654948.043    35498498.418 9 -40923188.059 9
  23889515.861    23889521.727   -13750665.996 7  26277370.937 7
  24809642.792    24809648.494   -16784993.020 9   7781501.195 9
 86  6 13  4  1 11.0800000  0  4G12G13G 9G 7
  21068656.339    21068662.796     6873682.730 8 -19016004.768 8
  21656676.615    21656681.487    35507605.143 9 -40916091.906 9
  23894233.680    23894241.100   -13725869.378 7  26296692.988 7
  24807389.430    24807395.096   -16796838.905 9   7772270.633 9
 86  6 13  4  1 17.0800000  0  4G12G13G 9G 7
  21070058.117    21070064.749     6881046.697 8 -19010266.618 8
  21658409.945    21658414.730    35516715.350 9 -40908993.039 9
  23898953.156    23898960.461   -13701068.899 7  26316018.025 8
  24805138.501    24805144.390   -16808665.778 8   7763054.897 9
 86  6 13  4  1 23.0800000  0  4G12G13G 9G 7
  21071464.296    21071470.570     6888435.710 9 -19004508.952 8
  21660144.247    21660148.461    35525828.932 9 -40901891.550 8
  23903672.055    23903678.667   -13676264.717 7  26335345.961 8
  24802893.188    24802897.910   -16820475.802 8   7753852.296 9
 86  6 13  4  1 29.0800000  0  4G12G13G 9G 7
  21072874.649    21072882.014     6895849.814 8 -18998731.739 8
  21661879.623    21661883.136    35534945.976 9 -40894787.360 9
  23908393.599    23908400.189   -13651456.625 8  26354676.922 8
  24800648.312    24800653.306   -16832269.699 8   7744662.242 9
 86  6 13  4  1 35.0800000  0  4G12G13G 9G 7
  21074291.563    21074296.596     6903288.914 9 -18992935.031 8
  21663614.527    21663619.470    35544066.546 9 -40887680.416 9
  23913117.235    23913121.975   -13626644.718 8  26374010.859 9
  24798407.664    24798413.066   -16844045.240 9   7735486.480 9
 86  6 13  4  1 41.0800000  0  4G12G13G 9G 7
  21075710.752    21075717.735     6910753.018 9 -18987118.855 8
  21665350.389    21665355.948    35553190.596 9 -40880570.773 9
  23917838.406    23917844.058   -13601829.048 9  26393347.745 9
                  24796177.133                     7726329.819 8
 86  6 13  4  1 47.0800000  0  4G12G13G 9G 7
  21077137.267    21077142.805     6918242.202 9 -18981283.121 9
  21667086.481    21667093.484    35562318.076 9 -40873458.460 7
  23922561.069    23922567.734   -13577009.642 8  26412687.535 8
  24793942.424    24793945.979   -16892102.960 9   7717197.631 8
 86  6 13  4  1 53.0800000  0  4G12G13G 9G 7
  21078566.487    21078572.325     6925756.495 9 -18975427.838 8
  21668823.574    21668830.134    35571448.974 8 -40866343.482 9
  23927284.827    23927290.265   -13552186.466 8  26432030.275 8
  24791718.539    24791722.467   -16903789.066 9   7708091.564 8
 86  6 13  4  1 59.0800000  0  4G12G13G 9G 7
  21080000.866    21080006.965     6933295.763 8 -18969553.088 8
  21670561.983    21670568.844    35580583.174 8 -40859225.935 9
  23932010.935    23932015.567   -13527359.699 8  26451375.797 7
  24789499.677    24789506.073   -16915444.549 9   7699009.360 9
 86  6 13  4  2  5.0800000  0  4G12G13G 9G 7
  21081440.607    21081446.713     6940859.907 9 -18963658.950 8
  21672301.094    21672306.924    35589720.717 8 -40852105.783 9
  23936735.115    23936740.774   -13502529.387 8  26470724.095 8
  24787286.989    24787292.384   -16927074.183 9   7689947.323 9
 86  6 13  4  2 11.0800000  0  4G12G13G 9G 7
  21082884.630    21082890.614     6948448.868 9 -18957745.467 9
  21674040.491    21674045.720    35598861.514 9 -40844983.092 9
  23941461.291    23941466.868   -13477695.539 8  26490075.132 8
  24785078.229    24785082.915   -16938682.146 9   7680902.152 8
 86  6 13  4  2 17.0800000  0  4G12G13G 9G 7
  21084334.498    21084339.359     6956062.641 9 -18951812.671 8
  21675780.660    21675785.203    35608005.598 9 -40837857.822 9
  23946186.686    23946192.578   -13452858.300 8  26509428.836 8
  24782873.290    24782878.362   -16950271.122 9   7671871.789 9
 86  6 13  4  2 23.0800000  0  4G12G13G 9G 7
  21085787.092    21085794.078     6963701.173 9 -18945860.567 9
  21677521.473    21677526.345    35617152.890 9 -40830730.068 8
  23950915.238    23950921.502   -13428017.559 9  26528785.254 8
  24780671.599    24780675.648   -16961843.203 8   7662854.584 9
 86  6 13  4  2 29.0800000  0  4G12G13G 9G 7
  21087245.531    21087251.776     6971364.506 8 -18939889.146 8
  21679263.890    21679267.917    35626303.363 9 -40823599.837 9
  23955642.623    23955647.353   -13403173.452 9  26548144.296 8
  24778472.312    24778476.147   -16973399.176 9   7653849.920 9
 86  6 13  4  2 35.0800000  0  4G12G13G 9G 7
  21088708.893    21088714.613     6979052.534 9 -18933898.468 8
  21681005.662    21681009.775    35635456.949 9 -40816467.162 9
  23960370.043    23960375.453   -13378326.094 7  26567505.858 8
  24776276.252    24776281.810   -16984936.606 9   7644859.717 9
 86  6 13  4  2 41.0800000  0  4G12G13G 9G 7
  21090175.446    21090182.024     6986765.366 9 -18927888.488 8
  21682747.691    21682752.205    35644613.642 9 -40809332.080 9
  23965099.217    23965105.685   -13353475.429 9  26586870.010 8
                  24774091.374                     7635888.946 8
 86  6 13  4  2 47.0800000  0  4G12G13G 9G 7
  21091649.199    21091654.801     6994502.898 9 -18921859.234 8
  21684490.394    21684496.352    35653773.462 9 -40802194.552 9
  23969827.890    23969833.843   -13328621.626 9  26606236.597 8
  24771900.457    24771905.759   -17032751.611 9   7626942.698 8
 86  6 13  4  2 53.0800000  0  4G12G13G 9G 7
  21093126.137    21093130.744     7002265.123 8 -18915810.760 8
  21686234.627    21686239.842    35662936.366 9 -40795054.638 8
  23974559.082    23974564.530   -13303764.476 8  26625605.793 8
  24769721.911    24769727.742   -17044199.178 9   7618022.507 9
 86  6 13  4  2 59.0800000  0  4G12G13G 9G 7
  21094607.582    21094612.933     7010052.135 9 -18909742.951 9
  21687978.846    21687984.533    35672102.428 9 -40787912.254 9
  23979289.940    23979295.564   -13278904.062 8  26644977.542 8
  24767548.609    24767555.936   -17055615.710 9   7609126.121 8
 86  6 13  4  3  5.0800000  0  4G12G13G 9G 7
  21096094.078    21096100.702     7017863.923 9 -18903655.852 8
  21689723.852    21689728.909    35681271.756 9 -40780767.323 8
  23984020.913    23984026.927   -13254040.334 8  26664351.869 8
  24765381.539    24765387.707   -17067006.886 9   7600249.898 9
 86  6 13  4  3 11.0800000  0  4G12G13G 9G 7
  21097585.099    21097591.255     7025700.465 9 -18897549.448 7
  21691469.774    21691473.629    35690444.314 9 -40773619.871 9
  23988753.106    23988759.399   -13229173.315 8  26683728.757 8
  24763217.761    24763224.543   -17078376.270 9   7591390.659 8
 86  6 13  4  3 17.0800000  0  4G12G13G 9G 7
  21099080.466    21099087.535     7033561.862 9 -18891423.694 8
  21693214.822    21693220.924    35699620.161 9 -40766469.861 8
  23993485.517    23993491.481   -13204303.010 8  26703108.210 9
  24761059.269    24761064.563   -17089726.449 9   7582546.363 9
 86  6 13  4  3 23.0800000  0  4G12G13G 9G 7
  21100582.363    21100588.523     7041448.011 9 -18885278.649 8
  21694961.703    21694966.503    35708799.303 9 -40759317.294 9
  23998218.555    23998224.626   -13179429.401 8  26722490.228 8
  24758901.622    24758908.182   -17101059.595 9   7573715.348 9
 86  6 13  4  3 29.0800000  0  4G12G13G 9G 7
  21102087.203    21102094.182     7049358.949 9 -18879114.284 9
  21696708.855    21696713.627    35717981.707 9 -40752162.170 9
  24002953.022    24002959.194   -13154552.610 9  26741874.743 8
  24756748.575    24756753.633   -17112376.213 9   7564897.205 9
 86  6 13  4  3 35.0800000  0  4G12G13G 9G 7
  21103596.537    21103604.260     7057294.698 8 -18872930.591 8
  21698457.167    21698461.752    35727167.319 8 -40745004.556 8
  24007687.816    24007693.458   -13129672.548 8  26761261.783 9
  24754598.082    24754603.970   -17123673.629 9   7556094.026 9
 86  6 13  4  3 41.0800000  0  4G12G13G 9G 7
  21105111.118    21105119.131     7065255.259 9 -18866727.565 8
  21700204.648    21700210.077    35736356.110 9 -40737844.474 9
  24012423.043    24012427.869   -13104789.269 8  26780651.353 8
                  24752458.979                     7547310.965 9
 86  6 13  4  3 47.0800000  0  4G12G13G 9G 7
  21106632.182    21106637.093     7073240.625 9 -18860505.203 8
  21701953.503    21701958.804    35745548.235 8 -40730681.787 9
  24017158.133    24017164.144   -13079902.733 8  26800043.451 9
  24750313.194    24750319.333   -17171251.575 8   7538553.036 8
 86  6 13  4  3 53.0800000  0  4G12G13G 9G 7
  21108155.374    21108162.724     7081250.807 9 -18854263.492 9
  21703702.960    21703709.076    35754743.697 9 -40723516.493 9
  24021893.971    24021900.240   -13055013.059 8  26819438.009 9
  24748180.266    24748187.234   -17182457.207 9   7529821.385 7
 86  6 13  4  3 59.0800000  0  4G12G13G 9G 7
  21109685.087    21109690.646     7089285.794 9 -18848002.468 8
  21705453.674    21705459.491    35763942.428 9 -40716348.641 9
  24026631.273    24026637.326   -13030120.114 9  26838835.092 9
  24746054.900    24746060.831   -17193632.263 8   7521113.564 9
 86  6 13  4  4  5.0800000  0  4G12G13G 9G 7
  21111218.964    21111224.198     7097345.589 8 -18841722.118 8
  21707205.577    21707210.621    35773144.468 9 -40709178.240 9
  24031369.093    24031375.021   -13005224.086 8  26858234.590 9
  24743934.220    24743940.466   -17204781.396 8   7512425.939 9
 86  6 13  4  4 11.0800000  0  4G12G13G 9G 7
  21112756.984    21112762.457     7105430.068 9 -18835422.538 8
  21708957.438    21708962.839    35782349.705 8 -40702005.326 8
  24036107.038    24036113.824   -12980324.927 8  26877636.540 8
  24741817.046    24741821.898   -17215908.696 9   7503755.320 9
 86  6 13  4  4 17.0800000  0  4G12G13G 9G 7
  21114300.392    21114305.450     7113539.258 9 -18829103.678 8
  21710710.628    21710715.400    35791558.083 8 -40694829.982 9
  24040846.317    24040851.899   -12955422.747 7  26897040.824 9
  24739704.202    24739708.945   -17227016.768 9   7495099.678 9
 86  6 13  4  4 23.0800000  0  4G12G13G 9G 7
  21115847.723    21115855.178     7121673.167 9 -18822765.572 8
  21712463.962    21712468.620    35800769.627 9 -40687652.138 9
  24045585.708    24045591.675   -12930517.527 8  26916447.489 8
  24737593.839    24737598.017   -17238107.689 9   7486457.396 9
 86  6 13  4  4 29.0800000  0  4G12G13G 9G 7
  21117400.163    21117407.736     7129831.753 9 -18816408.234 8
  21714216.452    21714222.182    35809984.286 9 -40680471.889 8
  24050325.978    24050331.170   -12905609.364 8  26935856.437 8
  24735486.989    24735490.730   -17249181.825 9   7477828.195 8
 86  6 13  4  4 35.0800000  0  4G12G13G 9G 7
  21118957.200    21118964.015     7138014.958 9 -18810031.713 9
  21715971.375    21715975.774    35819202.166 9 -40673289.122 9
  24055065.938    24055071.633   -12880698.180 8  26955267.738 9
  24733383.073    24733386.714   -17260236.364 9   7469214.265 9
 86  6 13  4  4 41.0800000  0  4G12G13G 9G 7
  21120519.073    21120526.771     7146222.688 9 -18803636.088 7
  21717724.709    21717730.367    35828423.220 9 -40666103.877 9
  24059806.112    24059812.555   -12855784.126 9  26974681.284 8
                  24731288.114                     7460620.909 8
 86  6 13  4  4 47.0800000  0  4G12G13G 9G 7
  21122085.447    21122091.614     7154455.002 8 -18797221.291 8
  21719480.174    21719486.534    35837647.434 9 -40658916.190 9
  24064547.083    24064554.603   -12830867.194 7  26994097.070 7
  24729191.137    24729195.315   -17307566.549 9   7452052.951 8
 86  6 13  4  4 53.0800000  0  4G12G13G 9G 7
  21123656.446    21123663.382     7162711.926 9 -18790787.335 8
  21721236.857    21721242.071    35846874.697 9 -40651726.115 9
  24069289.683    24069295.503   -12805947.444 7  27013515.025 8
  24727105.022    24727109.972   -17318528.295 9   7443511.325 9
 86  6 13  4  4 59.0800000  0  4G12G13G 9G 7
  21125232.957    21125240.791     7170993.403 9 -18784334.239 8
  21722992.666    21722999.298    35856105.027 9 -40644533.647 9
  24074032.683    24074037.688   -12781024.941 8  27032935.148 8
  24725023.964    24725029.409   -17329460.290 9   7434993.272 9
 86  6 13  4  5  5.0800000  0  4G12G13G 9G 7
  21126812.674    21126821.867     7179299.330 9 -18777862.095 8
  21724749.778    21724754.263    35865338.284 9 -40637338.896 9
  24078774.967    24078781.446   -12756099.698 7  27052357.419 7
  24722948.909    24722953.975   -17340366.164 9   7426495.185 8
 86  6 13  4  5 11.0800000  0  4G12G13G 9G 7
  21128399.853    21128406.224     7187629.726 9 -18771370.879 8
  21726507.018    21726512.261    35874574.500 9 -40630141.855 8
  24083518.643    24083524.085   -12731171.799 9  27071781.745 7
  24720877.632    24720882.619   -17351250.296 9   7418014.054 8
 86  6 13  4  5 17.0800000  0  4G12G13G 9G 7
  21129988.681    21129996.068     7195984.577 9 -18764860.612 7
  21728265.074    21728269.373    35883813.761 8 -40622942.433 8
  24088263.550    24088267.957   -12706241.234 8  27091208.161 7
  24718809.553    24718816.428   -17362115.259 9   7409547.847 9
 86  6 13  4  5 23.0800000  0  4G12G13G 9G 7
  21131583.709    21131590.137     7204363.903 8 -18758331.277 9
  21730023.402    21730028.345    35893056.015 9 -40615740.668 8
  24093009.751    24093014.077   -12681308.047 8  27110636.619 8
  24716746.110    24716751.705   -17372962.944 9   7401095.100 9
 86  6 13  4  5 29.0800000  0  4G12G13G 9G 7
  21133182.428    21133188.488     7212767.765 9 -18751782.806 8
  21731783.003    21731787.861    35902301.410 8 -40608536.474 8
  24097754.282    24097758.826   -12656372.049 8  27130067.281 7
  24714684.885    24714689.973   -17383793.704 9   7392655.548 8
 86  6 13  4  5 35.0800000  0  4G12G13G 9G 7
  21134786.124    21134792.777     7221196.081 8 -18745215.278 8
  21733542.862    21733548.177    35911549.958 8 -40601329.812 9
  24102500.416    24102504.484   -12631433.394 8  27149499.983 7
  24712628.197    24712633.041   -17394604.456 9   7384231.594 9
 86  6 13  4  5 41.0800000  0  4G12G13G 9G 7
  21136394.749    21136400.805     7229648.942 9 -18738628.641 8
  21735302.835    21735308.265    35920801.568 9 -40594120.775 9
  24107245.330    24107250.618   -12606492.105 8  27168934.760 7
                  24710581.231                     7375828.738 9
 86  6 13  4  5 47.0800000  0  4G12G13G 9G 7
  21138007.470    21138013.805     7238126.226 8 -18732022.968 7
  21737063.968    21737069.154    35930056.111 8 -40586909.440 8
  24111992.315    24111997.703   -12581548.182 7  27188371.584 7
  24708529.128    24708535.388   -17441696.251 9   7367451.635 9
 86  6 13  4  5 53.0800000  0  4G12G13G 9G 7
  21139626.626    21139631.796     7246627.932 9 -18725398.258 8
  21738824.943    21738832.705    35939313.607 8 -40579695.824 9
  24116739.232    24116744.012   -12556601.712 8  27207810.388 7
  24706487.221    24706495.777   -17452413.032 8   7359100.918 9
 86  6 13  4  5 59.0800000  0  4G12G13G 9G 7
  21141248.534    21141254.851     7255154.039 9 -18718754.545 8
  21740586.619    21740594.481    35948574.035 8 -40572479.906 7
  24121487.619    24121490.124   -12531652.735 8  27227251.144 6
  24704455.308    24704461.683   -17463098.997 8   7350773.813 9
 86  6 13  4  6  5.0800000  0  4G12G13G 9G 7
  21142876.434    21142881.985     7263704.567 9 -18712091.795 8
  21742350.671    21742356.658    35957837.418 9 -40565261.698 8
  24126234.898    24126239.947   -12506701.208 8  27246693.907 8
  24702427.674    24702434.585   -17473759.766 9   7342466.732 8
 86  6 13  4  6 11.0800000  0  4G12G13G 9G 7
  21144507.574    21144513.609     7272279.498 8 -18705410.038 8
  21744113.892    21744119.665    35967103.767 8 -40558041.158 9
  24130984.616    24130989.210   -12481747.234 7  27266138.553 7
  24700403.881    24700408.124   -17484398.770 9   7334176.603 9
 86  6 13  4  6 17.0800000  0  4G12G13G 9G 7
  21146144.828    21146149.614     7280878.752 9 -18698709.325 9
  21745879.260    21745883.588    35976373.093 9 -40550818.327 7
  24135733.265    24135737.693   -12456790.739 8  27285585.175 7
  24698382.314    24698387.574   -17495018.516 9   7325901.478 9
 86  6 13  4  6 23.0800000  0  4G12G13G 9G 7
  21147784.569    21147791.683     7289502.313 9 -18691989.677 9
  21747643.283    21747648.455    35985645.370 9 -40543593.165 8
  24140481.573    24140488.574   -12431831.894 5  27305033.616 8
  24696364.898    24696369.227   -17505621.023 9   7317639.783 9
 86  6 13  4  6 29.0800000  0  4G12G13G 9G 7
  21149430.076    21149435.555     7298150.134 9 -18685251.108 9
  21749408.436    21749413.522    35994920.565 9 -40536365.726 9
  24145230.841    24145237.584   -12406870.736 7  27324483.862 8
  24694350.142    24694355.680   -17516206.497 9   7309391.368 9
 86  6 13  4  6 35.0800000  0  4G12G13G 9G 7
  21151080.730    21151086.582     7306822.371 9 -18678493.526 8
  21751174.548    21751178.418    36004198.687 9 -40529136.020 8
  24149983.052    24149988.429   -12381907.199 7  27343935.966 7
  24692340.487    24692344.759   -17526771.406 9   7301158.980 8
 86  6 13  4  6 41.0800000  0  4G12G13G 9G 7
  21152735.542    21152741.318     7315518.896 8 -18671717.016 7
  21752940.961    21752944.087    36013479.699 9 -40521904.057 8
  24154734.437    24154738.602   -12356941.311 6  27363389.889 8
                  24690339.583                     7292948.062 8
 86  6 13  4  6 47.0800000  0  4G12G13G 9G 7
  21154394.893    21154400.992     7324239.636 9 -18664921.638 9
  21754707.903    21754710.900    36022763.605 9 -40514669.855 8
  24159483.659    24159491.328   -12331973.137 6  27382845.581 8
  24688336.510    24688339.665   -17573618.344 9   7284763.057 8
 86  6 13  4  6 53.0800000  0  4G12G13G 9G 7
  21156059.080    21156064.965     7332984.635 9 -18658107.368 8
  21756475.374    21756479.144    36032050.389 9 -40507433.394 8
  24164237.158    24164242.839   -12307002.805 7  27402302.971 7
  24686344.406    24686347.604   -17584088.538 9   7276604.450 8
 86  6 13  4  6 59.0800000  0  4G12G13G 9G 7
  21157728.498    21157734.082     7341753.918 9 -18651274.162 8
  21758242.688    21758246.272    36041340.019 9 -40500194.714 9
  24168988.664    24168994.499   -12282030.173 7  27421762.161 8
  24684357.560    24684362.582   -17594529.108 9   7268469.325 9
 86  6 13  4  7  5.0800000  0  4G12G13G 9G 7
  21159401.729    21159406.958     7350547.481 8 -18644422.041 8
  21760011.262    21760014.974    36050632.564 8 -40492953.768 9
  24173740.589    24173747.233   -12257055.216 7  27441223.145 8
  24682375.566    24682380.452   -17604943.589 8   7260354.139 8
 86  6 13  4  7 11.0800000  0  4G12G13G 9G 7
  21161079.174    21161084.768     7359365.270 8 -18637551.030 8
  21761779.720    21761784.506    36059927.981 9 -40485710.601 9
  24178493.363    24178499.992   -12232078.121 6  27460685.816 7
  24680398.042    24680402.285   -17615336.243 9   7252255.978 8
 86  6 13  4  7 17.0800000  0  4G12G13G 9G 7
  21162762.972    21162767.579     7368207.336 8 -18630661.124 8
  21763548.980    21763555.183    36069226.369 9 -40478465.093 9
  24183245.567    24183254.950   -12207098.850 7  27480150.173 7
  24678423.317    24678428.059   -17625709.608 9   7244172.824 8
 86  6 13  4  7 23.0800000  0  4G12G13G 9G 7
  21164449.854    21164455.320     7377073.563 9 -18623752.366 9
  21765318.097    21765324.314    36078527.688 9 -40471217.326 9
  24188001.420    24188008.164   -12182117.298 7  27499616.291 8
  24676452.132    24676456.968   -17636065.513 9   7236103.275 8
 86  6 13  4  7 29.0800000  0  4G12G13G 9G 7
  21166141.770    21166146.266     7385963.968 9 -18616824.780 8
  21767088.588    21767094.733    36087831.856 8 -40463967.335 9
  24192754.755    24192761.298   -12157133.763 7  27519083.978 8
  24674485.190    24674489.855   -17646404.053 9   7228047.274 9
 86  6 13  4  7 35.0800000  0  4G12G13G 9G 7
  21167837.484    21167843.676     7394878.631 9 -18609878.298 8
  21768859.050    21768866.640    36097139.012 8 -40456715.017 9
  24197509.742    24197516.600   -12132147.930 7  27538553.446 9
  24672521.483    24672526.512   -17656721.535 9   7220007.671 8
 86  6 13  4  7 41.0800000  0  4G12G13G 9G 7
  21169539.269    21169545.310     7403817.539 9 -18602912.912 8
  21770631.186    21770638.061    36106449.082 8 -40449460.420 9
  24202265.824    24202271.835   -12107160.016 8  27558024.538 8
                  24670569.172                     7211990.079 8
 86  6 13  4  7 47.0800000  0  4G12G13G 9G 7
  21171243.386    21171250.569     7412780.642 9 -18595928.689 8
  21772401.634    21772410.226    36115762.139 8 -40442203.509 9
  24207020.555    24207027.542   -12082169.899 8  27577497.353 7
  24668611.517    24668618.414   -17703322.138 9   7203998.906 8
 86  6 13  4  7 53.0800000  0  4G12G13G 9G 7
  21172953.775    21172961.093     7421767.918 8 -18588925.619 8
  21774174.228    21774183.192    36125078.063 8 -40434944.376 9
  24211777.377    24211782.501   -12057177.724 8  27596971.763 8
  24666667.806    24666673.873   -17713543.396 9   7196034.287 8
 86  6 13  4  7 59.0800000  0  4G12G13G 9G 7
  21174668.975    21174675.463     7430779.380 9 -18581903.708 8
  21775948.325    21775956.158    36134396.932 7 -40427682.926 9
  24216533.538    24216537.971   -12032183.406 8  27616447.864 8
  24664728.124    24664734.599   -17723734.462 8   7188093.197 9
 86  6 13  4  8  5.0800000  0  4G12G13G 9G 7
  21176388.120    21176394.841     7439815.036 8 -18574862.930 8
  21777721.949    21777729.954    36143718.699 8 -40420419.230 9
  24221290.125    24221295.584   -12007187.012 8  27635925.574 8
  24662793.614    24662800.489   -17733900.016 8   7180172.006 8
 86  6 13  4  8 11.0800000  0  4G12G13G 9G 7
  21178112.417    21178118.377     7448874.927 9 -18567803.291 8
  21779497.119    21779503.779    36153043.423 8 -40413153.212 9
  24226047.141    24226050.629   -11982188.648 8  27655404.797 8
  24660863.490    24660870.652   -17744043.747 8   7172267.813 9
 86  6 13  4  8 17.0800000  0  4G12G13G 9G 7
  21179840.931    21179845.810     7457959.012 9 -18560724.771 8
  21781272.803    21781279.721    36162371.042 8 -40405884.935 9
  24230805.341    24230809.641   -11957188.282 8  27674885.622 8
  24658937.780    24658943.003   -17754168.023 9   7164378.771 9
 86  6 13  4  8 23.0800000  0  4G12G13G 9G 7
  21181573.531    21181578.872     7467067.370 8 -18553627.368 7
  21783048.446    21783054.948    36171701.610 9 -40398614.377 8
  24235562.070    24235567.512   -11932185.772 9  27694368.086 8
  24657015.355    24657019.690   -17764274.666 9   7156503.476 9
 86  6 13  4  8 29.0800000  0  4G12G13G 9G 7
  21183312.113    21183317.027     7476199.911 9 -18546511.098 8
  21784824.502    21784831.005    36181035.122 9 -40391341.509 8
  24240320.295    24240326.094   -11907181.186 8  27713852.171 8
  24655095.540    24655100.656   -17774363.286 9   7148642.220 9
 86  6 13  4  8 35.0800000  0  4G12G13G 9G 7
  21185054.053    21185060.026     7485356.546 8 -18539376.052 9
  21786600.932    21786608.064    36190371.443 9 -40384066.441 8
  24245080.462    24245083.793   -11882174.736 8  27733337.701 8
  24653179.317    24653184.648   -17784430.450 9   7140797.672 9
 86  6 13  4  8 41.0800000  0  4G12G13G 9G 7
  21186801.595    21186807.286     7494537.189 8 -18532222.304 8
  21788378.992    21788384.464    36199710.526 9 -40376789.227 9
  24249838.959    24249842.937   -11857166.444 8  27752824.682 9
                  24651274.635                     7132975.599 9
 86  6 13  4  8 47.0800000  0  4G12G13G 9G 7
  21188553.111    21188559.317     7503741.749 9 -18525049.928 8
  21790156.308    21790162.582    36209052.346 9 -40369509.882 8
  24254598.600    24254603.077   -11832156.478 8  27772312.986 8
  24649365.159    24649372.013   -17830783.005 9   7125180.106 9
 86  6 13  4  8 53.0800000  0  4G12G13G 9G 7
  21190309.250    21190316.551     7512970.234 8 -18517858.903 8
  21791934.640    21791940.556    36218396.886 8 -40362228.427 9
  24259357.749    24259362.060   -11807144.781 8  27791802.615 8
  24647468.082    24647474.421   -17840753.295 9   7117411.050 9
 86  6 13  4  8 59.0800000  0  4G12G13G 9G 7
  21192068.594    21192076.067     7522222.673 9 -18510649.215 8
  21793714.303    21793718.702    36227744.137 9 -40354944.851 8
  24264116.575    24264122.038   -11782131.355 8  27811293.599 7
  24645576.729    24645583.139   -17850693.697 8   7109665.290 9
 86  6 13  4  9  5.0800000  0  4G12G13G 9G 7
  21193834.595    21193842.668     7531499.073 9 -18503420.860 8
  21795493.207    21795498.336    36237094.102 9 -40347659.175 9
  24268876.095    24268881.611   -11757116.281 8  27830785.857 8
  24643689.990    24643695.764   -17860608.679 9   7101939.333 9
 86  6 13  4  9 11.0800000  0  4G12G13G 9G 7
  21195605.025    21195611.882     7540799.432 8 -18496173.827 8
  21797271.454    21797277.627    36246446.873 9 -40340371.307 9
  24273637.325    24273642.844   -11732099.469 7  27850279.470 8
  24641807.780    24641812.867   -17870501.850 9   7094230.364 8
 86  6 13  4  9 17.0800000  0  4G12G13G 9G 7
  21197379.271    21197385.892     7550123.814 9 -18488908.073 8
  21799050.902    21799058.664    36255802.430 8 -40333081.267 9
  24278397.270    24278404.057   -11707080.913 8  27869774.424 8
  24639928.490    24639933.620   -17880375.586 9   7086536.546 9
 86  6 13  4  9 23.0800000  0  4G12G13G 9G 7
  21199159.188    21199165.576     7559472.122 9 -18481623.687 8
  21800832.325    21800838.756    36265160.830 8 -40325789.017 8
  24283158.457    24283165.018   -11682060.819 7  27889270.588 8
  24638052.798    24638058.107   -17890231.624 9   7078856.527 9
 86  6 13  4  9 29.0800000  0  4G12G13G 9G 7
  21200941.287    21200947.836     7568844.353 9 -18474320.641 9
  21802610.986    21802619.764    36274521.967 9 -40318494.626 9
  24287920.492    24287926.441   -11657038.897 7  27908768.182 9
  24636181.119    24636186.435   -17900069.585 9   7071190.580 9
 86  6 13  4  9 35.0800000  0  4G12G13G 9G 7
  21202729.450    21202735.952     7578240.533 8 -18466998.959 8
  21804395.342    21804402.231    36283885.793 9 -40311198.148 9
  24292682.208    24292687.696   -11632015.395 8  27928267.002 8
                  24634316.589                     7063541.808 9
 86  6 13  4  9 41.0800000  0  4G12G13G 9G 7
  21204521.586    21204528.705     7587660.538 8 -18459658.692 8
  21806178.539    21806185.242    36293252.317 8 -40303899.567 9
  24297444.912    24297450.582   -11606990.313 8  27947767.060 8
  24632389.126    24632455.106   -17946227.689 9   7055915.789 9
 86  6 13  4  9 47.0800000  0  4G12G13G 9G 7
  21206318.270    21206325.739     7597104.432 7 -18452299.818 7
  21807962.409    21807967.452    36302621.682 8 -40296598.766 9
  24302206.238    24302213.343   -11581963.704 8  27967268.294 8
  24630593.244    24630598.574   -17955979.785 9   7048316.789 8
 86  6 13  4  9 53.0800000  0  4G12G13G 9G 7
  21208120.169    21208127.538     7606572.121 8 -18444922.394 9
  21809745.077    21809751.179    36311993.771 8 -40289295.836 9
  24306970.072    24306975.782   -11556935.513 8  27986770.770 9
  24628742.922    24628748.667   -17965697.415 9   7040744.221 8
 86  6 13  4  9 59.0800000  0  4G12G13G 9G 7
  21209926.225    21209933.257     7616063.639 9 -18437526.415 8
  21811529.347    21811535.850    36321368.586 9 -40281990.803 9
  24311732.830    24311738.693   -11531905.883 7  28006274.375 9
  24626899.876    24626906.058   -17975385.776 9   7033194.857 8
 86  6 13  4 10  5.0800000  0  4G12G13G 9G 7
  21211737.068    21211744.079     7625579.009 8 -18430111.847 8
  21813314.132    21813319.977    36330746.055 8 -40274683.678 9
  24316496.113    24316501.801   -11506874.775 8  28025779.126 9
  24625061.081    24625067.277   -17985048.700 9   7025665.304 8
 86  6 13  4 10 11.0800000  0  4G12G13G 9G 7
  21213553.018    21213559.350     7635118.146 8 -18422678.760 8
  21815099.076    21815105.879    36340126.207 9 -40267374.484 8
  24321260.334    24321264.502   -11481842.238 8  28045284.997 9
  24623226.936    24623232.402   -17994689.862 9   7018152.720 8
 86  6 13  4 10 17.0800000  0  4G12G13G 9G 7
  21215373.724    21215380.091     7644681.057 8 -18415227.148 8
  21816885.164    21816892.153    36349509.108 8 -40260063.134 8
  24326024.332    24326028.908   -11456808.196 8  28064792.034 8
  24621396.368    24621402.285   -18004311.429 9   7010655.398 8
 86  6 13  4 10 23.0800000  0  4G12G13G 9G 7
  21217197.703    21217204.348     7654267.833 8 -18407756.932 9
  21818670.822    21818677.739    36358894.764 9 -40252749.632 9
  24330787.730    24330793.086   -11431772.618 8  28084300.278 8
  24619568.204    24619573.993   -18013915.124 8   7003171.995 9
 86  6 13  4 10 29.0800000  0  4G12G13G 9G 7
  21219025.225    21219033.013     7663878.478 9 -18400268.124 8
  21820458.426    21820464.328    36368283.180 9 -40245433.984 9
  24335553.160    24335557.800   -11406735.625 9  28103809.618 9
  24617744.089    24617749.821   -18023500.492 9   6995702.893 9
 86  6 13  4 10 35.0800000  0  4G12G13G 9G 7
  21220858.670    21220866.621     7673512.942 8 -18392760.756 8
  21822244.600    21822250.544    36377674.381 9 -40238116.153 9
  24340317.040    24340321.502   -11381697.206 8  28123320.066 8
                  24615930.363                     6988251.403 9
 86  6 13  4 10 41.0800000  0  4G12G13G 9G 7
  21222695.623    21222702.859     7683171.158 8 -18385234.875 8
  21824032.304    21824037.276    36387068.251 9 -40230796.265 9
  24345082.813    24345087.414   -11356657.470 9  28142831.560 8
  24614123.227    24614116.122   -18069412.888 9   6980823.115 8
 86  6 13  4 10 47.0800000  0  4G12G13G 9G 7
  21224538.918    21224545.991     7692853.106 8 -18377690.500 8
  21825820.424    21825825.839    36396464.770 9 -40223474.279 8
  24349847.689    24349851.989   -11331616.547 8  28162343.951 9
  24612302.718    24612308.786   -18078911.303 9   6973422.022 9
 86  6 13  4 10 53.0800000  0  4G12G13G 9G 7
  21226385.481    21226393.936     7702558.757 8 -18370127.655 8
  21827608.457    21827613.429    36405863.924 9 -40216150.269 8
  24354611.727    24354618.259   -11306574.269 8  28181857.414 9
  24610502.279    24610507.695   -18088375.374 8   6966047.426 8
 86  6 13  4 10 59.0800000  0  4G12G13G 9G 7
  21228238.098    21228244.473     7712288.058 9 -18362546.399 8
  21829399.038    21829403.910    36415265.630 9 -40208824.238 8
  24359377.732    24359383.056   -11281530.872 9  28201371.742 9
  24608707.749    24608712.764   -18097809.610 9   6958696.064 9
 86  6 13  4 11  5.0800000  0  4G12G13G 9G 7
  21230093.449    21230100.171     7722040.930 8 -18354946.757 8
  21831187.573    21831191.071    36424669.981 9 -40201496.164 8
  24364143.791    24364148.435   -11256486.176 8  28220887.074 8
  24606917.933    24606922.119   -18107218.581 9   6951364.412 9
 86  6 13  4 11 11.0800000  0  4G12G13G 9G 7
  21231953.809    21231960.452     7731817.425 8 -18347328.709 8
  21832978.512    21832981.265    36434076.880 9 -40194166.097 9
  24368909.958    24368915.213   -11231440.312 8  28240403.324 8
  24605131.652    24605135.880   -18116605.779 9   6944049.714 9
 86  6 13  4 11 17.0800000  0  4G12G13G 9G 7
  21233818.107    21233826.238     7741617.630 8 -18339692.183 8
  21834768.377    21834772.003    36443486.386 9 -40186833.995 9
  24373676.339    24373681.387   -11206393.320 8  28259920.456 9
  24603349.099    24603352.991   -18125973.400 8   6936750.272 9
 86  6 13  4 11 23.0800000  0  4G12G13G 9G 7
  21235688.072    21235695.877     7751441.438 8 -18332037.276 9
  21836559.515    21836563.228    36452898.517 9 -40179499.870 8
  24378442.280    24378448.487   -11181345.144 8  28279438.522 8
  24601569.851    24601574.845   -18135323.299 9   6929464.650 9
 86  6 13  4 11 29.0800000  0  4G12G13G 9G 7
  21237562.350    21237568.610     7761288.965 9 -18324363.885 8
  21838350.426    21838354.138    36462313.305 9 -40172163.675 7
  24383208.536    24383214.589   -11156295.830 9  28298957.449 8
  24599793.730    24599798.681   -18144654.606 9   6922193.512 9
 86  6 13  4 11 35.0800000  0  4G12G13G 9G 7
  21239441.301    21239447.504     7771160.202 8 -18316672.011 8
  21840142.580    21840146.335    36471730.791 9 -40164825.380 8
  24387976.280    24387982.534   -11131245.374 8  28318477.286 9
                  24598027.639                     6914940.573 9
 86  6 13  4 11 41.0800000  0  4G12G13G 9G 7
  21241323.833    21241330.772     7781055.125 8 -18308961.701 7
  21841935.808    21841939.964    36481150.984 8 -40157484.961 7
  24392742.705    24392749.738   -11106193.612 9  28337998.137 8
  24596283.463    24596261.598   -18190316.458 9   6907711.207 9
 86  6 13  4 11 47.0800000  0  4G12G13G 9G 7
  21243210.983    21243216.674     7790973.698 8 -18301232.941 8
  21843728.278    21843733.135    36490573.855 8 -40150142.462 8
  24397509.622    24397516.512   -11081140.695 8  28357519.886 7
  24594497.611    24594503.070   -18199559.281 9   6900509.235 9
 86  6 13  4 11 53.0800000  0  4G12G13G 9G 7
  21245102.779    21245109.232     7800915.816 9 -18293485.830 8
  21845521.119    21845526.362    36499999.330 8 -40142797.927 8
  24402278.082    24402283.058   -11056086.842 8  28377042.358 8
  24592745.736    24592750.230   -18208767.796 9   6893333.772 8
 86  6 13  4 11 59.0800000  0  4G12G13G 9G 7
  21246998.872    21247006.220     7810881.428 7 -18285720.430 8
  21847315.005    21847321.336    36509427.359 8 -40135451.421 9
  24407044.695    24407051.929   -11031031.879 9  28396565.709 8
  24590998.012    24591004.115   -18217947.086 9   6886181.469 9
 86  6 13  4 12  5.0800000  0  4G12G13G 9G 7
  21248900.821    21248907.045     7820870.561 8 -18277936.689 9
  21849108.320    21849115.709    36518857.991 8 -40128102.877 8
  24411813.828    24411820.299   -11005975.961 8  28416089.824 9
  24589256.054    24589261.842   -18227100.630 9   6879048.835 9
 86  6 13  4 12 11.0800000  0  4G12G13G 9G 7
  21250806.477    21250812.632     7830883.154 8 -18270134.685 8
  21850904.452    21850910.683    36528291.135 8 -40120752.370 9
  24416581.715    24416588.519   -10980919.732 8  28435614.137 8
  24587517.465    24587525.671   -18236232.232 9   6871933.308 9
 86  6 13  4 12 17.0800000  0  4G12G13G 9G 7
  21252716.314    21252721.579     7840919.251 9 -18262314.347 8
  21852700.814    21852706.429    36537726.802 9 -40113399.906 9
  24421350.532    24421356.560   -10955861.588 8  28455139.975 8
  24585783.835    24585790.632   -18245344.199 8   6864833.095 8
 86  6 13  4 12 23.0800000  0  4G12G13G 9G 7
  21254630.955    21254636.653     7850978.835 9 -18254475.714 8
  21854496.088    21854502.748    36547165.058 8 -40106045.434 9
  24426118.870    24426125.742   -10930802.745 8  28474666.339 8
  24584052.924    24584058.991   -18254438.125 9   6857746.925 8
 86  6 13  4 12 29.0800000  0  4G12G13G 9G 7
  21256548.909    21256554.282     7861061.881 9 -18246618.792 8
  21856292.678    21856299.811    36556605.869 8 -40098688.954 9
  24430888.024    24430893.605   -10905742.713 8  28494193.639 8
  24582326.827    24582333.016   -18263513.256 9   6850675.397 8
 86  6 13  4 12 35.0800000  0  4G12G13G 9G 7
  21258472.447    21258478.131     7871168.261 8 -18238743.706 7
  21858090.657    21858096.244    36566049.159 9 -40091330.551 9
  24435656.351    24435662.937   -10880682.545 8  28513721.047 8
                  24580609.495                     6843622.317 8
 86  6 13  4 12 41.0800000  0  4G12G13G 9G 7
  21260400.751    21260405.150     7881298.039 8 -18230850.365 9
  21859887.992    21859894.480    36575494.965 9 -40083970.184 9
  24440424.868    24440431.733   -10855621.666 8  28533248.996 8
  24578863.645    24578893.071   -18308918.886 9   6836593.232 9
 86  6 13  4 12 47.0800000  0  4G12G13G 9G 7
  21262331.773    21262337.624     7891451.193 8 -18222938.829 8
  21861686.357    21861692.086    36584943.295 8 -40076607.836 9
  24445194.350    24445201.094   -10830559.884 8  28552777.656 8
  24577178.444    24577183.631   -18317904.173 9   6829591.719 9
 86  6 13  4 12 53.0800000  0  4G12G13G 9G 7
  21264268.131    21264275.815     7901627.666 8 -18215009.113 8
  21863485.280    21863490.924    36594394.085 9 -40069243.600 9
  24449963.779    24449970.058   -10805497.544 8  28572306.746 8
  24575474.841    24575479.656   -18326854.972 9   6822616.686 9
 86  6 13  4 12 59.0800000  0  4G12G13G 9G 7
  21266208.991    21266216.456     7911827.501 9 -18207061.203 8
  21865283.230    21865289.160    36603847.294 9 -40061877.456 8
  24454731.742    24454739.738   -10780434.199 8  28591836.624 8
  24573776.204    24573782.357   -18335776.580 8   6815664.802 8
 86  6 13  4 13  5.0800000  0  4G12G13G 9G 7
  21268155.309    21268160.392     7922050.619 9 -18199095.135 9
  21867083.770    21867088.197    36613303.020 9 -40054509.359 8
  24459503.682    24459508.505   -10755370.294 8  28611366.944 8
  24572083.577    24572089.894   -18344673.191 9   6808732.374 8
 86  6 13  4 13 11.0800000  0  4G12G13G 9G 7
  21270104.640    21270110.731     7932297.065 9 -18191110.893 8
  21868883.379    21868888.380    36622761.282 9 -40047139.280 8
  24464272.546    24464278.871   -10730305.734 8  28630897.767 8
  24570394.842    24570400.945   -18353547.933 9   6801817.002 8
 86  6 13  4 13 17.0800000  0  4G12G13G 9G 7
  21272059.544    21272065.281     7942566.887 8 -18183108.445 8
  21870684.349    21870689.220    36632222.085 9 -40039767.232 9
  24469041.113    24469048.944   -10705240.481 7  28650429.120 8
  24568710.371    24568716.023   -18362403.030 9   6794916.929 9
 86  6 13  4 13 23.0800000  0  4G12G13G 9G 7
  21274018.107    21274023.469     7952860.021 9 -18175087.827 8
  21872484.188    21872490.089    36641685.351 9 -40032393.257 9
  24473812.341    24473818.874   -10680174.560 8  28669960.992 8
  24567028.632    24567034.864   -18371239.844 9   6788031.104 8
 86  6 13  4 13 29.0800000  0  4G12G13G 9G 7
  21275981.121    21275988.114     7963176.526 8 -18167049.004 9
  21874285.958    21874290.901    36651151.176 9 -40025017.282 9
  24478581.066    24478587.762   -10655107.941 7  28689493.419 8
  24565350.551    24565356.374   -18380057.442 9   6781160.266 8
 86  6 13  4 13 35.0800000  0  4G12G13G 9G 7
  21277948.537    21277955.474     7973516.283 8 -18158992.050 9
  21876087.342    21876092.800    36660619.502 9 -40017639.369 8
  24483350.326    24483357.900   -10630040.794 6  28709026.255 8
                  24563683.294                     6774308.205 9
 86  6 13  4 13 41.0800000  0  4G12G13G 9G 7
  21279920.581    21279926.715     7983879.338 8 -18150916.953 8
  21877889.199    21877895.301    36670090.366 9 -40010259.467 8
  24488121.995    24488129.422   -10604972.935 6  28728559.642 8
  24561949.892    24562015.858   -18425206.287 8   6767480.540 8
 86  6 13  4 13 47.0800000  0  4G12G13G 9G 7
  21281896.884    21281903.033     7994265.642 8 -18142823.730 8
  21879690.984    21879698.774    36679563.803 8 -40002877.584 8
  24492891.828    24492899.058   -10579904.521 7  28748093.454 7
  24560350.790    24560355.540   -18433932.905 9   6760680.795 9
 86  6 13  4 13 53.0800000  0  4G12G13G 9G 7
  21283877.734    21283883.890     8004675.275 9 -18134712.341 8
  21881492.367    21881501.074    36689039.794 8 -39995493.683 9
  24497664.334    24497668.956   -10554835.510 8  28767627.748 8
  24558696.039    24558700.754   -18442625.813 9   6753907.503 8
 86  6 13  4 13 59.0800000  0  4G12G13G 9G 7
  21285863.334    21285868.729     8015108.142 8 -18126582.824 9
  21883296.757    21883304.462    36698518.310 7 -39988107.839 9
  24502434.085    24502439.605   -10529766.011 7  28787162.419 7
  24557047.677    24557052.614   -18451288.580 8   6747157.296 9
 86  6 13  4 14  5.0800000  0  4G12G13G 9G 7
  21287852.065    21287858.257     8025564.313 9 -18118435.160 8
  21885101.432    21885108.507    36707999.430 8 -39980719.955 8
  24507203.836    24507210.959   -10504695.837 7  28806697.612 7
  24555404.166    24555409.533   -18459926.207 9   6740426.669 9
 86  6 13  4 14 11.0800000  0  4G12G13G 9G 7
  21289846.119    21289851.918     8036043.731 9 -18110269.383 8
  21886906.393    21886913.011    36717483.080 8 -39973330.090 8
  24511974.774    24511980.198   -10479625.288 6  28826233.096 7
  24553764.462    24553770.128   -18468541.827 9   6733713.209 9
 86  6 13  4 14 17.0800000  0  4G12G13G 9G 7
  21291846.623    21291851.934     8046546.333 9 -18102085.545 7
  21888710.740    21888718.716    36726969.235 8 -39965938.277 9
  24516745.853    24516752.006   -10454554.258 6  28845768.962 7
  24552129.343    24552134.036   -18477137.804 9   6727015.039 9
 86  6 13  4 14 23.0800000  0  4G12G13G 9G 7
  21293850.443    21293854.750     8057072.061 8 -18093883.682 8
  21890517.304    21890522.276    36736457.768 8 -39958544.619 9
  24521517.264    24521521.797   -10429482.931 6  28865305.068 9
  24550496.471    24550501.522   -18485715.403 9   6720331.202 9
 86  6 13  4 14 29.0800000  0  4G12G13G 9G 7
  21295855.765    21295861.899     8067620.963 9 -18085663.745 8
  21892323.124    21892329.212    36745948.713 8 -39951149.076 8
  24526288.638    24526292.778   -10404411.068 7  28884841.587 7
  24548867.677    24548873.071   -18494273.454 9   6713662.594 9
 86  6 13  4 14 35.0800000  0  4G12G13G 9G 7
  21297867.795    21297873.235     8078193.066 8 -18077425.759 9
  21894131.047    21894136.177    36755442.126 9 -39943751.613 9
  24531059.037    24531064.686   -10379338.851 6  28904378.362 8
                  24547249.021                     6707013.234 9
 86  6 13  4 14 41.0800000  0  4G12G13G 9G 7
  21299882.969    21299890.706     8088788.337 9 -18069169.721 8
  21895937.741    21895942.283    36764938.006 9 -39936352.222 8
  24535831.246    24535834.784   -10354266.258 6  28923915.449 7
  24545558.991    24545632.397   -18539165.063 9   6700388.610 9
 86  6 13  4 14 47.0800000  0  4G12G13G 9G 7
  21301903.219    21301910.416     8099406.593 8 -18060895.746 8
  21897745.564    21897750.449    36774436.263 9 -39928950.970 9
  24540599.476    24540606.710   -10329193.406 6  28943452.727 8
  24544014.113    24544021.468   -18547630.628 8   6693791.948 9
 86  6 13  4 14 53.0800000  0  4G12G13G 9G 7
  21303927.938    21303936.119     8110047.904 8 -18052603.828 8
  21899554.160    21899558.473    36783936.887 9 -39921547.878 8
  24545371.320    24545379.434   -10304120.176 6  28962990.294 7
  24542409.860    24542416.778   -18556062.018 9   6687221.656 9
 86  6 13  4 14 59.0800000  0  4G12G13G 9G 7
  21305958.802    21305964.944     8120712.267 9 -18044293.942 8
  21901362.570    21901366.583    36793439.871 9 -39914142.939 8
  24550142.535    24550149.535   -10279046.759 6  28982528.033 7
  24540811.508    24540816.409   -18564464.293 9   6680674.437 9
 86  6 13  4 15  5.0800000  0  4G12G13G 9G 7
  21307992.850    21307998.759     8131399.628 8 -18035966.131 9
  21903171.123    21903175.007    36802945.241 9 -39906736.159 8
  24554912.790    24554920.689   -10253973.132 7  29002065.894 7
  24539216.462    24539222.472   -18572841.598 8   6674146.676 9
 86  6 13  4 15 11.0800000  0  4G12G13G 9G 7
  21310031.727    21310037.762     8142109.997 8 -18027620.386 8
  21904979.733    21904985.378    36812453.066 9 -39899327.463 8
  24559686.436    24559692.175   -10228899.416 6  29021603.860 8
  24537626.962    24537632.134   -18581196.949 9   6667636.007 9
 86  6 13  4 15 17.0800000  0  4G12G13G 9G 7
  21312074.926    21312079.183     8152843.439 8 -18019256.677 8
  21906789.889    21906794.975    36821963.362 9 -39891916.834 9
  24564458.270    24564464.487   -10203825.495 7  29041141.946 7
  24536040.752    24536045.982   -18589532.509 9   6661140.760 8
 86  6 13  4 15 23.0800000  0  4G12G13G 9G 7
  21314119.924    21314127.200     8163599.825 9 -18010875.072 8
  21908600.660    21908605.374    36831475.992 9 -39884504.398 8
  24569230.639    24569234.532   -10178751.400 6  29060680.210 8
  24534458.041    24534463.736   -18597849.722 9   6654659.815 9
 86  6 13  4 15 29.0800000  0  4G12G13G 9G 7
  21316172.074    21316177.715     8174379.116 9 -18002475.640 8
  21910412.533    21910415.830    36840990.975 9 -39877090.106 8
  24574000.229    24574006.987   -10153677.297 7  29080218.455 7
  24532878.027    24532884.881   -18606147.405 8   6648194.100 9
 86  6 13  4 15 35.0800000  0  4G12G13G 9G 7
  21318227.149    21318233.373     8185181.205 9 -17994058.430 9
  21912223.147    21912227.259    36850508.203 9 -39869674.076 9
  24578773.807    24578778.229   -10128603.171 7  29099756.754 8
                  24531310.540                     6641748.038 8
 86  6 13  4 15 41.0800000  0  4G12G13G 9G 7
  21320286.267    21320294.007     8196006.074 8 -17985623.477 8
  21914034.161    21914039.261    36860027.714 9 -39862256.269 9
  24583543.959    24583549.336   -10103528.982 7  29119295.063 8
  24529737.631    24529742.331   -18650771.136 9   6635327.057 9
 86  6 13  4 15 47.0800000  0  4G12G13G 9G 7
  21322351.358    21322357.740     8206853.818 9 -17977170.684 8
  21915846.463    21915850.834    36869549.539 9 -39854836.668 9
  24588313.532    24588321.270   -10078454.839 7  29138833.337 7
  24528176.670    24528182.164   -18658975.593 9   6628933.960 9
 86  6 13  4 15 53.0800000  0  4G12G13G 9G 7
  21324421.054    21324426.065     8217724.534 9 -17968700.010 9
  21917657.749    21917663.407    36879073.795 9 -39847415.163 9
  24593085.929    24593091.900   -10053380.603 7  29158371.704 7
  24526621.361    24526626.312   -18667146.092 9   6622567.348 9
 86  6 13  4 15 59.0800000  0  4G12G13G 9G 7
  21326493.555    21326499.986     8228618.101 9 -17960211.519 8
  21919470.609    21919476.267    36888600.492 9 -39839991.762 9
  24597858.103    24597862.821   -10028306.425 6  29177910.028 7
  24525072.384    24525077.635   -18675287.114 9   6616223.686 9
 86  6 13  4 16  5.0800000  0  4G12G13G 9G 7
  21328570.852    21328576.285     8239534.468 9 -17951705.256 8
  21921284.685    21921289.700    36898129.462 9 -39832566.590 8
  24602629.048    24602635.366   -10003232.325 7  29197448.284 8
  24523528.607    24523531.548   -18683403.196 9   6609899.462 9
 86  6 13  4 16 11.0800000  0  4G12G13G 9G 7
  21330653.032    21330658.627     8250473.606 8 -17943181.255 9
  21923098.104    21923103.419    36907660.693 8 -39825139.661 9
  24607402.237    24607407.442    -9978158.231 6  29216986.519 7
  24521988.072    24521991.607   -18691497.393 9   6603592.286 8
 86  6 13  4 16 17.0800000  0  4G12G13G 9G 7
  21332738.548    21332744.199     8261435.535 9 -17934639.502 8
  21924912.553    21924916.709    36917194.126 9 -39817711.010 8
  24612172.793    24612178.642    -9953084.276 7  29236524.648 8
  24520451.473    24520455.837   -18699571.761 9   6597300.559 8
 86  6 13  4 16 23.0800000  0  4G12G13G 9G 7
  21334828.179    21334835.030     8272420.147 9 -17926080.061 9
  21926724.726    21926731.057    36926729.782 9 -39810280.634 8
  24616944.665    24616949.384    -9928010.584 7  29256062.574 7
  24518917.649    24518922.922   -18707627.663 9   6591023.227 9
 86  6 13  4 16 29.0800000  0  4G12G13G 9G 7
  21336922.455    21336928.815     8283427.588 9 -17917502.847 8
  21928539.518    21928546.922    36936267.782 8 -39802848.432 9
  24621716.277    24621720.205    -9902936.991 6  29275600.438 7
  24517389.112    24517393.756   -18715663.497 9   6584761.549 9
 86  6 13  4 16 35.0800000  0  4G12G13G 9G 7
  21339022.679    21339027.633     8294457.874 9 -17908907.819 9
  21930354.137    21930361.499    36945808.183 8 -39795414.362 7
  24626486.467    24626489.852    -9877863.472 7  29295138.226 7
                  24515869.841                     6578519.952 8
 86  6 13  4 16 41.0800000  0  4G12G13G 9G 7
  21341125.358    21341131.829     8305510.927 9 -17900295.059 8
  21932170.433    21932177.651    36955351.016 8 -39787978.384 8
  24631259.198    24631262.766    -9852790.154 7  29314675.872 7
  24514347.028    24514351.893   -18760029.825 9   6572303.912 8
 86  6 13  4 16 47.0800000  0  4G12G13G 9G 7
  21343233.381    21343239.272     8316586.735 8 -17891664.558 9
  21933986.212    21933994.259    36964896.027 8 -39780540.716 8
  24636028.778    24636034.212    -9827717.019 8  29334213.377 8
  24512836.092    24512840.320   -18767971.078 9   6566115.893 9
 86  6 13  4 16 53.0800000  0  4G12G13G 9G 7
  21345345.525    21345351.352     8327685.280 9 -17883016.339 8
  21935803.708    21935811.068    36974443.257 8 -39773101.296 8
  24640800.264    24640805.672    -9802644.097 7  29353750.713 7
  24511331.687    24511335.994   -18775878.626 9   6559954.166 9
 86  6 13  4 16 59.0800000  0  4G12G13G 9G 7
  21347461.325    21347467.853     8338806.545 8 -17874350.425 8
  21937621.376    21937627.964    36983992.824 9 -39765660.082 8
  24645572.759    24645576.884    -9777571.475 8  29373287.833 8
  24509831.240    24509837.607   -18783756.764 9   6553815.363 9
 86  6 13  4 17  5.0800000  0  4G12G13G 9G 7
  21349581.947    21349588.285     8349950.483 9 -17865666.845 8
  21939439.502    21939445.546    36993544.666 9 -39758217.073 8
  24650343.915    24650348.269    -9752499.160 8  29392824.676 8
  24508336.509    24508343.077   -18791609.862 9   6547696.061 9
 86  6 13  4 17 11.0800000  0  4G12G13G 9G 7
  21351706.168    21351713.698     8361117.084 9 -17856965.604 9
  21941257.213    21941263.930    37003098.778 9 -39750772.291 8
  24655114.160    24655119.619    -9727427.191 8  29412361.282 8
  24506846.328    24506852.638   -18799441.023 9   6541593.868 9
 86  6 13  4 17 17.0800000  0  4G12G13G 9G 7
  21353835.959    21353842.558     8372306.374 8 -17848246.686 8
  21943076.884    21943082.141    37012655.173 9 -39743325.745 8
  24659884.887    24659891.237    -9702355.494 8  29431897.669 8
  24505361.027    24505365.692   -18807252.598 9   6535506.943 9
 86  6 13  4 17 23.0800000  0  4G12G13G 9G 7
  21355969.513    21355976.131     8383518.218 9 -17839510.181 9
  21944896.169    21944899.925    37022213.840 9 -39735877.409 9
  24664655.973    24664661.511    -9677284.151 8  29451433.766 7
  24503877.414    24503882.085   -18815045.350 9   6529434.664 9
 86  6 13  4 17 29.0800000  0  4G12G13G 9G 7
  21358106.738    21358114.388     8394752.702 9 -17830756.036 8
  21946715.941    21946720.368    37031774.790 9 -39728427.316 8
  24669426.264    24669432.178    -9652213.155 9  29470969.583 7
  24502397.937    24502403.223   -18822817.595 9   6523378.370 8
 86  6 13  4 17 35.0800000  0  4G12G13G 9G 7
  21360249.989    21360255.848     8406009.776 8 -17821984.300 8
  21948535.498    21948539.811    37041338.050 9 -39720975.396 8
  24674198.036    24674201.639    -9627142.617 8  29490505.068 8
                  24500928.797                     6517342.480 8
 86  6 13  4 17 41.0800000  0  4G12G13G 9G 7
  21362396.061    21362402.614     8417289.353 9 -17813195.020 9
  21950356.013    21950360.570    37050903.519 9 -39713521.776 8
  24678968.435    24678973.282    -9602072.460 8  29510040.264 7
  24499457.847    24499459.779   -18866927.546 9   6511332.498 9
 86  6 13  4 17 47.0800000  0  4G12G13G 9G 7
  21364546.707    21364551.972     8428591.599 9 -17804388.078 8
  21952176.843    21952181.958    37060471.334 9 -39706066.327 8
  24683739.166    24683743.817    -9577002.588 8  29529575.226 7
  24497995.169    24498000.857   -18874604.090 8   6505350.723 9
 86  6 13  4 17 53.0800000  0  4G12G13G 9G 7
  21366701.582    21366707.234     8439916.403 8 -17795563.554 8
  21953998.146    21954003.318    37070041.497 9 -39698609.042 8
  24688509.582    24688515.124    -9551933.239 7  29549109.774 7
  24496540.976    24496547.079   -18882246.923 9   6499395.279 9
 86  6 13  4 17 59.0800000  0  4G12G13G 9G 7
  21368860.041    21368868.058     8451263.738 8 -17786721.485 9
  21955819.806    21955824.392    37079613.862 9 -39691150.055 9
  24693279.290    24693284.099    -9526864.301 9  29568644.000 7
  24495091.483    24495096.914   -18889860.462 9   6493462.662 9
 86  6 13  4 18  5.0800000  0  4G12G13G 9G 7
  21371025.158    21371030.856     8462633.619 9 -17777861.845 8
  21957641.381    21957646.524    37089188.397 9 -39683689.361 8
  24698050.197    24698055.964    -9501795.943 9  29588177.777 6
  24493647.364    24493653.638   -18897449.127 9   6487549.415 8
 86  6 13  4 18 11.0800000  0  4G12G13G 9G 7
  21373192.722    21373198.892     8474025.957 8 -17768984.702 8
  21959463.413    21959469.458    37098765.201 9 -39676226.918 8
  24702821.232    24702826.831    -9476728.122 7  29607711.132 7
  24492207.029    24492214.183   -18905015.671 9   6481653.410 9
 86  6 13  4 18 17.0800000  0  4G12G13G 9G 7
  21375365.379    21375371.729     8485440.711 7 -17760090.091 8
  21961285.946    21961291.505    37108344.229 9 -39668762.731 8
  24707591.047    24707596.435    -9451660.844 8  29627244.069 7
  24490772.053    24490777.856   -18912562.430 9   6475772.822 8
 86  6 13  4 18 23.0800000  0  4G12G13G 9G 7
  21377541.238    21377548.131     8496877.921 8 -17751177.987 9
  21963109.166    21963114.896    37117925.508 8 -39661296.796 8
  24712361.800    24712366.712    -9426594.185 8  29646776.540 7
  24489340.475    24489344.747   -18920090.308 9   6469906.936 9
 86  6 13  4 18 29.0800000  0  4G12G13G 9G 7
  21379721.398    21379728.577     8508337.572 9 -17742248.391 9
  21964932.172    21964937.773    37127509.067 9 -39653829.085 9
  24717131.197    24717136.134    -9401528.184 8  29666308.477 6
  24487911.352    24487916.510   -18927597.484 9   6464057.175 8
 86  6 13  4 18 35.0800000  0  4G12G13G 9G 7
  21381906.915    21381913.036     8519819.643 9 -17733301.316 7
  21966756.780    21966762.682    37137094.881 9 -39646359.627 9
  24721900.007    24721904.551    -9376462.765 9  29685839.953 7
                  24486491.652                     6458228.226 8
 86  6 13  4 18 41.0800000  0  4G12G13G 9G 7
  21384096.722    21384102.249     8531324.167 9 -17724336.771 8
  21968580.629    21968587.447    37146682.923 9 -39638888.416 8
  24726670.116    24726676.190    -9351398.063 8  29705370.889 7
  24485069.102    24485076.458   -18971441.317 8   6452425.481 9
 86  6 13  4 18 47.0800000  0  4G12G13G 9G 7
  21386289.921    21386295.627     8542850.972 9 -17715354.831 8
  21970405.710    21970412.012    37156273.108 9 -39631415.552 8
  24731440.421    24731445.437    -9326334.075 8  29724901.266 7
  24483660.914    24483665.521   -18978851.972 9   6446650.951 8
 86  6 13  4 18 53.0800000  0  4G12G13G 9G 7
  21388487.527    21388492.506     8554400.101 9 -17706355.516 9
  21972232.092    21972238.266    37165865.451 9 -39623941.013 8
  24736208.409    24736214.387    -9301270.818 9  29744431.097 7
  24482256.702    24482262.097   -18986229.525 9   6440902.594 8
 86  6 13  4 18 59.0800000  0  4G12G13G 9G 7
  21390689.046    21390695.900     8565971.472 9 -17697338.864 8
  21974057.272    21974063.346    37175459.854 9 -39616464.862 9
  24740979.133    24740984.188    -9276208.445 8  29763960.207 8
  24480858.930    24480863.824   -18993577.439 9   6435176.949 8
 86  6 13  4 19  5.0800000  0  4G12G13G 9G 7
  21392895.305    21392901.450     8577565.007 9 -17688304.954 9
  21975882.753    21975889.657    37185056.314 9 -39608987.093 9
  24745747.804    24745751.488    -9251146.951 7  29783488.648 7
  24479466.038    24479470.495   -19000900.570 9   6429470.611 8
 86  6 13  4 19 11.0800000  0  4G12G13G 9G 7
  21395106.104    21395112.618     8589180.694 8 -17679253.773 9
  21977710.066    21977715.996    37194654.820 8 -39601507.751 8
  24750515.594    24750520.678    -9226086.317 8  29803016.411 6
  24478075.442    24478080.407   -19008201.788 9   6423781.343 8
 86  6 13  4 19 17.0800000  0  4G12G13G 9G 7
  21397319.772    21397326.507     8600818.665 8 -17670185.223 9
  21979537.722    21979543.051    37204255.505 8 -39594026.701 9
  24755283.753    24755291.216    -9201026.495 8  29822543.540 6
  24476689.375    24476694.090   -19015483.184 9   6418107.535 8
 86  6 13  4 19 23.0800000  0  4G12G13G 9G 7
  21399538.634    21399545.211     8612478.859 9 -17661099.363 8
  21981364.777    21981370.478    37213858.338 9 -39586543.967 8
  24760054.113    24760058.677    -9175967.681 8  29842069.884 6
  24475307.578    24475312.129   -19022745.669 9   6412448.444 9
 86  6 13  4 19 29.0800000  0  4G12G13G 9G 7
  21401761.574    21401768.660     8624161.220 9 -17651996.226 9
  21983192.318    21983197.848    37223463.300 9 -39579059.574 9
  24764821.134    24764825.918    -9150909.694 8  29861595.562 8
  24473930.018    24473934.476   -19029987.253 9   6406805.658 8
 86  6 13  4 19 35.0800000  0  4G12G13G 9G 7
  21403989.407    21403995.635     8635865.818 8 -17642875.754 9
  21985021.190    21985025.703    37233070.431 9 -39571573.478 9
  24769588.066    24769594.870    -9125852.645 8  29881120.518 7
                  24472561.480                     6401184.146 8
 86  6 13  4 19 41.0800000  0  4G12G13G 9G 7
  21406221.073    21406227.568     8647592.765 8 -17633737.886 8
  21986849.676    21986854.819    37242679.848 8 -39564085.618 9
  24774356.880    24774365.065    -9100796.350 6  29900644.894 7
  24471190.902    24471195.946   -19073562.649 9   6395589.255 9
 86  6 13  4 19 47.0800000  0  4G12G13G 9G 7
  21408455.757    21408462.710     8659342.074 8 -17624582.594 8
  21988678.720    21988683.563    37252291.523 9 -39556595.989 8
  24779125.139    24779131.904    -9075740.942 7  29920168.563 8
  24469832.445    24469837.325   -19080706.295 9   6390022.769 9
 86  6 13  4 19 53.0800000  0  4G12G13G 9G 7
  21410697.410    21410704.413     8671113.630 8 -17615409.943 7
  21990508.422    21990511.905    37261905.395 9 -39549104.645 8
  24783894.217    24783899.938    -9050686.394 7  29939691.568 8
  24468479.189    24468484.505   -19087816.256 9   6384482.554 9
 86  6 13  4 19 59.0800000  0  4G12G13G 9G 7
  21412941.145    21412947.004     8682907.455 9 -17606219.947 8
  21992337.337    21992342.538    37271521.436 9 -39541611.612 9
  24788660.777    24788666.720    -9025632.757 8  29959213.883 8
  24467131.291    24467136.071   -19094897.082 9   6378965.024 8
 86  6 13  4 20  5.0800000  0  4G12G13G 9G 7
  21415189.112    21415195.328     8694723.431 8 -17597012.696 8
  21994167.712    21994173.170    37281139.707 9 -39534116.866 9
  24793428.157    24793434.814    -9000580.073 8  29978735.448 7
  24465788.488    24465793.038   -19101953.004 9   6373466.922 9
 86  6 13  4 20 11.0800000  0  4G12G13G 9G 7
  21417440.792    21417448.382     8706561.477 8 -17587788.249 8
  21995998.587    21996003.831    37290760.108 9 -39526620.444 8
  24798196.169    24798201.228    -8975528.403 8  29998256.220 8
  24464449.835    24464454.185   -19108987.040 9   6367985.837 8
 86  6 13  4 20 17.0800000  0  4G12G13G 9G 7
  21419698.414    21419705.304     8718421.620 8 -17578546.584 9
  21997829.692    21997834.863    37300382.577 8 -39519122.386 8
  24802963.155    24802968.182    -8950477.840 8  30017776.120 9
  24463115.202    24463120.024   -19116001.085 9   6362520.357 8
 86  6 13  4 20 23.0800000  0  4G12G13G 9G 7
  21421959.760    21421966.849     8730303.844 9 -17569287.717 7
  21999660.867    21999665.409    37310007.114 9 -39511622.738 8
  24807729.722    24807735.181    -8925428.360 8  30037295.195 8
  24461783.875    24461788.475   -19122996.042 9   6357069.739 9
 86  6 13  4 20 29.0800000  0  4G12G13G 9G 7
  21424225.220    21424230.811     8742208.093 8 -17560011.684 9
  22001492.659    22001497.530    37319633.793 9 -39504121.416 9
  24812495.885    24812502.332    -8900380.032 9  30056813.387 7
  24460457.226    24460461.547   -19129969.668 9   6351635.741 9
 86  6 13  4 20 35.0800000  0  4G12G13G 9G 7
  21426494.095    21426501.200     8754134.416 8 -17550718.444 8
  22003325.308    22003330.652    37329262.581 9 -39496618.435 9
  24817262.267    24817268.327    -8875332.840 9  30076330.676 8
                  24459138.291                     6346223.365 8
 86  6 13  4 20 41.0800000  0  4G12G13G 9G 7
  21428768.302    21428776.794     8766082.778 8 -17541408.031 8
  22005158.731    22005162.486    37338893.450 9 -39489113.877 8
  24822027.928    24822034.322    -8850286.860 8  30095847.019 8
  24457819.584    24457823.640   -19173284.075 9   6340837.742 9
 86  6 13  4 20 47.0800000  0  4G12G13G 9G 7
  21431045.717    21431053.894     8778053.134 9 -17532080.484 9
  22006991.209    22006996.724    37348526.400 9 -39481607.667 8
  24826794.496    24826800.163    -8825241.934 8  30115362.527 8
  24456511.216    24456516.246   -19180159.101 9   6335480.585 8
 86  6 13  4 20 53.0800000  0  4G12G13G 9G 7
  21433328.108    21433336.261     8790045.474 9 -17522735.819 9
  22008824.388    22008830.018    37358161.481 9 -39474099.802 8
  24831560.895    24831566.183    -8800198.309 8  30134877.036 8
  24455210.116    24455214.803   -19187000.647 9   6330149.521 9
 86  6 13  4 20 59.0800000  0  4G12G13G 9G 7
  21435614.549    21435622.276     8802059.727 9 -17513374.059 8
  22010657.510    22010664.685    37367798.647 9 -39466590.305 8
  24836325.448    24836331.347    -8775155.874 8  30154390.629 8
  24453913.454    24453917.567   -19193813.222 9   6324841.024 8
 86  6 13  4 21  5.0800000  0  4G12G13G 9G 7
  21437904.689    21437912.694     8814095.788 9 -17503995.318 9
  22012491.877    22012497.636    37377437.863 9 -39459079.227 8
  24841090.223    24841095.929    -8750114.721 8  30173903.200 8
  24452621.977    24452626.019   -19200600.991 9   6319551.853 8
 86  6 13  4 21 11.0800000  0  4G12G13G 9G 7
  21440199.218    21440207.238     8826153.686 9 -17494599.544 8
  22014326.258    22014332.732    37387079.110 9 -39451566.567 8
  24845856.286    24845861.220    -8725074.995 8  30193414.673 7
  24451335.008    24451339.065   -19207366.765 9   6314279.820 8
 86  6 13  4 21 17.0800000  0  4G12G13G 9G 7
  21442497.578    21442506.546     8838233.431 8 -17485186.760 8
  22016161.927    22016167.428    37396722.376 9 -39444052.328 9
  24850620.495    24850626.635    -8700036.558 8  30212925.138 9
  24450050.895    24450056.360   -19214112.749 9   6309023.204 9
 86  6 13  4 21 23.0800000  0  4G12G13G 9G 7
  21444800.864    21444808.780     8850335.034 8 -17475756.950 8
  22017996.394    22018002.754    37406367.783 8 -39436536.424 9
  24855385.514    24855390.841    -8674999.505 9  30232434.518 9
  24448770.980    24448776.503   -19220839.530 9   6303781.554 9
 86  6 13  4 21 29.0800000  0  4G12G13G 9G 7
  21447107.403    21447115.597     8862458.424 9 -17466310.147 8
  22019832.922    22019838.852    37416015.202 9 -39429018.957 9
  24860148.586    24860154.965    -8649963.902 9  30251942.769 9
  24447495.215    24447500.238   -19227544.543 9   6298556.874 8
 86  6 13  4 21 35.0800000  0  4G12G13G 9G 7
  21449419.596    21449426.721     8874603.602 9 -17456846.370 8
  22021668.977    22021675.609    37425664.519 9 -39421500.005 8
  24864913.250    24864918.534    -8624929.792 9  30271449.850 8
                  24446229.180                     6293354.101 8
 86  6 13  4 21 41.0800000  0  4G12G13G 9G 7
  21451734.483    21451741.190     8886770.590 8 -17447365.616 8
  22023506.664    22023511.507    37435315.830 9 -39413979.496 9
  24869676.468    24869681.563    -8599897.046 8  30290955.884 8
  24444961.329    24444965.629   -19270589.658 9   6288178.346 9
 86  6 13  4 21 47.0800000  0  4G12G13G 9G 7
  21454053.828    21454060.549     8898959.352 8 -17437867.872 8
  22025343.349    22025348.807    37444969.175 9 -39406457.407 9
  24874439.351    24874445.559    -8574865.799 9  30310460.749 9
  24443703.708    24443707.836   -19277195.363 9   6283031.042 8
 86  6 13  4 21 53.0800000  0  4G12G13G 9G 7
  21456377.308    21456384.491     8911169.801 8 -17428353.246 8
  22027180.292    22027186.136    37454624.513 8 -39398933.761 9
  24879202.849    24879209.006    -8549836.030 9  30329964.458 8
  24442451.761    24442457.399   -19283767.720 9   6277909.727 9
 86  6 13  4 21 59.0800000  0  4G12G13G 9G 7
  21458705.317    21458711.573     8923402.020 9 -17418821.651 8
  22029017.849    22029024.209    37464281.857 9 -39391408.567 9
  24883965.335    24883971.378    -8524807.785 9  30349466.966 9
  24441207.040    24441212.249   -19290311.317 9   6272810.823 9
 86  6 13  4 22  5.0800000  0  4G12G13G 9G 7
  21461037.555    21461045.012     8935655.942 8 -17409273.140 8
  22030856.437    22030862.683    37473941.192 9 -39383881.806 9
  24888726.400    24888733.895    -8499781.101 8  30368968.276 9
  24439966.712    24439972.035   -19296830.212 9   6267731.168 8
 86  6 13  4 22 11.0800000  0  4G12G13G 9G 7
  21463373.620    21463380.416     8947931.469 9 -17399707.798 8
  22032695.169    22032701.184    37483602.554 9 -39376353.468 9
  24893489.283    24893496.259    -8474756.032 7  30388468.319 9
  24438730.748    24438735.699   -19303327.119 9   6262668.636 8
 86  6 13  4 22 17.0800000  0  4G12G13G 9G 7
  21465713.118    21465721.385     8960228.638 9 -17390125.589 8
  22034534.658    22034540.545    37493265.929 9 -39368823.556 9
  24898251.890    24898258.605    -8449732.491 7  30407967.173 9
  24437498.670    24437502.426   -19309804.061 9   6257621.662 8
 86  6 13  4 22 23.0800000  0  4G12G13G 9G 7
  21468058.452    21468065.149     8972547.496 8 -17380526.479 8
  22036374.234    22036378.733    37502931.249 9 -39361292.122 9
  24903013.835    24903019.409    -8424710.646 8  30427464.690 9
  24436269.317    24436273.824   -19316261.640 9   6252589.799 8
 86  6 13  4 22 29.0800000  0  4G12G13G 9G 7
  21470407.496    21470412.529     8984888.051 9 -17370910.466 8
  22038214.539    22038218.580    37512598.557 9 -39353759.144 9
  24907773.849    24907781.011    -8399690.367 8  30446961.016 9
  24435044.586    24435049.015   -19322697.199 9   6247575.075 7
 86  6 13  4 22 35.0800000  0  4G12G13G 9G 7
  21472758.192    21472764.502     8997250.228 8 -17361277.615 9
  22040054.558    22040057.541    37522267.917 9 -39346224.571 8
  24912534.614    24912542.216    -8374671.711 7  30466456.066 8
                  24433829.506                     6242582.724 8
 86  6 13  4 22 41.0800000  0  4G12G13G 9G 7
  21475114.286    21475121.304     9009634.083 8 -17351627.869 8
  22041894.133    22041899.191    37531939.315 9 -39338688.403 9
  24917295.279    24917302.316    -8349654.699 8  30485949.817 8
  24432612.610    24432617.818   -19365472.290 9   6237617.724 9
 86  6 13  4 22 47.0800000  0  4G12G13G 9G 7
  21477474.766    21477482.443     9022039.551 9 -17341961.269 8
  22043735.684    22043739.210    37541612.677 9 -39331150.711 8
  24922056.662    24922062.522    -8324639.326 8  30505442.328 8
  24431407.297    24431412.554   -19371807.503 9   6232681.203 9
 86  6 13  4 22 53.0800000  0  4G12G13G 9G 7
  21479840.977    21479847.566     9034466.620 8 -17332277.837 8
  22045576.890    22045580.145    37551288.106 9 -39323611.409 8
  24926817.577    24926821.749    -8299625.615 9  30524933.537 9
  24430207.134    24430212.729   -19378108.805 9   6227770.708 8
 86  6 13  4 22 59.0800000  0  4G12G13G 9G 7
  21482210.232    21482215.991     9046915.251 9 -17322577.612 9
  22047418.511    22047422.510    37560965.629 8 -39316070.462 9
  24931574.643    24931582.220    -8274613.618 8  30544423.398 8
  24429013.726    24429018.276   -19384381.919 8   6222882.553 8
 86  6 13  4 23  5.0800000  0  4G12G13G 9G 7
  21484582.814    21484590.097     9059385.476 8 -17312860.564 8
  22049260.205    22049263.245    37570645.124 9 -39308527.996 7
  24936334.893    24936341.486    -8249603.450 8  30563911.849 8
  24427824.231    24427830.420   -19390630.426 9   6218013.594 9
 86  6 13  4 23 11.0800000  0  4G12G13G 9G 7
  21486959.761    21486965.598     9071877.157 8 -17303126.782 8
  22051101.841    22051105.639    37580326.679 9 -39300983.907 8
  24941093.662    24941099.618    -8224595.019 7  30583398.918 8
  24426639.802    24426646.170   -19396856.829 9   6213161.850 8
 86  6 13  4 23 17.0800000  0  4G12G13G 9G 7
  21489340.639    21489347.950     9084390.252 7 -17293376.326 8
  22052943.620    22052948.119    37590010.117 9 -39293438.366 9
  24945852.237    24945859.171    -8199588.384 7  30602884.585 9
  24425458.335    24425465.361   -19403063.248 9   6208325.665 8
 86  6 13  4 23 23.0800000  0  4G12G13G 9G 7
  21491726.915    21491732.888     9096924.733 8 -17283609.190 8
  22054785.800    22054792.746    37599695.382 9 -39285891.401 8
  24950609.965    24950617.202    -8174583.624 8  30622368.820 9
  24424280.639    24424287.635   -19409250.152 9   6203504.710 9
 86  6 13  4 23 29.0800000  0  4G12G13G 9G 7
  21494115.723    21494120.917     9109480.671 8 -17273825.356 8
  22056629.181    22056634.911    37609382.596 9 -39278342.911 8
  24955368.973    24955375.248    -8149580.780 9  30641851.553 9
  24423108.250    24423114.596   -19415414.701 9   6198701.169 9
 86  6 13  4 23 35.0800000  0  4G12G13G 9G 7
  21496508.181    21496514.204     9122058.084 8 -17264024.786 8
  22058472.592    22058479.995    37619071.800 9 -39270792.886 8
  24960125.989    24960133.104    -8124579.764 8  30661332.842 8
                  24421947.067                     6193920.416 8
 86  6 13  4 23 41.0800000  0  4G12G13G 9G 7
  21498905.886    21498911.703     9134656.941 9 -17254207.497 8
  22060316.760    22060325.109    37628762.990 7 -39263241.305 7
  24964882.758    24964889.831    -8099580.673 8  30680812.656 9
  24420780.231    24420787.091   -19457923.997 9   6189167.172 8
 86  6 13  4 23 47.0800000  0  4G12G13G 9G 7
  21501308.374    21501314.899     9147277.176 8 -17244373.548 9
  22062163.390    22062168.648    37638456.156 8 -39255688.156 8
  24969639.996    24969646.482    -8074583.477 7  30700290.983 9
  24419626.180    24419633.119   -19463987.415 9   6184442.439 8
 86  6 13  4 23 53.0800000  0  4G12G13G 9G 7
  21503713.019    21503720.217     9159918.698 8 -17234523.034 9
  22064007.201    22064012.874    37648151.289 9 -39248133.526 8
  24974395.920    24974403.104    -8049588.365 7  30719767.686 8
  24418478.225    24418484.706   -19470017.584 9   6179743.606 8
 86  6 13  4 23 59.0800000  0  4G12G13G 9G 7
  21506121.256    21506130.221     9172581.508 8 -17224655.912 9
  22065851.598    22065858.416    37657848.274 8 -39240577.419 8
  24979153.097    24979158.986    -8024595.216 7  30739242.854 9
  24417335.965    24417342.039   -19476019.276 9   6175066.975 8
 86  6 13  4 24  5.0800000  0  4G12G13G 9G 7
  21508536.126    21508544.006     9185265.589 8 -17214772.222 8
  22067698.701    22067705.103    37667547.159 8 -39233019.852 8
  24983908.206    24983915.010    -7999604.157 7  30758716.408 8
  24416199.600    24416204.337   -19481996.292 9   6170409.566 8
 86  6 13  4 24 11.0800000  0  3G12G13G 7
  21510954.136    21510961.390     9197970.988 9 -17204871.921 8
  22069544.544    22069549.930    37677247.999 8 -39225460.763 8
  24415067.593    24415071.620   -19487951.296 9   6165769.305 9
 86  6 13  4 24 17.0800000  0  3G12G13G 7
  21513376.374    21513382.137     9210697.627 9 -17194955.057 9
  22071390.501    22071394.986    37686950.698 8 -39217900.206 9
  24413938.719    24413942.876   -19493886.236 9   6161144.671 8
 86  6 13  4 24 23.0800000  0  3G12G13G 7
  21515801.844    21515809.262     9223445.510 8 -17185021.652 8
  22073237.403    22073243.218    37696655.319 8 -39210338.164 8
  24412812.800    24412816.270   -19499801.474 9   6156535.393 9
 86  6 13  4 24 29.0800000  0  3G12G13G 7
  21518230.321    21518237.468     9236214.617 7 -17175071.703 7
  22075083.474    22075088.790    37706361.820 9 -39202774.645 9
  24411690.201    24411694.687   -19505694.069 9   6151943.760 8
 86  6 13  4 24 35.0800000  0  3G12G13G 7
  21520665.219    21520672.510     9249004.894 8 -17165105.266 9
  22076932.337    22076936.622    37716070.234 8 -39195209.658 9
                  24410579.915                     6147375.263 8
 86  6 13  4 24 41.0800000  0  3G12G13G 7
  21523103.359    21523110.470     9261816.392 8 -17155122.277 8
  22078780.011    22078784.424    37725780.525 8 -39187643.185 8
  24409464.735    24409471.153   -19547923.697 9   6142834.568 8
 86  6 13  4 24 47.0800000  0  3G12G13G 7
  21525545.426    21525552.445     9274649.107 9 -17145122.757 8
  22080628.472    22080632.771    37735492.724 9 -39180075.244 9
  24408362.655    24408369.166   -19553714.308 8   6138322.413 9
 86  6 13  4 24 53.0800000  0  3G12G13G 7
  21527993.078    21527998.336     9287502.955 8 -17135106.784 8
  22082476.447    22082481.720    37745206.835 9 -39172505.791 8
  24407267.444    24407272.724   -19559472.322 8   6133836.032 9
 86  6 13  4 24 59.0800000  0  3G12G13G 7
  21530442.110    21530446.160     9300377.925 9 -17125074.339 8
  22084326.068    22084331.783    37754922.843 9 -39164934.868 8
  24406177.656    24406182.700   -19565201.334 9   6129371.876 8
 86  6 13  4 25  5.0800000  0  3G12G13G 7
  21532896.312    21532901.166     9313274.107 8 -17115025.366 8
  22086174.658    22086180.817    37764640.812 9 -39157362.425 8
  24405092.232    24405096.625   -19570905.740 9   6124926.879 9
 86  6 13  4 25 11.0800000  0  3G12G13G 7
  21535354.263    21535359.900     9326191.487 8 -17104959.879 8
  22088025.709    22088030.595    37774360.813 9 -39149788.392 9
  24404010.951    24404014.814   -19576588.081 9   6120499.078 8
 86  6 13  4 25 17.0800000  0  3G12G13G 7
  21537816.013    21537822.083     9339129.947 8 -17094877.959 8
  22089875.230    22089880.058    37784082.734 9 -39142212.859 9
  24402934.334    24402937.418   -19582250.235 9   6116087.007 8
 86  6 13  4 25 23.0800000  0  3G12G13G 7
  21540282.463    21540287.700     9352089.521 9 -17084779.608 8
  22091724.708    22091731.210    37793806.505 9 -39134635.893 8
  24401860.007    24401864.886   -19587892.550 9   6111690.414 8
 86  6 13  4 25 29.0800000  0  3G12G13G 7
  21542754.215    21542758.400     9365070.115 8 -17074664.861 8
  22093575.601    22093581.331    37803532.182 9 -39127057.439 9
  24400790.015    24400795.267   -19593511.738 9   6107311.814 8
 86  6 13  4 25 35.0800000  0  3G12G13G 7
  21545227.026    21545230.892     9378071.718 8 -17064533.735 8
  22095426.839    22095432.654    37813259.733 9 -39119477.528 9
                  24399731.407                     6102956.629 8
 86  6 13  4 25 41.0800000  0  3G12G13G 7
  21547704.008    21547710.643     9391094.374 8 -17054386.226 9
  22097278.491    22097284.235    37822989.211 9 -39111896.113 8
  24398669.515    24398674.573   -19635475.630 9   6098629.444 9
 86  6 13  4 25 47.0800000  0  3G12G13G 7
  21550186.101    21550192.361     9404137.942 8 -17044222.401 8
  22099130.286    22099135.558    37832720.555 9 -39104313.236 8
  24397619.992    24397624.836   -19640992.241 9   6094330.780 8
 86  6 13  4 25 53.0800000  0  3G12G13G 7
  21552671.533    21552679.192     9417202.449 7 -17034042.283 9
  22100982.411    22100987.282    37842453.741 8 -39096728.930 9
  24396576.780    24396582.311   -19646475.325 9   6090057.858 9
 86  6 13  4 25 59.0800000  0  3G12G13G 7
  21555161.612    21555169.384     9430287.830 8 -17023845.888 7
  22102834.021    22102840.237    37852188.796 8 -39089143.175 8
  24395538.341    24395544.795   -19651930.603 9   6085806.999 9
 86  6 13  4 26  5.0800000  0  3G12G13G 7
  21557655.922    21557663.065     9443394.155 7 -17013633.173 8
  22104688.291    22104693.564    37861925.681 8 -39081555.971 9
  24394506.262    24394511.843   -19657361.288 9   6081575.291 8
 86  6 13  4 26 11.0800000  0  3G12G13G 7
  21560154.382    21560160.745     9456521.457 9 -17003404.121 8
  22106540.574    22106546.718    37871664.562 8 -39073967.240 8
  24393477.560    24393481.645   -19662769.892 9   6077360.795 8
 86  6 13  4 26 17.0800000  0  3G12G13G 7
  21562656.541    21562663.430     9469669.640 7 -16993158.774 8
  22108394.430    22108400.131    37881405.278 8 -39066377.072 9
  24392452.184    24392454.968   -19668158.234 9   6073162.092 8
 86  6 13  4 26 23.0800000  0  3G12G13G 7
  21565163.139    21565168.980     9482838.764 8 -16982897.123 8
  22110248.700    22110254.688    37891147.932 8 -39058785.393 8
  24391429.828    24391434.536   -19673526.564 9   6068978.985 8
 86  6 13  4 26 29.0800000  0  3G12G13G 7
  21567673.107    21567679.213     9496028.759 9 -16972619.208 8
  22112101.426    22112107.442    37900892.423 8 -39051192.287 9
  24390412.302    24390416.644   -19678871.506 9   6064814.095 8
 86  6 13  4 26 35.0800000  0  3G12G13G 7
  21570186.910    21570193.985     9509239.625 9 -16962325.032 8
  22113955.869    22113962.371    37910638.794 8 -39043597.712 8
                  24389406.243                     6060673.025 8
 86  6 13  4 26 41.0800000  0  3G12G13G 7
  21572704.323    21572710.372     9522471.305 8 -16952014.634 8
  22115809.052    22115818.044    37920386.978 7 -39036001.739 8
  24388395.041    24388401.044   -19720559.563 9   6056560.139 8
 86  6 13  4 26 47.0800000  0  3G12G13G 7
  21575226.454    21575232.614     9535723.724 9 -16941688.085 8
  22117666.572    22117673.003    37930136.935 8 -39028404.370 8
  24387398.084    24387404.452   -19725801.226 9   6052475.737 9
 86  6 13  4 26 53.0800000  0  3G12G13G 7
  21577751.808    21577758.733     9548996.810 9 -16931345.428 8
  22119522.560    22119527.502    37939888.648 7 -39020805.613 9
  24386406.729    24386413.211   -19731010.498 9   6048416.940 9
 86  6 13  4 26 59.0800000  0  3G12G13G 7
  21580282.113    21580289.275     9562290.564 8 -16920986.657 8
  22121377.275    22121383.863    37949642.134 9 -39013205.501 8
  24385421.863    24385427.301   -19736191.026 9   6044380.173 9
 86  6 13  4 27  5.0800000  0  3G12G13G 7
  21582816.328    21582822.499     9575605.059 8 -16910611.727 8
  22123234.850    22123240.537    37959397.426 8 -39005603.973 8
  24384439.981    24384445.590   -19741346.922 8   6040362.591 8
 86  6 13  4 27 11.0800000  0  3G12G13G 7
  21585353.888    21585360.545     9588940.286 8 -16900220.671 8
  22125092.255    22125098.014    37969154.612 7 -38998000.973 8
  24383463.657    24383468.064   -19746480.758 9   6036362.190 8
 86  6 13  4 27 17.0800000  0  3G12G13G 7
  21587895.473    21587902.144     9602296.150 9 -16889813.517 8
  22126949.889    22126953.573    37978913.713 8 -38990396.471 8
  24382489.430    24382495.619   -19751594.498 9   6032377.464 8
 86  6 13  4 27 23.0800000  0  3G12G13G 7
  21590441.457    21590446.597     9615672.710 9 -16879390.213 9
  22128807.537    22128810.963    37988674.568 8 -38982790.621 8
  24381521.206    24381526.650   -19756688.085 9   6028408.429 8
 86  6 13  4 27 29.0800000  0  3G12G13G 7
  21592990.128    21592996.781     9629069.872 9 -16868950.876 8
  22130664.541    22130669.040    37998437.190 8 -38975183.372 8
  24380556.837    24380561.581   -19761757.989 9   6024457.845 9
 86  6 13  4 27 35.0800000  0  3G12G13G 7
  21595544.032    21595550.263     9642487.598 9 -16858495.488 8
  22132524.549    22132528.635    38008201.566 9 -38967574.767 8
                  24379602.629                     6020531.380 8
 86  6 13  4 27 41.0800000  0  3G12G13G 7
  21598101.239    21598106.629     9655925.842 8 -16848024.134 8
  22134380.781    22134385.939    38017967.721 9 -38959964.766 8
  24378645.472    24378649.672   -19803174.365 9   6016633.426 9
 86  6 13  4 27 47.0800000  0  3G12G13G 7
  21600662.874    21600668.207     9669384.716 8 -16837536.704 7
  22136240.389    22136245.676    38027735.665 9 -38952353.378 9
  24377700.722    24377705.180   -19808140.276 9   6012763.865 8
 86  6 13  4 27 53.0800000  0  3G12G13G 7
  21603227.235    21603232.769     9682864.091 8 -16827033.287 8
  22138099.469    22138104.755    38037505.428 9 -38944740.574 9
  24376762.526    24376766.525   -19813073.467 9   6008919.817 8
 86  6 13  4 27 59.0800000  0  3G12G13G 7
  21605795.971    21605801.512     9696363.877 9 -16816513.966 8
  22139958.862    22139964.807    38047276.881 9 -38937126.452 8
  24375829.066    24375833.874   -19817978.629 8   6005097.614 9
 86  6 13  4 28  5.0800000  0  3G12G13G 7
  21608369.561    21608375.650     9709884.055 9 -16805978.762 8
  22141818.356    22141824.028    38057049.990 8 -38929511.036 9
  24374900.149    24374905.049   -19822859.466 9   6001294.361 7
 86  6 13  4 28 11.0800000  0  3G12G13G 7
  21610946.103    21610951.487     9723424.637 8 -16795427.665 8
  22143680.239    22143684.195    38066824.736 8 -38921894.351 8
  24373975.932    24373980.561   -19827718.510 9   5997508.093 9
 86  6 13  4 28 17.0800000  0  3G12G13G 7
  21613526.698    21613532.450     9736985.545 8 -16784860.727 8
  22145539.833    22145545.763    38076601.209 9 -38914276.319 9
  24373054.291    24373060.752   -19832557.400 9   5993737.520 8
 86  6 13  4 28 23.0800000  0  3G12G13G 7
  21616110.856    21616115.864     9750566.738 9 -16774277.990 8
  22147400.114    22147404.727    38086379.427 9 -38906656.928 8
  24372137.065    24372143.239   -19837376.109 9   5989982.676 9
 86  6 13  4 28 29.0800000  0  3G12G13G 7
  21618698.415    21618705.269     9764168.215 8 -16763679.425 8
  22149260.238    22149265.724    38096159.242 8 -38899036.299 9
                  24371230.605                     5986246.726 8
 86  6 13  4 28 35.0800000  0  3G12G13G 7
  21621290.744    21621297.000     9777790.020 9 -16753065.033 8
  22151120.490    22151128.323    38105940.622 9 -38891414.442 9
  24370266.274    24370324.941   -19878579.691 9   5982535.054 8
 86  6 13  4 28 41.0800000  0  3G12G13G 7
  21623886.263    21623892.977     9791432.130 8 -16742434.823 8
  22152980.742    22152989.148    38115723.744 8 -38883791.238 9
  24369418.776    24369425.158   -19883306.300 9   5978852.151 9
 86  6 13  4 28 47.0800000  0  3G12G13G 7
  21626487.424    21626492.771     9805094.488 9 -16731788.837 8
  22154842.969    22154850.974    38125508.689 8 -38876166.623 9
  24368525.996    24368532.622   -19887996.202 9   5975197.682 9
 86  6 13  4 28 53.0800000  0  3G12G13G 7
  21629091.479    21629096.089     9818777.208 9 -16721126.989 8
  22156705.811    22156712.829    38135295.380 8 -38868540.626 8
  24367639.049    24367645.530   -19892653.476 9   5971568.644 9
 86  6 13  4 28 59.0800000  0  3G12G13G 7
  21631699.175    21631704.870     9832480.240 9 -16710449.295 9
  22158568.109    22158575.886    38145083.879 9 -38860913.228 9
  24366759.290    24366765.422   -19897282.718 9   5967961.447 8
 86  6 13  4 29  5.0800000  0  3G12G13G 7
  21634310.138    21634316.530     9846203.616 9 -16699755.753 9
  22160430.980    22160438.113    38154874.112 8 -38853284.476 8
  24365882.015    24365889.964   -19901887.567 9   5964373.259 8
 86  6 13  4 29 11.0800000  0  3G12G13G 7
  21636925.503    21636932.003     9859947.278 9 -16689046.406 8
  22162296.327    22162302.371    38164666.138 8 -38845654.342 8
  24365010.092    24365016.932   -19906470.297 9   5960802.303 9
 86  6 13  4 29 17.0800000  0  3G12G13G 7
  21639544.819    21639551.583     9873711.198 9 -16678321.284 8
  22164158.539    22164164.770    38174459.947 7 -38838022.801 8
  24364142.075    24364148.779   -19911032.715 8   5957247.181 9
 86  6 13  4 29 23.0800000  0  3G12G13G 7
  21642166.824    21642174.630     9887495.411 9 -16667580.340 9
  22166024.029    22166029.343    38184255.576 8 -38830389.856 8
  24363278.572    24363284.074   -19915574.540 9   5953708.087 9
 86  6 13  4 29 29.0800000  0  3G12G13G 7
  21644794.700    21644800.914     9901299.893 9 -16656823.606 8
  22167889.704    22167894.375    38194053.004 9 -38822755.497 7
                  24362424.421                     5950188.150 8
 86  6 13  4 29 35.0800000  0  3G12G13G 7
  21647424.998    21647432.274     9915124.647 9 -16646051.090 8
  22169756.266    22169758.719    38203852.227 9 -38815119.746 8
  24361527.706    24361571.707   -19956505.414 9   5946692.821 8
 86  6 13  4 29 41.0800000  0  3G12G13G 7
  21650059.736    21650067.297     9928969.566 8 -16635262.834 8
  22171619.437    22171623.779    38213653.266 8 -38807482.573 8
  24360718.915    24360724.753   -19960954.016 9   5943226.402 9
